<?xml version="1.0" encoding="UTF-8" standalone="no" ?>
<gpx xmlns="http://www.topografix.com/GPX/1/1" xmlns:xsi="http://www.w3.org/2001/XMLSchema-instance" xsi:schemaLocation="http://www.topografix.com/GPX/1/1 http://www.topografix.com/GPX/1/1/gpx.xsd" version="1.1" creator="VisuGPX - https://www.visugpx.com">
  <metadata>
    <name>Le Fenouillet</name>
    <desc><![CDATA[boucle autour du Fenouillet]]></desc>
  </metadata>
  <trk>
    <name><![CDATA[2021-01-17 Fenouillet]]></name>
    <trkseg>
      <trkpt lat="43.13686" lon="6.07984">
        <ele>57.94140625</ele>
        <time>2021-01-17T13:02:45Z</time>
      </trkpt>
      <trkpt lat="43.13687" lon="6.07984">
        <ele>57.84765625</ele>
        <time>2021-01-17T13:02:53Z</time>
      </trkpt>
      <trkpt lat="43.13685" lon="6.07984">
        <ele>57.9765625</ele>
        <time>2021-01-17T13:03:16Z</time>
      </trkpt>
      <trkpt lat="43.13684" lon="6.07984">
        <ele>58.0078125</ele>
        <time>2021-01-17T13:03:49Z</time>
      </trkpt>
      <trkpt lat="43.13687" lon="6.07986">
        <ele>57.96484375</ele>
        <time>2021-01-17T13:04:12Z</time>
      </trkpt>
      <trkpt lat="43.13688" lon="6.07983">
        <ele>57.6640625</ele>
        <time>2021-01-17T13:04:24Z</time>
      </trkpt>
      <trkpt lat="43.13689" lon="6.07978">
        <ele>57.19921875</ele>
        <time>2021-01-17T13:04:27Z</time>
      </trkpt>
      <trkpt lat="43.13688" lon="6.07976">
        <ele>57.203125</ele>
        <time>2021-01-17T13:04:28Z</time>
      </trkpt>
      <trkpt lat="43.13686" lon="6.07976">
        <ele>57.3671875</ele>
        <time>2021-01-17T13:04:29Z</time>
      </trkpt>
      <trkpt lat="43.13683" lon="6.07978">
        <ele>57.63671875</ele>
        <time>2021-01-17T13:04:30Z</time>
      </trkpt>
      <trkpt lat="43.13682" lon="6.0798">
        <ele>57.92578125</ele>
        <time>2021-01-17T13:04:31Z</time>
      </trkpt>
      <trkpt lat="43.13682" lon="6.07986">
        <ele>58.3125</ele>
        <time>2021-01-17T13:04:33Z</time>
      </trkpt>
      <trkpt lat="43.13684" lon="6.07989">
        <ele>58.38671875</ele>
        <time>2021-01-17T13:04:34Z</time>
      </trkpt>
      <trkpt lat="43.13686" lon="6.07991">
        <ele>58.39453125</ele>
        <time>2021-01-17T13:04:35Z</time>
      </trkpt>
      <trkpt lat="43.13688" lon="6.07994">
        <ele>58.40234375</ele>
        <time>2021-01-17T13:04:36Z</time>
      </trkpt>
      <trkpt lat="43.1369" lon="6.07997">
        <ele>58.41796875</ele>
        <time>2021-01-17T13:04:37Z</time>
      </trkpt>
      <trkpt lat="43.13692" lon="6.08">
        <ele>58.40625</ele>
        <time>2021-01-17T13:04:38Z</time>
      </trkpt>
      <trkpt lat="43.13694" lon="6.08003">
        <ele>58.421875</ele>
        <time>2021-01-17T13:04:39Z</time>
      </trkpt>
      <trkpt lat="43.13695" lon="6.08006">
        <ele>58.45703125</ele>
        <time>2021-01-17T13:04:40Z</time>
      </trkpt>
      <trkpt lat="43.13696" lon="6.0801">
        <ele>58.5390625</ele>
        <time>2021-01-17T13:04:41Z</time>
      </trkpt>
      <trkpt lat="43.13697" lon="6.08013">
        <ele>58.5859375</ele>
        <time>2021-01-17T13:04:42Z</time>
      </trkpt>
      <trkpt lat="43.13699" lon="6.08017">
        <ele>58.6171875</ele>
        <time>2021-01-17T13:04:43Z</time>
      </trkpt>
      <trkpt lat="43.137" lon="6.0802">
        <ele>58.703125</ele>
        <time>2021-01-17T13:04:44Z</time>
      </trkpt>
      <trkpt lat="43.13702" lon="6.08031">
        <ele>59.265625</ele>
        <time>2021-01-17T13:04:47Z</time>
      </trkpt>
      <trkpt lat="43.13703" lon="6.08061">
        <ele>61.875</ele>
        <time>2021-01-17T13:04:56Z</time>
      </trkpt>
      <trkpt lat="43.13694" lon="6.08068">
        <ele>63.9609375</ele>
        <time>2021-01-17T13:05:01Z</time>
      </trkpt>
      <trkpt lat="43.13678" lon="6.08081">
        <ele>67.7109375</ele>
        <time>2021-01-17T13:05:10Z</time>
      </trkpt>
      <trkpt lat="43.1367" lon="6.08087">
        <ele>69.16015625</ele>
        <time>2021-01-17T13:05:14Z</time>
      </trkpt>
      <trkpt lat="43.1366" lon="6.08096">
        <ele>71.2734375</ele>
        <time>2021-01-17T13:05:20Z</time>
      </trkpt>
      <trkpt lat="43.13658" lon="6.08097">
        <ele>71.58984375</ele>
        <time>2021-01-17T13:05:21Z</time>
      </trkpt>
      <trkpt lat="43.13645" lon="6.08104">
        <ele>73.78125</ele>
        <time>2021-01-17T13:05:28Z</time>
      </trkpt>
      <trkpt lat="43.13635" lon="6.0811">
        <ele>75.33984375</ele>
        <time>2021-01-17T13:05:34Z</time>
      </trkpt>
      <trkpt lat="43.13624" lon="6.08122">
        <ele>77.30078125</ele>
        <time>2021-01-17T13:05:41Z</time>
      </trkpt>
      <trkpt lat="43.13609" lon="6.08134">
        <ele>77.72265625</ele>
        <time>2021-01-17T13:05:49Z</time>
      </trkpt>
      <trkpt lat="43.1361" lon="6.0813">
        <ele>77.609375</ele>
        <time>2021-01-17T13:05:55Z</time>
      </trkpt>
      <trkpt lat="43.13611" lon="6.08139">
        <ele>77.98046875</ele>
        <time>2021-01-17T13:05:59Z</time>
      </trkpt>
      <trkpt lat="43.1361" lon="6.08142">
        <ele>78.05859375</ele>
        <time>2021-01-17T13:06:00Z</time>
      </trkpt>
      <trkpt lat="43.1361" lon="6.08146">
        <ele>78.15625</ele>
        <time>2021-01-17T13:06:01Z</time>
      </trkpt>
      <trkpt lat="43.1361" lon="6.08152">
        <ele>78.375</ele>
        <time>2021-01-17T13:06:03Z</time>
      </trkpt>
      <trkpt lat="43.13623" lon="6.08188">
        <ele>79.00390625</ele>
        <time>2021-01-17T13:06:14Z</time>
      </trkpt>
      <trkpt lat="43.13623" lon="6.08189">
        <ele>79.0078125</ele>
        <time>2021-01-17T13:06:15Z</time>
      </trkpt>
      <trkpt lat="43.13637" lon="6.08222">
        <ele>79.7265625</ele>
        <time>2021-01-17T13:06:27Z</time>
      </trkpt>
      <trkpt lat="43.13639" lon="6.08228">
        <ele>79.97265625</ele>
        <time>2021-01-17T13:06:37Z</time>
      </trkpt>
      <trkpt lat="43.13657" lon="6.08275">
        <ele>82.28515625</ele>
        <time>2021-01-17T13:06:48Z</time>
      </trkpt>
      <trkpt lat="43.1368" lon="6.08316">
        <ele>84.69921875</ele>
        <time>2021-01-17T13:07:02Z</time>
      </trkpt>
      <trkpt lat="43.13706" lon="6.08346">
        <ele>85.6328125</ele>
        <time>2021-01-17T13:07:16Z</time>
      </trkpt>
      <trkpt lat="43.13708" lon="6.08348">
        <ele>85.36328125</ele>
        <time>2021-01-17T13:07:17Z</time>
      </trkpt>
      <trkpt lat="43.13715" lon="6.08382">
        <ele>84.51953125</ele>
        <time>2021-01-17T13:07:28Z</time>
      </trkpt>
      <trkpt lat="43.13703" lon="6.08424">
        <ele>86.203125</ele>
        <time>2021-01-17T13:07:40Z</time>
      </trkpt>
      <trkpt lat="43.13689" lon="6.08465">
        <ele>91.7578125</ele>
        <time>2021-01-17T13:07:53Z</time>
      </trkpt>
      <trkpt lat="43.13685" lon="6.085">
        <ele>98.44921875</ele>
        <time>2021-01-17T13:08:05Z</time>
      </trkpt>
      <trkpt lat="43.13685" lon="6.08506">
        <ele>99.5625</ele>
        <time>2021-01-17T13:08:07Z</time>
      </trkpt>
      <trkpt lat="43.13687" lon="6.08516">
        <ele>101.17578125</ele>
        <time>2021-01-17T13:08:11Z</time>
      </trkpt>
      <trkpt lat="43.13706" lon="6.08552">
        <ele>108.3671875</ele>
        <time>2021-01-17T13:08:28Z</time>
      </trkpt>
      <trkpt lat="43.13711" lon="6.08556">
        <ele>108.79296875</ele>
        <time>2021-01-17T13:08:31Z</time>
      </trkpt>
      <trkpt lat="43.13738" lon="6.08584">
        <ele>110.19921875</ele>
        <time>2021-01-17T13:08:46Z</time>
      </trkpt>
      <trkpt lat="43.1375" lon="6.08598">
        <ele>109.02734375</ele>
        <time>2021-01-17T13:08:53Z</time>
      </trkpt>
      <trkpt lat="43.13764" lon="6.08615">
        <ele>105.32421875</ele>
        <time>2021-01-17T13:09:02Z</time>
      </trkpt>
      <trkpt lat="43.13758" lon="6.08649">
        <ele>102.76171875</ele>
        <time>2021-01-17T13:09:15Z</time>
      </trkpt>
      <trkpt lat="43.13735" lon="6.08692">
        <ele>105.2421875</ele>
        <time>2021-01-17T13:09:31Z</time>
      </trkpt>
      <trkpt lat="43.13719" lon="6.08743">
        <ele>108.34375</ele>
        <time>2021-01-17T13:09:46Z</time>
      </trkpt>
      <trkpt lat="43.13721" lon="6.08792">
        <ele>108.88671875</ele>
        <time>2021-01-17T13:09:59Z</time>
      </trkpt>
      <trkpt lat="43.13717" lon="6.08841">
        <ele>110.67578125</ele>
        <time>2021-01-17T13:10:14Z</time>
      </trkpt>
      <trkpt lat="43.13706" lon="6.08888">
        <ele>113.09765625</ele>
        <time>2021-01-17T13:10:29Z</time>
      </trkpt>
      <trkpt lat="43.13697" lon="6.08917">
        <ele>115.3515625</ele>
        <time>2021-01-17T13:10:38Z</time>
      </trkpt>
      <trkpt lat="43.13682" lon="6.08954">
        <ele>119.39453125</ele>
        <time>2021-01-17T13:10:51Z</time>
      </trkpt>
      <trkpt lat="43.13661" lon="6.08996">
        <ele>123.19921875</ele>
        <time>2021-01-17T13:11:05Z</time>
      </trkpt>
      <trkpt lat="43.13653" lon="6.09008">
        <ele>125.78125</ele>
        <time>2021-01-17T13:11:10Z</time>
      </trkpt>
      <trkpt lat="43.13653" lon="6.0901">
        <ele>125.875</ele>
        <time>2021-01-17T13:11:11Z</time>
      </trkpt>
      <trkpt lat="43.13653" lon="6.09013">
        <ele>125.890625</ele>
        <time>2021-01-17T13:11:12Z</time>
      </trkpt>
      <trkpt lat="43.13653" lon="6.09015">
        <ele>125.88671875</ele>
        <time>2021-01-17T13:11:13Z</time>
      </trkpt>
      <trkpt lat="43.13652" lon="6.09018">
        <ele>126.0390625</ele>
        <time>2021-01-17T13:11:14Z</time>
      </trkpt>
      <trkpt lat="43.13652" lon="6.0902">
        <ele>126.20703125</ele>
        <time>2021-01-17T13:11:15Z</time>
      </trkpt>
      <trkpt lat="43.13651" lon="6.09024">
        <ele>126.36328125</ele>
        <time>2021-01-17T13:11:16Z</time>
      </trkpt>
      <trkpt lat="43.1365" lon="6.09027">
        <ele>126.5703125</ele>
        <time>2021-01-17T13:11:17Z</time>
      </trkpt>
      <trkpt lat="43.13649" lon="6.09029">
        <ele>126.70703125</ele>
        <time>2021-01-17T13:11:18Z</time>
      </trkpt>
      <trkpt lat="43.13648" lon="6.09031">
        <ele>126.765625</ele>
        <time>2021-01-17T13:11:19Z</time>
      </trkpt>
      <trkpt lat="43.13646" lon="6.09032">
        <ele>126.87109375</ele>
        <time>2021-01-17T13:11:20Z</time>
      </trkpt>
      <trkpt lat="43.13645" lon="6.09034">
        <ele>126.9921875</ele>
        <time>2021-01-17T13:11:21Z</time>
      </trkpt>
      <trkpt lat="43.13644" lon="6.09036">
        <ele>127.09375</ele>
        <time>2021-01-17T13:11:22Z</time>
      </trkpt>
      <trkpt lat="43.13643" lon="6.09038">
        <ele>127.15234375</ele>
        <time>2021-01-17T13:11:23Z</time>
      </trkpt>
      <trkpt lat="43.13643" lon="6.09041">
        <ele>127.1015625</ele>
        <time>2021-01-17T13:11:24Z</time>
      </trkpt>
      <trkpt lat="43.13643" lon="6.09043">
        <ele>126.9765625</ele>
        <time>2021-01-17T13:11:25Z</time>
      </trkpt>
      <trkpt lat="43.13644" lon="6.09046">
        <ele>126.87890625</ele>
        <time>2021-01-17T13:11:26Z</time>
      </trkpt>
      <trkpt lat="43.13646" lon="6.09095">
        <ele>129.2734375</ele>
        <time>2021-01-17T13:11:40Z</time>
      </trkpt>
      <trkpt lat="43.13647" lon="6.09116">
        <ele>131.1953125</ele>
        <time>2021-01-17T13:11:47Z</time>
      </trkpt>
      <trkpt lat="43.13647" lon="6.09119">
        <ele>131.5390625</ele>
        <time>2021-01-17T13:11:48Z</time>
      </trkpt>
      <trkpt lat="43.13644" lon="6.09174">
        <ele>138.5078125</ele>
        <time>2021-01-17T13:12:03Z</time>
      </trkpt>
      <trkpt lat="43.13651" lon="6.09203">
        <ele>143.46484375</ele>
        <time>2021-01-17T13:12:12Z</time>
      </trkpt>
      <trkpt lat="43.13661" lon="6.0922">
        <ele>146.66796875</ele>
        <time>2021-01-17T13:12:19Z</time>
      </trkpt>
      <trkpt lat="43.1368" lon="6.09245">
        <ele>150.2421875</ele>
        <time>2021-01-17T13:12:30Z</time>
      </trkpt>
      <trkpt lat="43.13695" lon="6.09257">
        <ele>149.078125</ele>
        <time>2021-01-17T13:12:37Z</time>
      </trkpt>
      <trkpt lat="43.1371" lon="6.09267">
        <ele>145.96484375</ele>
        <time>2021-01-17T13:12:44Z</time>
      </trkpt>
      <trkpt lat="43.13714" lon="6.09271">
        <ele>144.58984375</ele>
        <time>2021-01-17T13:12:46Z</time>
      </trkpt>
      <trkpt lat="43.13714" lon="6.09301">
        <ele>144.37109375</ele>
        <time>2021-01-17T13:12:57Z</time>
      </trkpt>
      <trkpt lat="43.13704" lon="6.09343">
        <ele>149.57421875</ele>
        <time>2021-01-17T13:13:12Z</time>
      </trkpt>
      <trkpt lat="43.13699" lon="6.09372">
        <ele>151.5234375</ele>
        <time>2021-01-17T13:13:21Z</time>
      </trkpt>
      <trkpt lat="43.13699" lon="6.09375">
        <ele>151.71875</ele>
        <time>2021-01-17T13:13:22Z</time>
      </trkpt>
      <trkpt lat="43.13698" lon="6.09382">
        <ele>152.36328125</ele>
        <time>2021-01-17T13:13:24Z</time>
      </trkpt>
      <trkpt lat="43.13698" lon="6.09392">
        <ele>153.86328125</ele>
        <time>2021-01-17T13:13:27Z</time>
      </trkpt>
      <trkpt lat="43.13703" lon="6.09437">
        <ele>158.32421875</ele>
        <time>2021-01-17T13:13:41Z</time>
      </trkpt>
      <trkpt lat="43.13713" lon="6.09478">
        <ele>158.83984375</ele>
        <time>2021-01-17T13:13:55Z</time>
      </trkpt>
      <trkpt lat="43.13714" lon="6.09486">
        <ele>158.99609375</ele>
        <time>2021-01-17T13:13:58Z</time>
      </trkpt>
      <trkpt lat="43.13711" lon="6.09519">
        <ele>163.54296875</ele>
        <time>2021-01-17T13:14:10Z</time>
      </trkpt>
      <trkpt lat="43.13711" lon="6.09521">
        <ele>163.7890625</ele>
        <time>2021-01-17T13:14:11Z</time>
      </trkpt>
      <trkpt lat="43.13704" lon="6.09544">
        <ele>166.21484375</ele>
        <time>2021-01-17T13:14:20Z</time>
      </trkpt>
      <trkpt lat="43.13703" lon="6.09549">
        <ele>166.98046875</ele>
        <time>2021-01-17T13:14:22Z</time>
      </trkpt>
      <trkpt lat="43.137" lon="6.09585">
        <ele>170.59375</ele>
        <time>2021-01-17T13:14:36Z</time>
      </trkpt>
      <trkpt lat="43.13704" lon="6.09615">
        <ele>171.4140625</ele>
        <time>2021-01-17T13:14:46Z</time>
      </trkpt>
      <trkpt lat="43.13704" lon="6.09618">
        <ele>171.6015625</ele>
        <time>2021-01-17T13:14:47Z</time>
      </trkpt>
      <trkpt lat="43.13703" lon="6.09626">
        <ele>172.50390625</ele>
        <time>2021-01-17T13:14:50Z</time>
      </trkpt>
      <trkpt lat="43.137" lon="6.09669">
        <ele>177.9921875</ele>
        <time>2021-01-17T13:15:06Z</time>
      </trkpt>
      <trkpt lat="43.13697" lon="6.09711">
        <ele>183.4375</ele>
        <time>2021-01-17T13:15:21Z</time>
      </trkpt>
      <trkpt lat="43.13692" lon="6.0974">
        <ele>189.8984375</ele>
        <time>2021-01-17T13:15:32Z</time>
      </trkpt>
      <trkpt lat="43.13688" lon="6.09747">
        <ele>192.18359375</ele>
        <time>2021-01-17T13:15:35Z</time>
      </trkpt>
      <trkpt lat="43.13683" lon="6.0976">
        <ele>196.078125</ele>
        <time>2021-01-17T13:15:41Z</time>
      </trkpt>
      <trkpt lat="43.13684" lon="6.09772">
        <ele>198.51171875</ele>
        <time>2021-01-17T13:15:46Z</time>
      </trkpt>
      <trkpt lat="43.13684" lon="6.09785">
        <ele>201.39453125</ele>
        <time>2021-01-17T13:15:51Z</time>
      </trkpt>
      <trkpt lat="43.13683" lon="6.09787">
        <ele>202.08203125</ele>
        <time>2021-01-17T13:15:52Z</time>
      </trkpt>
      <trkpt lat="43.13681" lon="6.09788">
        <ele>202.76171875</ele>
        <time>2021-01-17T13:15:53Z</time>
      </trkpt>
      <trkpt lat="43.13679" lon="6.09789">
        <ele>203.42578125</ele>
        <time>2021-01-17T13:15:54Z</time>
      </trkpt>
      <trkpt lat="43.13677" lon="6.0979">
        <ele>203.90234375</ele>
        <time>2021-01-17T13:15:55Z</time>
      </trkpt>
      <trkpt lat="43.13675" lon="6.09789">
        <ele>204.19140625</ele>
        <time>2021-01-17T13:15:56Z</time>
      </trkpt>
      <trkpt lat="43.13674" lon="6.09788">
        <ele>204.2109375</ele>
        <time>2021-01-17T13:15:57Z</time>
      </trkpt>
      <trkpt lat="43.13673" lon="6.09786">
        <ele>204.03515625</ele>
        <time>2021-01-17T13:15:58Z</time>
      </trkpt>
      <trkpt lat="43.13672" lon="6.09784">
        <ele>203.82421875</ele>
        <time>2021-01-17T13:15:59Z</time>
      </trkpt>
      <trkpt lat="43.13669" lon="6.09773">
        <ele>202.140625</ele>
        <time>2021-01-17T13:16:03Z</time>
      </trkpt>
      <trkpt lat="43.13664" lon="6.09752">
        <ele>199.796875</ele>
        <time>2021-01-17T13:16:11Z</time>
      </trkpt>
      <trkpt lat="43.13657" lon="6.09733">
        <ele>199.19140625</ele>
        <time>2021-01-17T13:16:19Z</time>
      </trkpt>
      <trkpt lat="43.13646" lon="6.0971">
        <ele>200.1328125</ele>
        <time>2021-01-17T13:16:29Z</time>
      </trkpt>
      <trkpt lat="43.13636" lon="6.09672">
        <ele>203.2421875</ele>
        <time>2021-01-17T13:16:44Z</time>
      </trkpt>
      <trkpt lat="43.13628" lon="6.09648">
        <ele>205.859375</ele>
        <time>2021-01-17T13:16:54Z</time>
      </trkpt>
      <trkpt lat="43.13626" lon="6.09648">
        <ele>206.49609375</ele>
        <time>2021-01-17T13:16:55Z</time>
      </trkpt>
      <trkpt lat="43.13625" lon="6.09649">
        <ele>207.1171875</ele>
        <time>2021-01-17T13:16:56Z</time>
      </trkpt>
      <trkpt lat="43.13624" lon="6.0965">
        <ele>207.61328125</ele>
        <time>2021-01-17T13:16:57Z</time>
      </trkpt>
      <trkpt lat="43.13623" lon="6.09653">
        <ele>208.015625</ele>
        <time>2021-01-17T13:16:58Z</time>
      </trkpt>
      <trkpt lat="43.13623" lon="6.09655">
        <ele>208.40234375</ele>
        <time>2021-01-17T13:16:59Z</time>
      </trkpt>
      <trkpt lat="43.13623" lon="6.09657">
        <ele>208.62890625</ele>
        <time>2021-01-17T13:17:00Z</time>
      </trkpt>
      <trkpt lat="43.13623" lon="6.0966">
        <ele>208.625</ele>
        <time>2021-01-17T13:17:01Z</time>
      </trkpt>
      <trkpt lat="43.13623" lon="6.09662">
        <ele>208.64453125</ele>
        <time>2021-01-17T13:17:02Z</time>
      </trkpt>
      <trkpt lat="43.13622" lon="6.09664">
        <ele>208.6875</ele>
        <time>2021-01-17T13:17:03Z</time>
      </trkpt>
      <trkpt lat="43.13622" lon="6.09667">
        <ele>208.7734375</ele>
        <time>2021-01-17T13:17:04Z</time>
      </trkpt>
      <trkpt lat="43.13622" lon="6.09669">
        <ele>208.75</ele>
        <time>2021-01-17T13:17:05Z</time>
      </trkpt>
      <trkpt lat="43.13622" lon="6.09671">
        <ele>208.69921875</ele>
        <time>2021-01-17T13:17:06Z</time>
      </trkpt>
      <trkpt lat="43.13622" lon="6.09673">
        <ele>208.73046875</ele>
        <time>2021-01-17T13:17:07Z</time>
      </trkpt>
      <trkpt lat="43.13622" lon="6.09675">
        <ele>208.8359375</ele>
        <time>2021-01-17T13:17:08Z</time>
      </trkpt>
      <trkpt lat="43.13622" lon="6.09677">
        <ele>209.0546875</ele>
        <time>2021-01-17T13:17:09Z</time>
      </trkpt>
      <trkpt lat="43.13621" lon="6.0968">
        <ele>209.296875</ele>
        <time>2021-01-17T13:17:10Z</time>
      </trkpt>
      <trkpt lat="43.1362" lon="6.09683">
        <ele>209.51171875</ele>
        <time>2021-01-17T13:17:11Z</time>
      </trkpt>
      <trkpt lat="43.1362" lon="6.09685">
        <ele>209.58203125</ele>
        <time>2021-01-17T13:17:12Z</time>
      </trkpt>
      <trkpt lat="43.1362" lon="6.09688">
        <ele>209.85546875</ele>
        <time>2021-01-17T13:17:13Z</time>
      </trkpt>
      <trkpt lat="43.13619" lon="6.09691">
        <ele>210.17578125</ele>
        <time>2021-01-17T13:17:14Z</time>
      </trkpt>
      <trkpt lat="43.13619" lon="6.09694">
        <ele>210.4921875</ele>
        <time>2021-01-17T13:17:15Z</time>
      </trkpt>
      <trkpt lat="43.13618" lon="6.09697">
        <ele>210.73828125</ele>
        <time>2021-01-17T13:17:16Z</time>
      </trkpt>
      <trkpt lat="43.13618" lon="6.09699">
        <ele>210.9765625</ele>
        <time>2021-01-17T13:17:17Z</time>
      </trkpt>
      <trkpt lat="43.13617" lon="6.09702">
        <ele>211.28125</ele>
        <time>2021-01-17T13:17:18Z</time>
      </trkpt>
      <trkpt lat="43.13617" lon="6.09704">
        <ele>211.4921875</ele>
        <time>2021-01-17T13:17:19Z</time>
      </trkpt>
      <trkpt lat="43.13612" lon="6.09728">
        <ele>213.96484375</ele>
        <time>2021-01-17T13:17:28Z</time>
      </trkpt>
      <trkpt lat="43.13611" lon="6.09731">
        <ele>214.3515625</ele>
        <time>2021-01-17T13:17:29Z</time>
      </trkpt>
      <trkpt lat="43.13602" lon="6.09767">
        <ele>217.88671875</ele>
        <time>2021-01-17T13:17:42Z</time>
      </trkpt>
      <trkpt lat="43.13593" lon="6.09818">
        <ele>224.45703125</ele>
        <time>2021-01-17T13:17:57Z</time>
      </trkpt>
      <trkpt lat="43.13586" lon="6.09838">
        <ele>226.74609375</ele>
        <time>2021-01-17T13:18:04Z</time>
      </trkpt>
      <trkpt lat="43.13586" lon="6.09841">
        <ele>226.95703125</ele>
        <time>2021-01-17T13:18:05Z</time>
      </trkpt>
      <trkpt lat="43.13586" lon="6.09843">
        <ele>227.125</ele>
        <time>2021-01-17T13:18:06Z</time>
      </trkpt>
      <trkpt lat="43.13584" lon="6.09849">
        <ele>227.48828125</ele>
        <time>2021-01-17T13:18:09Z</time>
      </trkpt>
      <trkpt lat="43.13582" lon="6.0985">
        <ele>227.53125</ele>
        <time>2021-01-17T13:18:10Z</time>
      </trkpt>
      <trkpt lat="43.13581" lon="6.09852">
        <ele>227.75</ele>
        <time>2021-01-17T13:18:11Z</time>
      </trkpt>
      <trkpt lat="43.13581" lon="6.09855">
        <ele>228.078125</ele>
        <time>2021-01-17T13:18:12Z</time>
      </trkpt>
      <trkpt lat="43.13582" lon="6.09858">
        <ele>228.4140625</ele>
        <time>2021-01-17T13:18:13Z</time>
      </trkpt>
      <trkpt lat="43.13583" lon="6.0986">
        <ele>228.6796875</ele>
        <time>2021-01-17T13:18:14Z</time>
      </trkpt>
      <trkpt lat="43.13585" lon="6.0986">
        <ele>228.83203125</ele>
        <time>2021-01-17T13:18:15Z</time>
      </trkpt>
      <trkpt lat="43.13588" lon="6.09862">
        <ele>229.20703125</ele>
        <time>2021-01-17T13:18:17Z</time>
      </trkpt>
      <trkpt lat="43.13588" lon="6.09864">
        <ele>229.47265625</ele>
        <time>2021-01-17T13:18:18Z</time>
      </trkpt>
      <trkpt lat="43.13588" lon="6.09866">
        <ele>229.7421875</ele>
        <time>2021-01-17T13:18:19Z</time>
      </trkpt>
      <trkpt lat="43.13587" lon="6.09868">
        <ele>229.9765625</ele>
        <time>2021-01-17T13:18:20Z</time>
      </trkpt>
      <trkpt lat="43.13587" lon="6.0987">
        <ele>230.19921875</ele>
        <time>2021-01-17T13:18:21Z</time>
      </trkpt>
      <trkpt lat="43.13587" lon="6.09905">
        <ele>232.4375</ele>
        <time>2021-01-17T13:18:33Z</time>
      </trkpt>
      <trkpt lat="43.13597" lon="6.09944">
        <ele>233.65234375</ele>
        <time>2021-01-17T13:18:47Z</time>
      </trkpt>
      <trkpt lat="43.136" lon="6.09952">
        <ele>233.61328125</ele>
        <time>2021-01-17T13:19:02Z</time>
      </trkpt>
      <trkpt lat="43.13599" lon="6.09954">
        <ele>233.28125</ele>
        <time>2021-01-17T13:19:05Z</time>
      </trkpt>
      <trkpt lat="43.136" lon="6.09956">
        <ele>233.20703125</ele>
        <time>2021-01-17T13:19:06Z</time>
      </trkpt>
      <trkpt lat="43.136" lon="6.09953">
        <ele>233.72265625</ele>
        <time>2021-01-17T13:19:10Z</time>
      </trkpt>
      <trkpt lat="43.13592" lon="6.09924">
        <ele>233.4453125</ele>
        <time>2021-01-17T13:19:21Z</time>
      </trkpt>
      <trkpt lat="43.13592" lon="6.09926">
        <ele>233.44140625</ele>
        <time>2021-01-17T13:19:22Z</time>
      </trkpt>
      <trkpt lat="43.13602" lon="6.09943">
        <ele>235.234375</ele>
        <time>2021-01-17T13:19:31Z</time>
      </trkpt>
      <trkpt lat="43.13607" lon="6.09951">
        <ele>235.83203125</ele>
        <time>2021-01-17T13:19:43Z</time>
      </trkpt>
      <trkpt lat="43.1361" lon="6.09957">
        <ele>236.06640625</ele>
        <time>2021-01-17T13:19:49Z</time>
      </trkpt>
      <trkpt lat="43.13611" lon="6.0996">
        <ele>235.953125</ele>
        <time>2021-01-17T13:19:50Z</time>
      </trkpt>
      <trkpt lat="43.13612" lon="6.09963">
        <ele>236</ele>
        <time>2021-01-17T13:19:51Z</time>
      </trkpt>
      <trkpt lat="43.13613" lon="6.09965">
        <ele>236.20703125</ele>
        <time>2021-01-17T13:19:52Z</time>
      </trkpt>
      <trkpt lat="43.13617" lon="6.09969">
        <ele>236.703125</ele>
        <time>2021-01-17T13:20:02Z</time>
      </trkpt>
      <trkpt lat="43.13618" lon="6.09971">
        <ele>236.6484375</ele>
        <time>2021-01-17T13:20:07Z</time>
      </trkpt>
      <trkpt lat="43.13632" lon="6.10001">
        <ele>235.14453125</ele>
        <time>2021-01-17T13:20:15Z</time>
      </trkpt>
      <trkpt lat="43.13633" lon="6.10003">
        <ele>234.8046875</ele>
        <time>2021-01-17T13:20:25Z</time>
      </trkpt>
      <trkpt lat="43.13631" lon="6.09999">
        <ele>235.33203125</ele>
        <time>2021-01-17T13:20:43Z</time>
      </trkpt>
      <trkpt lat="43.13629" lon="6.09993">
        <ele>236.43359375</ele>
        <time>2021-01-17T13:20:54Z</time>
      </trkpt>
      <trkpt lat="43.1363" lon="6.09995">
        <ele>236.3046875</ele>
        <time>2021-01-17T13:20:58Z</time>
      </trkpt>
      <trkpt lat="43.13634" lon="6.1">
        <ele>235.8046875</ele>
        <time>2021-01-17T13:21:01Z</time>
      </trkpt>
      <trkpt lat="43.13636" lon="6.10001">
        <ele>235.8984375</ele>
        <time>2021-01-17T13:21:02Z</time>
      </trkpt>
      <trkpt lat="43.13637" lon="6.10001">
        <ele>236.23046875</ele>
        <time>2021-01-17T13:21:03Z</time>
      </trkpt>
      <trkpt lat="43.13639" lon="6.10001">
        <ele>236.578125</ele>
        <time>2021-01-17T13:21:04Z</time>
      </trkpt>
      <trkpt lat="43.13641" lon="6.10002">
        <ele>236.86328125</ele>
        <time>2021-01-17T13:21:05Z</time>
      </trkpt>
      <trkpt lat="43.13643" lon="6.10002">
        <ele>237.171875</ele>
        <time>2021-01-17T13:21:06Z</time>
      </trkpt>
      <trkpt lat="43.13644" lon="6.10003">
        <ele>237.515625</ele>
        <time>2021-01-17T13:21:07Z</time>
      </trkpt>
      <trkpt lat="43.13646" lon="6.10003">
        <ele>237.87109375</ele>
        <time>2021-01-17T13:21:08Z</time>
      </trkpt>
      <trkpt lat="43.13647" lon="6.10002">
        <ele>238.23046875</ele>
        <time>2021-01-17T13:21:09Z</time>
      </trkpt>
      <trkpt lat="43.13649" lon="6.10002">
        <ele>238.6875</ele>
        <time>2021-01-17T13:21:10Z</time>
      </trkpt>
      <trkpt lat="43.13651" lon="6.10002">
        <ele>238.95703125</ele>
        <time>2021-01-17T13:21:11Z</time>
      </trkpt>
      <trkpt lat="43.13652" lon="6.10002">
        <ele>239.1328125</ele>
        <time>2021-01-17T13:21:12Z</time>
      </trkpt>
      <trkpt lat="43.13654" lon="6.10003">
        <ele>239.265625</ele>
        <time>2021-01-17T13:21:13Z</time>
      </trkpt>
      <trkpt lat="43.13662" lon="6.10005">
        <ele>240.1953125</ele>
        <time>2021-01-17T13:21:18Z</time>
      </trkpt>
      <trkpt lat="43.13672" lon="6.10006">
        <ele>241.5625</ele>
        <time>2021-01-17T13:21:24Z</time>
      </trkpt>
      <trkpt lat="43.13679" lon="6.10007">
        <ele>242.42578125</ele>
        <time>2021-01-17T13:21:28Z</time>
      </trkpt>
      <trkpt lat="43.1368" lon="6.10008">
        <ele>242.3203125</ele>
        <time>2021-01-17T13:21:29Z</time>
      </trkpt>
      <trkpt lat="43.13682" lon="6.10009">
        <ele>242.2578125</ele>
        <time>2021-01-17T13:21:30Z</time>
      </trkpt>
      <trkpt lat="43.13685" lon="6.10009">
        <ele>242.51171875</ele>
        <time>2021-01-17T13:21:32Z</time>
      </trkpt>
      <trkpt lat="43.13709" lon="6.1001">
        <ele>244.61328125</ele>
        <time>2021-01-17T13:21:44Z</time>
      </trkpt>
      <trkpt lat="43.13723" lon="6.10007">
        <ele>245.67578125</ele>
        <time>2021-01-17T13:21:56Z</time>
      </trkpt>
      <trkpt lat="43.13725" lon="6.10007">
        <ele>245.66796875</ele>
        <time>2021-01-17T13:21:59Z</time>
      </trkpt>
      <trkpt lat="43.13728" lon="6.10007">
        <ele>245.6328125</ele>
        <time>2021-01-17T13:22:00Z</time>
      </trkpt>
      <trkpt lat="43.13729" lon="6.10007">
        <ele>245.7734375</ele>
        <time>2021-01-17T13:22:01Z</time>
      </trkpt>
      <trkpt lat="43.13731" lon="6.10005">
        <ele>246.06640625</ele>
        <time>2021-01-17T13:22:02Z</time>
      </trkpt>
      <trkpt lat="43.13732" lon="6.10004">
        <ele>246.40234375</ele>
        <time>2021-01-17T13:22:03Z</time>
      </trkpt>
      <trkpt lat="43.13733" lon="6.10002">
        <ele>246.671875</ele>
        <time>2021-01-17T13:22:04Z</time>
      </trkpt>
      <trkpt lat="43.13735" lon="6.10001">
        <ele>246.7734375</ele>
        <time>2021-01-17T13:22:05Z</time>
      </trkpt>
      <trkpt lat="43.13736" lon="6.1">
        <ele>246.83984375</ele>
        <time>2021-01-17T13:22:06Z</time>
      </trkpt>
      <trkpt lat="43.1374" lon="6.09999">
        <ele>246.9140625</ele>
        <time>2021-01-17T13:22:08Z</time>
      </trkpt>
      <trkpt lat="43.13753" lon="6.09991">
        <ele>247.84375</ele>
        <time>2021-01-17T13:22:15Z</time>
      </trkpt>
      <trkpt lat="43.13755" lon="6.09991">
        <ele>247.91015625</ele>
        <time>2021-01-17T13:22:16Z</time>
      </trkpt>
      <trkpt lat="43.13757" lon="6.0999">
        <ele>247.94140625</ele>
        <time>2021-01-17T13:22:17Z</time>
      </trkpt>
      <trkpt lat="43.1376" lon="6.0999">
        <ele>247.88671875</ele>
        <time>2021-01-17T13:22:18Z</time>
      </trkpt>
      <trkpt lat="43.13762" lon="6.0999">
        <ele>247.56640625</ele>
        <time>2021-01-17T13:22:19Z</time>
      </trkpt>
      <trkpt lat="43.13763" lon="6.09991">
        <ele>247.0859375</ele>
        <time>2021-01-17T13:22:20Z</time>
      </trkpt>
      <trkpt lat="43.13765" lon="6.09992">
        <ele>246.47265625</ele>
        <time>2021-01-17T13:22:23Z</time>
      </trkpt>
      <trkpt lat="43.13766" lon="6.09993">
        <ele>245.90234375</ele>
        <time>2021-01-17T13:22:31Z</time>
      </trkpt>
      <trkpt lat="43.13768" lon="6.09996">
        <ele>244.9375</ele>
        <time>2021-01-17T13:22:36Z</time>
      </trkpt>
      <trkpt lat="43.13771" lon="6.10001">
        <ele>243.3046875</ele>
        <time>2021-01-17T13:22:42Z</time>
      </trkpt>
      <trkpt lat="43.13773" lon="6.10001">
        <ele>242.80078125</ele>
        <time>2021-01-17T13:22:43Z</time>
      </trkpt>
      <trkpt lat="43.13775" lon="6.10002">
        <ele>242.12109375</ele>
        <time>2021-01-17T13:22:44Z</time>
      </trkpt>
      <trkpt lat="43.1378" lon="6.10006">
        <ele>240.19140625</ele>
        <time>2021-01-17T13:22:46Z</time>
      </trkpt>
      <trkpt lat="43.13782" lon="6.10013">
        <ele>238.27734375</ele>
        <time>2021-01-17T13:22:49Z</time>
      </trkpt>
      <trkpt lat="43.13785" lon="6.10022">
        <ele>235.75390625</ele>
        <time>2021-01-17T13:22:53Z</time>
      </trkpt>
      <trkpt lat="43.13788" lon="6.10028">
        <ele>233.96484375</ele>
        <time>2021-01-17T13:22:55Z</time>
      </trkpt>
      <trkpt lat="43.1379" lon="6.10031">
        <ele>233.09765625</ele>
        <time>2021-01-17T13:22:57Z</time>
      </trkpt>
      <trkpt lat="43.13797" lon="6.10033">
        <ele>231.60546875</ele>
        <time>2021-01-17T13:23:01Z</time>
      </trkpt>
      <trkpt lat="43.13802" lon="6.10032">
        <ele>230.76953125</ele>
        <time>2021-01-17T13:23:03Z</time>
      </trkpt>
      <trkpt lat="43.13812" lon="6.10029">
        <ele>229.0625</ele>
        <time>2021-01-17T13:23:09Z</time>
      </trkpt>
      <trkpt lat="43.13816" lon="6.10027">
        <ele>228.54296875</ele>
        <time>2021-01-17T13:23:11Z</time>
      </trkpt>
      <trkpt lat="43.13824" lon="6.10019">
        <ele>227.80859375</ele>
        <time>2021-01-17T13:23:16Z</time>
      </trkpt>
      <trkpt lat="43.13829" lon="6.10019">
        <ele>226.625</ele>
        <time>2021-01-17T13:23:23Z</time>
      </trkpt>
      <trkpt lat="43.1385" lon="6.10027">
        <ele>221.54296875</ele>
        <time>2021-01-17T13:23:32Z</time>
      </trkpt>
      <trkpt lat="43.13853" lon="6.10028">
        <ele>221.23046875</ele>
        <time>2021-01-17T13:23:33Z</time>
      </trkpt>
      <trkpt lat="43.13861" lon="6.10032">
        <ele>220.03125</ele>
        <time>2021-01-17T13:23:36Z</time>
      </trkpt>
      <trkpt lat="43.13868" lon="6.10033">
        <ele>219.3359375</ele>
        <time>2021-01-17T13:23:38Z</time>
      </trkpt>
      <trkpt lat="43.1388" lon="6.10036">
        <ele>217.75</ele>
        <time>2021-01-17T13:23:41Z</time>
      </trkpt>
      <trkpt lat="43.13892" lon="6.10034">
        <ele>217.01953125</ele>
        <time>2021-01-17T13:23:49Z</time>
      </trkpt>
      <trkpt lat="43.13893" lon="6.10034">
        <ele>216.8671875</ele>
        <time>2021-01-17T13:23:51Z</time>
      </trkpt>
      <trkpt lat="43.13893" lon="6.1004">
        <ele>215.6484375</ele>
        <time>2021-01-17T13:23:55Z</time>
      </trkpt>
      <trkpt lat="43.13887" lon="6.10057">
        <ele>212.25390625</ele>
        <time>2021-01-17T13:24:01Z</time>
      </trkpt>
      <trkpt lat="43.13885" lon="6.10065">
        <ele>210.45703125</ele>
        <time>2021-01-17T13:24:05Z</time>
      </trkpt>
      <trkpt lat="43.13884" lon="6.10071">
        <ele>208.9921875</ele>
        <time>2021-01-17T13:24:07Z</time>
      </trkpt>
      <trkpt lat="43.13879" lon="6.10079">
        <ele>207.6796875</ele>
        <time>2021-01-17T13:24:09Z</time>
      </trkpt>
      <trkpt lat="43.13874" lon="6.10083">
        <ele>207.125</ele>
        <time>2021-01-17T13:24:10Z</time>
      </trkpt>
      <trkpt lat="43.13848" lon="6.10117">
        <ele>203.19140625</ele>
        <time>2021-01-17T13:24:16Z</time>
      </trkpt>
      <trkpt lat="43.13819" lon="6.10156">
        <ele>204.296875</ele>
        <time>2021-01-17T13:24:22Z</time>
      </trkpt>
      <trkpt lat="43.1381" lon="6.10164">
        <ele>205.66015625</ele>
        <time>2021-01-17T13:24:24Z</time>
      </trkpt>
      <trkpt lat="43.13795" lon="6.10174">
        <ele>208.25390625</ele>
        <time>2021-01-17T13:24:28Z</time>
      </trkpt>
      <trkpt lat="43.13788" lon="6.10191">
        <ele>208.78125</ele>
        <time>2021-01-17T13:24:32Z</time>
      </trkpt>
      <trkpt lat="43.13788" lon="6.10197">
        <ele>208.609375</ele>
        <time>2021-01-17T13:24:38Z</time>
      </trkpt>
      <trkpt lat="43.13791" lon="6.10211">
        <ele>207.4921875</ele>
        <time>2021-01-17T13:24:47Z</time>
      </trkpt>
      <trkpt lat="43.13798" lon="6.10235">
        <ele>200.8671875</ele>
        <time>2021-01-17T13:24:51Z</time>
      </trkpt>
      <trkpt lat="43.13797" lon="6.1024">
        <ele>199.89453125</ele>
        <time>2021-01-17T13:24:52Z</time>
      </trkpt>
      <trkpt lat="43.13793" lon="6.10243">
        <ele>199.640625</ele>
        <time>2021-01-17T13:24:55Z</time>
      </trkpt>
      <trkpt lat="43.13791" lon="6.10245">
        <ele>199.63671875</ele>
        <time>2021-01-17T13:24:56Z</time>
      </trkpt>
      <trkpt lat="43.13773" lon="6.10259">
        <ele>198.39453125</ele>
        <time>2021-01-17T13:25:00Z</time>
      </trkpt>
      <trkpt lat="43.1377" lon="6.10261">
        <ele>198.7734375</ele>
        <time>2021-01-17T13:25:08Z</time>
      </trkpt>
      <trkpt lat="43.13768" lon="6.10261">
        <ele>198.95703125</ele>
        <time>2021-01-17T13:25:11Z</time>
      </trkpt>
      <trkpt lat="43.13767" lon="6.10262">
        <ele>199.10546875</ele>
        <time>2021-01-17T13:25:12Z</time>
      </trkpt>
      <trkpt lat="43.13763" lon="6.10265">
        <ele>199.18359375</ele>
        <time>2021-01-17T13:25:14Z</time>
      </trkpt>
      <trkpt lat="43.1376" lon="6.10268">
        <ele>199.0078125</ele>
        <time>2021-01-17T13:25:15Z</time>
      </trkpt>
      <trkpt lat="43.13753" lon="6.10276">
        <ele>198.65234375</ele>
        <time>2021-01-17T13:25:17Z</time>
      </trkpt>
      <trkpt lat="43.13743" lon="6.10288">
        <ele>198.10546875</ele>
        <time>2021-01-17T13:25:20Z</time>
      </trkpt>
      <trkpt lat="43.13732" lon="6.10312">
        <ele>196.671875</ele>
        <time>2021-01-17T13:25:30Z</time>
      </trkpt>
      <trkpt lat="43.13733" lon="6.10312">
        <ele>196.5703125</ele>
        <time>2021-01-17T13:25:36Z</time>
      </trkpt>
      <trkpt lat="43.13736" lon="6.10306">
        <ele>196.69140625</ele>
        <time>2021-01-17T13:25:45Z</time>
      </trkpt>
      <trkpt lat="43.13736" lon="6.10305">
        <ele>196.7109375</ele>
        <time>2021-01-17T13:25:46Z</time>
      </trkpt>
      <trkpt lat="43.13737" lon="6.10304">
        <ele>196.6875</ele>
        <time>2021-01-17T13:25:47Z</time>
      </trkpt>
      <trkpt lat="43.13738" lon="6.10302">
        <ele>196.75</ele>
        <time>2021-01-17T13:25:48Z</time>
      </trkpt>
      <trkpt lat="43.13739" lon="6.10301">
        <ele>196.71484375</ele>
        <time>2021-01-17T13:25:49Z</time>
      </trkpt>
      <trkpt lat="43.13741" lon="6.10303">
        <ele>196.00390625</ele>
        <time>2021-01-17T13:25:52Z</time>
      </trkpt>
      <trkpt lat="43.13743" lon="6.10312">
        <ele>193.984375</ele>
        <time>2021-01-17T13:25:55Z</time>
      </trkpt>
      <trkpt lat="43.13744" lon="6.10317">
        <ele>193.19140625</ele>
        <time>2021-01-17T13:25:56Z</time>
      </trkpt>
      <trkpt lat="43.13743" lon="6.10321">
        <ele>192.55078125</ele>
        <time>2021-01-17T13:25:57Z</time>
      </trkpt>
      <trkpt lat="43.13743" lon="6.1033">
        <ele>191.625</ele>
        <time>2021-01-17T13:26:00Z</time>
      </trkpt>
      <trkpt lat="43.13743" lon="6.10332">
        <ele>191.45703125</ele>
        <time>2021-01-17T13:26:01Z</time>
      </trkpt>
      <trkpt lat="43.13743" lon="6.10333">
        <ele>191.171875</ele>
        <time>2021-01-17T13:26:02Z</time>
      </trkpt>
      <trkpt lat="43.13744" lon="6.10335">
        <ele>190.80078125</ele>
        <time>2021-01-17T13:26:03Z</time>
      </trkpt>
      <trkpt lat="43.13745" lon="6.1035">
        <ele>188.67578125</ele>
        <time>2021-01-17T13:26:08Z</time>
      </trkpt>
      <trkpt lat="43.13744" lon="6.10353">
        <ele>188.671875</ele>
        <time>2021-01-17T13:26:09Z</time>
      </trkpt>
      <trkpt lat="43.13743" lon="6.10355">
        <ele>188.85546875</ele>
        <time>2021-01-17T13:26:10Z</time>
      </trkpt>
      <trkpt lat="43.13742" lon="6.10357">
        <ele>189</ele>
        <time>2021-01-17T13:26:11Z</time>
      </trkpt>
      <trkpt lat="43.13741" lon="6.1036">
        <ele>189.0625</ele>
        <time>2021-01-17T13:26:12Z</time>
      </trkpt>
      <trkpt lat="43.1374" lon="6.10362">
        <ele>189.11328125</ele>
        <time>2021-01-17T13:26:13Z</time>
      </trkpt>
      <trkpt lat="43.13738" lon="6.10365">
        <ele>189.31640625</ele>
        <time>2021-01-17T13:26:14Z</time>
      </trkpt>
      <trkpt lat="43.13737" lon="6.10367">
        <ele>189.48828125</ele>
        <time>2021-01-17T13:26:15Z</time>
      </trkpt>
      <trkpt lat="43.13737" lon="6.10369">
        <ele>189.48828125</ele>
        <time>2021-01-17T13:26:16Z</time>
      </trkpt>
      <trkpt lat="43.13737" lon="6.10372">
        <ele>189.01953125</ele>
        <time>2021-01-17T13:26:17Z</time>
      </trkpt>
      <trkpt lat="43.13738" lon="6.10375">
        <ele>188.3046875</ele>
        <time>2021-01-17T13:26:18Z</time>
      </trkpt>
      <trkpt lat="43.13739" lon="6.10379">
        <ele>187.2890625</ele>
        <time>2021-01-17T13:26:19Z</time>
      </trkpt>
      <trkpt lat="43.13746" lon="6.10388">
        <ele>183.53515625</ele>
        <time>2021-01-17T13:26:22Z</time>
      </trkpt>
      <trkpt lat="43.13742" lon="6.1041">
        <ele>182.38671875</ele>
        <time>2021-01-17T13:26:26Z</time>
      </trkpt>
      <trkpt lat="43.1374" lon="6.10415">
        <ele>182.72265625</ele>
        <time>2021-01-17T13:26:27Z</time>
      </trkpt>
      <trkpt lat="43.13736" lon="6.10435">
        <ele>181.31640625</ele>
        <time>2021-01-17T13:26:31Z</time>
      </trkpt>
      <trkpt lat="43.13735" lon="6.1044">
        <ele>180.80859375</ele>
        <time>2021-01-17T13:26:32Z</time>
      </trkpt>
      <trkpt lat="43.13734" lon="6.10446">
        <ele>180.421875</ele>
        <time>2021-01-17T13:26:33Z</time>
      </trkpt>
      <trkpt lat="43.13732" lon="6.10452">
        <ele>179.92578125</ele>
        <time>2021-01-17T13:26:34Z</time>
      </trkpt>
      <trkpt lat="43.13731" lon="6.10458">
        <ele>179.3984375</ele>
        <time>2021-01-17T13:26:35Z</time>
      </trkpt>
      <trkpt lat="43.1373" lon="6.10463">
        <ele>178.8125</ele>
        <time>2021-01-17T13:26:36Z</time>
      </trkpt>
      <trkpt lat="43.13731" lon="6.10469">
        <ele>177.72265625</ele>
        <time>2021-01-17T13:26:37Z</time>
      </trkpt>
      <trkpt lat="43.1373" lon="6.10474">
        <ele>176.98828125</ele>
        <time>2021-01-17T13:26:38Z</time>
      </trkpt>
      <trkpt lat="43.13729" lon="6.10479">
        <ele>176.71875</ele>
        <time>2021-01-17T13:26:39Z</time>
      </trkpt>
      <trkpt lat="43.13727" lon="6.10485">
        <ele>176.515625</ele>
        <time>2021-01-17T13:26:40Z</time>
      </trkpt>
      <trkpt lat="43.13725" lon="6.10492">
        <ele>176.296875</ele>
        <time>2021-01-17T13:26:41Z</time>
      </trkpt>
      <trkpt lat="43.13722" lon="6.10499">
        <ele>176.13671875</ele>
        <time>2021-01-17T13:26:42Z</time>
      </trkpt>
      <trkpt lat="43.13719" lon="6.10505">
        <ele>176.4453125</ele>
        <time>2021-01-17T13:26:43Z</time>
      </trkpt>
      <trkpt lat="43.13716" lon="6.10511">
        <ele>176.93359375</ele>
        <time>2021-01-17T13:26:44Z</time>
      </trkpt>
      <trkpt lat="43.13713" lon="6.10516">
        <ele>177.60546875</ele>
        <time>2021-01-17T13:26:45Z</time>
      </trkpt>
      <trkpt lat="43.13709" lon="6.1052">
        <ele>178.765625</ele>
        <time>2021-01-17T13:26:46Z</time>
      </trkpt>
      <trkpt lat="43.13705" lon="6.10524">
        <ele>179.890625</ele>
        <time>2021-01-17T13:26:47Z</time>
      </trkpt>
      <trkpt lat="43.13703" lon="6.10527">
        <ele>179.99609375</ele>
        <time>2021-01-17T13:26:48Z</time>
      </trkpt>
      <trkpt lat="43.13702" lon="6.1053">
        <ele>179.78125</ele>
        <time>2021-01-17T13:26:49Z</time>
      </trkpt>
      <trkpt lat="43.13701" lon="6.10535">
        <ele>179.328125</ele>
        <time>2021-01-17T13:26:50Z</time>
      </trkpt>
      <trkpt lat="43.137" lon="6.1054">
        <ele>178.90625</ele>
        <time>2021-01-17T13:26:51Z</time>
      </trkpt>
      <trkpt lat="43.13699" lon="6.10546">
        <ele>178.50390625</ele>
        <time>2021-01-17T13:26:52Z</time>
      </trkpt>
      <trkpt lat="43.13698" lon="6.10552">
        <ele>178.40625</ele>
        <time>2021-01-17T13:26:53Z</time>
      </trkpt>
      <trkpt lat="43.13696" lon="6.10559">
        <ele>178.3203125</ele>
        <time>2021-01-17T13:26:54Z</time>
      </trkpt>
      <trkpt lat="43.13695" lon="6.10567">
        <ele>178.2109375</ele>
        <time>2021-01-17T13:26:55Z</time>
      </trkpt>
      <trkpt lat="43.13693" lon="6.10581">
        <ele>178.0390625</ele>
        <time>2021-01-17T13:26:57Z</time>
      </trkpt>
      <trkpt lat="43.13692" lon="6.10594">
        <ele>177.48828125</ele>
        <time>2021-01-17T13:26:59Z</time>
      </trkpt>
      <trkpt lat="43.13693" lon="6.10599">
        <ele>177.1953125</ele>
        <time>2021-01-17T13:27:00Z</time>
      </trkpt>
      <trkpt lat="43.13694" lon="6.10603">
        <ele>176.90234375</ele>
        <time>2021-01-17T13:27:01Z</time>
      </trkpt>
      <trkpt lat="43.13694" lon="6.10608">
        <ele>176.91015625</ele>
        <time>2021-01-17T13:27:02Z</time>
      </trkpt>
      <trkpt lat="43.13694" lon="6.10612">
        <ele>177.17578125</ele>
        <time>2021-01-17T13:27:03Z</time>
      </trkpt>
      <trkpt lat="43.13692" lon="6.10619">
        <ele>177.62109375</ele>
        <time>2021-01-17T13:27:05Z</time>
      </trkpt>
      <trkpt lat="43.13693" lon="6.10621">
        <ele>177.5703125</ele>
        <time>2021-01-17T13:27:06Z</time>
      </trkpt>
      <trkpt lat="43.13694" lon="6.10623">
        <ele>177.42578125</ele>
        <time>2021-01-17T13:27:07Z</time>
      </trkpt>
      <trkpt lat="43.13696" lon="6.10625">
        <ele>177.2734375</ele>
        <time>2021-01-17T13:27:08Z</time>
      </trkpt>
      <trkpt lat="43.13698" lon="6.10633">
        <ele>177.1328125</ele>
        <time>2021-01-17T13:27:19Z</time>
      </trkpt>
      <trkpt lat="43.13699" lon="6.10635">
        <ele>177.0625</ele>
        <time>2021-01-17T13:27:38Z</time>
      </trkpt>
      <trkpt lat="43.13701" lon="6.10666">
        <ele>176.23046875</ele>
        <time>2021-01-17T13:27:47Z</time>
      </trkpt>
      <trkpt lat="43.13697" lon="6.10682">
        <ele>174.9921875</ele>
        <time>2021-01-17T13:27:50Z</time>
      </trkpt>
      <trkpt lat="43.137" lon="6.10703">
        <ele>171.79296875</ele>
        <time>2021-01-17T13:27:55Z</time>
      </trkpt>
      <trkpt lat="43.13696" lon="6.10725">
        <ele>168.46484375</ele>
        <time>2021-01-17T13:28:00Z</time>
      </trkpt>
      <trkpt lat="43.13684" lon="6.10723">
        <ele>170.15625</ele>
        <time>2021-01-17T13:28:04Z</time>
      </trkpt>
      <trkpt lat="43.13679" lon="6.10732">
        <ele>169.140625</ele>
        <time>2021-01-17T13:28:07Z</time>
      </trkpt>
      <trkpt lat="43.13681" lon="6.10736">
        <ele>168.15625</ele>
        <time>2021-01-17T13:28:08Z</time>
      </trkpt>
      <trkpt lat="43.13674" lon="6.1075">
        <ele>166.03125</ele>
        <time>2021-01-17T13:28:15Z</time>
      </trkpt>
      <trkpt lat="43.13668" lon="6.10749">
        <ele>166.38671875</ele>
        <time>2021-01-17T13:28:17Z</time>
      </trkpt>
      <trkpt lat="43.13663" lon="6.10756">
        <ele>165.20703125</ele>
        <time>2021-01-17T13:28:23Z</time>
      </trkpt>
      <trkpt lat="43.13665" lon="6.1077">
        <ele>162.91796875</ele>
        <time>2021-01-17T13:28:26Z</time>
      </trkpt>
      <trkpt lat="43.13667" lon="6.10774">
        <ele>162.1328125</ele>
        <time>2021-01-17T13:28:27Z</time>
      </trkpt>
      <trkpt lat="43.1367" lon="6.10784">
        <ele>160.28515625</ele>
        <time>2021-01-17T13:28:29Z</time>
      </trkpt>
      <trkpt lat="43.1367" lon="6.10795">
        <ele>158.50390625</ele>
        <time>2021-01-17T13:28:31Z</time>
      </trkpt>
      <trkpt lat="43.13669" lon="6.10807">
        <ele>157.0625</ele>
        <time>2021-01-17T13:28:33Z</time>
      </trkpt>
      <trkpt lat="43.13669" lon="6.1082">
        <ele>155.45703125</ele>
        <time>2021-01-17T13:28:35Z</time>
      </trkpt>
      <trkpt lat="43.13668" lon="6.10826">
        <ele>155.16015625</ele>
        <time>2021-01-17T13:28:36Z</time>
      </trkpt>
      <trkpt lat="43.13665" lon="6.10876">
        <ele>155.671875</ele>
        <time>2021-01-17T13:28:47Z</time>
      </trkpt>
      <trkpt lat="43.13668" lon="6.10912">
        <ele>158.6875</ele>
        <time>2021-01-17T13:29:00Z</time>
      </trkpt>
      <trkpt lat="43.13672" lon="6.10933">
        <ele>160.44921875</ele>
        <time>2021-01-17T13:29:10Z</time>
      </trkpt>
      <trkpt lat="43.13677" lon="6.10976">
        <ele>164.61328125</ele>
        <time>2021-01-17T13:29:25Z</time>
      </trkpt>
      <trkpt lat="43.13685" lon="6.10989">
        <ele>164.0234375</ele>
        <time>2021-01-17T13:29:35Z</time>
      </trkpt>
      <trkpt lat="43.13686" lon="6.1099">
        <ele>163.71875</ele>
        <time>2021-01-17T13:29:36Z</time>
      </trkpt>
      <trkpt lat="43.13688" lon="6.1099">
        <ele>163.2890625</ele>
        <time>2021-01-17T13:29:37Z</time>
      </trkpt>
      <trkpt lat="43.13691" lon="6.10991">
        <ele>162.66796875</ele>
        <time>2021-01-17T13:29:38Z</time>
      </trkpt>
      <trkpt lat="43.13693" lon="6.10994">
        <ele>162.078125</ele>
        <time>2021-01-17T13:29:39Z</time>
      </trkpt>
      <trkpt lat="43.13696" lon="6.10997">
        <ele>161.57421875</ele>
        <time>2021-01-17T13:29:40Z</time>
      </trkpt>
      <trkpt lat="43.13698" lon="6.11001">
        <ele>161.02734375</ele>
        <time>2021-01-17T13:29:41Z</time>
      </trkpt>
      <trkpt lat="43.13702" lon="6.11008">
        <ele>159.9140625</ele>
        <time>2021-01-17T13:29:43Z</time>
      </trkpt>
      <trkpt lat="43.13709" lon="6.11035">
        <ele>158.64453125</ele>
        <time>2021-01-17T13:29:49Z</time>
      </trkpt>
      <trkpt lat="43.1371" lon="6.11041">
        <ele>158.93359375</ele>
        <time>2021-01-17T13:29:50Z</time>
      </trkpt>
      <trkpt lat="43.13711" lon="6.11062">
        <ele>160.0546875</ele>
        <time>2021-01-17T13:29:53Z</time>
      </trkpt>
      <trkpt lat="43.13713" lon="6.11068">
        <ele>160.08984375</ele>
        <time>2021-01-17T13:29:54Z</time>
      </trkpt>
      <trkpt lat="43.13722" lon="6.11106">
        <ele>162.68359375</ele>
        <time>2021-01-17T13:30:03Z</time>
      </trkpt>
      <trkpt lat="43.13732" lon="6.11134">
        <ele>164.015625</ele>
        <time>2021-01-17T13:30:08Z</time>
      </trkpt>
      <trkpt lat="43.13736" lon="6.1114">
        <ele>163.78515625</ele>
        <time>2021-01-17T13:30:09Z</time>
      </trkpt>
      <trkpt lat="43.13738" lon="6.11146">
        <ele>164.01953125</ele>
        <time>2021-01-17T13:30:10Z</time>
      </trkpt>
      <trkpt lat="43.13747" lon="6.11181">
        <ele>166.03125</ele>
        <time>2021-01-17T13:30:18Z</time>
      </trkpt>
      <trkpt lat="43.13755" lon="6.11202">
        <ele>166.015625</ele>
        <time>2021-01-17T13:30:25Z</time>
      </trkpt>
      <trkpt lat="43.13756" lon="6.11205">
        <ele>166.04296875</ele>
        <time>2021-01-17T13:30:26Z</time>
      </trkpt>
      <trkpt lat="43.13762" lon="6.1123">
        <ele>167.7109375</ele>
        <time>2021-01-17T13:30:33Z</time>
      </trkpt>
      <trkpt lat="43.13769" lon="6.11268">
        <ele>175.125</ele>
        <time>2021-01-17T13:30:44Z</time>
      </trkpt>
      <trkpt lat="43.1378" lon="6.11296">
        <ele>179.66796875</ele>
        <time>2021-01-17T13:30:52Z</time>
      </trkpt>
      <trkpt lat="43.13801" lon="6.11322">
        <ele>181.34375</ele>
        <time>2021-01-17T13:31:02Z</time>
      </trkpt>
      <trkpt lat="43.13825" lon="6.11346">
        <ele>177.5859375</ele>
        <time>2021-01-17T13:31:11Z</time>
      </trkpt>
      <trkpt lat="43.13836" lon="6.11373">
        <ele>171.84375</ele>
        <time>2021-01-17T13:31:20Z</time>
      </trkpt>
      <trkpt lat="43.13836" lon="6.11375">
        <ele>171.6484375</ele>
        <time>2021-01-17T13:31:21Z</time>
      </trkpt>
      <trkpt lat="43.13829" lon="6.11416">
        <ele>170.46875</ele>
        <time>2021-01-17T13:31:30Z</time>
      </trkpt>
      <trkpt lat="43.13828" lon="6.11441">
        <ele>171.19921875</ele>
        <time>2021-01-17T13:31:34Z</time>
      </trkpt>
      <trkpt lat="43.13828" lon="6.11447">
        <ele>170.8984375</ele>
        <time>2021-01-17T13:31:35Z</time>
      </trkpt>
      <trkpt lat="43.13829" lon="6.11454">
        <ele>170.28125</ele>
        <time>2021-01-17T13:31:36Z</time>
      </trkpt>
      <trkpt lat="43.13831" lon="6.11461">
        <ele>169.16796875</ele>
        <time>2021-01-17T13:31:37Z</time>
      </trkpt>
      <trkpt lat="43.13833" lon="6.11468">
        <ele>167.9609375</ele>
        <time>2021-01-17T13:31:38Z</time>
      </trkpt>
      <trkpt lat="43.13836" lon="6.11476">
        <ele>166.7890625</ele>
        <time>2021-01-17T13:31:39Z</time>
      </trkpt>
      <trkpt lat="43.13839" lon="6.11492">
        <ele>164.65234375</ele>
        <time>2021-01-17T13:31:41Z</time>
      </trkpt>
      <trkpt lat="43.1384" lon="6.11499">
        <ele>164.11328125</ele>
        <time>2021-01-17T13:31:42Z</time>
      </trkpt>
      <trkpt lat="43.1384" lon="6.11505">
        <ele>163.6796875</ele>
        <time>2021-01-17T13:31:43Z</time>
      </trkpt>
      <trkpt lat="43.13841" lon="6.11511">
        <ele>162.76171875</ele>
        <time>2021-01-17T13:31:44Z</time>
      </trkpt>
      <trkpt lat="43.13843" lon="6.11517">
        <ele>161.44921875</ele>
        <time>2021-01-17T13:31:45Z</time>
      </trkpt>
      <trkpt lat="43.13845" lon="6.11522">
        <ele>160.33203125</ele>
        <time>2021-01-17T13:31:46Z</time>
      </trkpt>
      <trkpt lat="43.13848" lon="6.11533">
        <ele>158.71875</ele>
        <time>2021-01-17T13:31:48Z</time>
      </trkpt>
      <trkpt lat="43.13852" lon="6.11552">
        <ele>157.78515625</ele>
        <time>2021-01-17T13:31:52Z</time>
      </trkpt>
      <trkpt lat="43.13853" lon="6.11558">
        <ele>158.2109375</ele>
        <time>2021-01-17T13:31:53Z</time>
      </trkpt>
      <trkpt lat="43.13854" lon="6.11565">
        <ele>158.5</ele>
        <time>2021-01-17T13:31:54Z</time>
      </trkpt>
      <trkpt lat="43.13857" lon="6.11581">
        <ele>159.296875</ele>
        <time>2021-01-17T13:31:56Z</time>
      </trkpt>
      <trkpt lat="43.13864" lon="6.11596">
        <ele>159.59765625</ele>
        <time>2021-01-17T13:31:59Z</time>
      </trkpt>
      <trkpt lat="43.13867" lon="6.11599">
        <ele>159.1953125</ele>
        <time>2021-01-17T13:32:00Z</time>
      </trkpt>
      <trkpt lat="43.13893" lon="6.1162">
        <ele>156.69921875</ele>
        <time>2021-01-17T13:32:05Z</time>
      </trkpt>
      <trkpt lat="43.13896" lon="6.11624">
        <ele>156.7265625</ele>
        <time>2021-01-17T13:32:06Z</time>
      </trkpt>
      <trkpt lat="43.13927" lon="6.11654">
        <ele>155.0078125</ele>
        <time>2021-01-17T13:32:17Z</time>
      </trkpt>
      <trkpt lat="43.13935" lon="6.11665">
        <ele>154.86328125</ele>
        <time>2021-01-17T13:32:20Z</time>
      </trkpt>
      <trkpt lat="43.13948" lon="6.11678">
        <ele>154.71484375</ele>
        <time>2021-01-17T13:32:23Z</time>
      </trkpt>
      <trkpt lat="43.13963" lon="6.11692">
        <ele>153.5390625</ele>
        <time>2021-01-17T13:32:26Z</time>
      </trkpt>
      <trkpt lat="43.13978" lon="6.1171">
        <ele>153.16796875</ele>
        <time>2021-01-17T13:32:29Z</time>
      </trkpt>
      <trkpt lat="43.13998" lon="6.11735">
        <ele>155.05859375</ele>
        <time>2021-01-17T13:32:33Z</time>
      </trkpt>
      <trkpt lat="43.14009" lon="6.11744">
        <ele>155.109375</ele>
        <time>2021-01-17T13:32:35Z</time>
      </trkpt>
      <trkpt lat="43.1404" lon="6.11754">
        <ele>153.38671875</ele>
        <time>2021-01-17T13:32:40Z</time>
      </trkpt>
      <trkpt lat="43.14054" lon="6.11753">
        <ele>150.296875</ele>
        <time>2021-01-17T13:32:42Z</time>
      </trkpt>
      <trkpt lat="43.1406" lon="6.11752">
        <ele>148.65234375</ele>
        <time>2021-01-17T13:32:43Z</time>
      </trkpt>
      <trkpt lat="43.14067" lon="6.11751">
        <ele>147.22265625</ele>
        <time>2021-01-17T13:32:44Z</time>
      </trkpt>
      <trkpt lat="43.14072" lon="6.1175">
        <ele>145.8203125</ele>
        <time>2021-01-17T13:32:45Z</time>
      </trkpt>
      <trkpt lat="43.14077" lon="6.11748">
        <ele>144.43359375</ele>
        <time>2021-01-17T13:32:46Z</time>
      </trkpt>
      <trkpt lat="43.14082" lon="6.11747">
        <ele>143.03125</ele>
        <time>2021-01-17T13:32:47Z</time>
      </trkpt>
      <trkpt lat="43.14087" lon="6.11747">
        <ele>141.84375</ele>
        <time>2021-01-17T13:32:48Z</time>
      </trkpt>
      <trkpt lat="43.14091" lon="6.11748">
        <ele>140.890625</ele>
        <time>2021-01-17T13:32:49Z</time>
      </trkpt>
      <trkpt lat="43.14095" lon="6.11751">
        <ele>139.88671875</ele>
        <time>2021-01-17T13:32:50Z</time>
      </trkpt>
      <trkpt lat="43.14098" lon="6.11754">
        <ele>138.92578125</ele>
        <time>2021-01-17T13:32:51Z</time>
      </trkpt>
      <trkpt lat="43.141" lon="6.11759">
        <ele>138.4140625</ele>
        <time>2021-01-17T13:32:52Z</time>
      </trkpt>
      <trkpt lat="43.14101" lon="6.11765">
        <ele>138.265625</ele>
        <time>2021-01-17T13:32:53Z</time>
      </trkpt>
      <trkpt lat="43.14102" lon="6.11771">
        <ele>138.1015625</ele>
        <time>2021-01-17T13:32:54Z</time>
      </trkpt>
      <trkpt lat="43.14104" lon="6.11778">
        <ele>137.78125</ele>
        <time>2021-01-17T13:32:55Z</time>
      </trkpt>
      <trkpt lat="43.14107" lon="6.11789">
        <ele>137.46484375</ele>
        <time>2021-01-17T13:32:57Z</time>
      </trkpt>
      <trkpt lat="43.14109" lon="6.11795">
        <ele>137.17578125</ele>
        <time>2021-01-17T13:32:58Z</time>
      </trkpt>
      <trkpt lat="43.1411" lon="6.11801">
        <ele>137.30859375</ele>
        <time>2021-01-17T13:32:59Z</time>
      </trkpt>
      <trkpt lat="43.14111" lon="6.11808">
        <ele>137.63671875</ele>
        <time>2021-01-17T13:33:00Z</time>
      </trkpt>
      <trkpt lat="43.14112" lon="6.11816">
        <ele>137.9296875</ele>
        <time>2021-01-17T13:33:01Z</time>
      </trkpt>
      <trkpt lat="43.14113" lon="6.11823">
        <ele>138.20703125</ele>
        <time>2021-01-17T13:33:02Z</time>
      </trkpt>
      <trkpt lat="43.14118" lon="6.11843">
        <ele>138.1640625</ele>
        <time>2021-01-17T13:33:05Z</time>
      </trkpt>
      <trkpt lat="43.14121" lon="6.11848">
        <ele>137.87890625</ele>
        <time>2021-01-17T13:33:06Z</time>
      </trkpt>
      <trkpt lat="43.14125" lon="6.11853">
        <ele>138.23828125</ele>
        <time>2021-01-17T13:33:07Z</time>
      </trkpt>
      <trkpt lat="43.14128" lon="6.11858">
        <ele>138.61328125</ele>
        <time>2021-01-17T13:33:08Z</time>
      </trkpt>
      <trkpt lat="43.14132" lon="6.11863">
        <ele>138.9609375</ele>
        <time>2021-01-17T13:33:09Z</time>
      </trkpt>
      <trkpt lat="43.14135" lon="6.11868">
        <ele>139.3046875</ele>
        <time>2021-01-17T13:33:10Z</time>
      </trkpt>
      <trkpt lat="43.14138" lon="6.11873">
        <ele>139.68359375</ele>
        <time>2021-01-17T13:33:11Z</time>
      </trkpt>
      <trkpt lat="43.14139" lon="6.11879">
        <ele>139.90625</ele>
        <time>2021-01-17T13:33:12Z</time>
      </trkpt>
      <trkpt lat="43.14139" lon="6.11885">
        <ele>139.52734375</ele>
        <time>2021-01-17T13:33:13Z</time>
      </trkpt>
      <trkpt lat="43.14138" lon="6.1189">
        <ele>139.1875</ele>
        <time>2021-01-17T13:33:14Z</time>
      </trkpt>
      <trkpt lat="43.14139" lon="6.11894">
        <ele>138.94140625</ele>
        <time>2021-01-17T13:33:15Z</time>
      </trkpt>
      <trkpt lat="43.1414" lon="6.11898">
        <ele>138.73828125</ele>
        <time>2021-01-17T13:33:16Z</time>
      </trkpt>
      <trkpt lat="43.14141" lon="6.11902">
        <ele>138.57421875</ele>
        <time>2021-01-17T13:33:17Z</time>
      </trkpt>
      <trkpt lat="43.14141" lon="6.11904">
        <ele>138.48046875</ele>
        <time>2021-01-17T13:33:18Z</time>
      </trkpt>
      <trkpt lat="43.14142" lon="6.11906">
        <ele>138.24609375</ele>
        <time>2021-01-17T13:33:19Z</time>
      </trkpt>
      <trkpt lat="43.14141" lon="6.11909">
        <ele>137.89453125</ele>
        <time>2021-01-17T13:33:20Z</time>
      </trkpt>
      <trkpt lat="43.14141" lon="6.11911">
        <ele>137.5</ele>
        <time>2021-01-17T13:33:21Z</time>
      </trkpt>
      <trkpt lat="43.14142" lon="6.11914">
        <ele>137.1875</ele>
        <time>2021-01-17T13:33:22Z</time>
      </trkpt>
      <trkpt lat="43.14144" lon="6.11917">
        <ele>136.921875</ele>
        <time>2021-01-17T13:33:23Z</time>
      </trkpt>
      <trkpt lat="43.14145" lon="6.11921">
        <ele>136.39453125</ele>
        <time>2021-01-17T13:33:24Z</time>
      </trkpt>
      <trkpt lat="43.14147" lon="6.11926">
        <ele>135.765625</ele>
        <time>2021-01-17T13:33:25Z</time>
      </trkpt>
      <trkpt lat="43.14149" lon="6.1193">
        <ele>135.34765625</ele>
        <time>2021-01-17T13:33:26Z</time>
      </trkpt>
      <trkpt lat="43.1415" lon="6.11932">
        <ele>135.1953125</ele>
        <time>2021-01-17T13:33:27Z</time>
      </trkpt>
      <trkpt lat="43.14151" lon="6.11934">
        <ele>134.98828125</ele>
        <time>2021-01-17T13:33:39Z</time>
      </trkpt>
      <trkpt lat="43.14153" lon="6.11935">
        <ele>135.0546875</ele>
        <time>2021-01-17T13:33:55Z</time>
      </trkpt>
      <trkpt lat="43.14155" lon="6.11935">
        <ele>135.31640625</ele>
        <time>2021-01-17T13:33:56Z</time>
      </trkpt>
      <trkpt lat="43.14156" lon="6.11933">
        <ele>135.92578125</ele>
        <time>2021-01-17T13:33:57Z</time>
      </trkpt>
      <trkpt lat="43.14155" lon="6.11931">
        <ele>136.15234375</ele>
        <time>2021-01-17T13:33:58Z</time>
      </trkpt>
      <trkpt lat="43.14153" lon="6.11929">
        <ele>136.125</ele>
        <time>2021-01-17T13:33:59Z</time>
      </trkpt>
      <trkpt lat="43.14151" lon="6.11928">
        <ele>135.9765625</ele>
        <time>2021-01-17T13:34:00Z</time>
      </trkpt>
      <trkpt lat="43.14149" lon="6.11928">
        <ele>135.73828125</ele>
        <time>2021-01-17T13:34:01Z</time>
      </trkpt>
      <trkpt lat="43.14142" lon="6.11928">
        <ele>135.1640625</ele>
        <time>2021-01-17T13:34:05Z</time>
      </trkpt>
      <trkpt lat="43.14124" lon="6.11934">
        <ele>132.91015625</ele>
        <time>2021-01-17T13:34:13Z</time>
      </trkpt>
      <trkpt lat="43.1412" lon="6.11937">
        <ele>131.609375</ele>
        <time>2021-01-17T13:34:14Z</time>
      </trkpt>
      <trkpt lat="43.14105" lon="6.11954">
        <ele>126.1484375</ele>
        <time>2021-01-17T13:34:17Z</time>
      </trkpt>
      <trkpt lat="43.14093" lon="6.11967">
        <ele>122.3046875</ele>
        <time>2021-01-17T13:34:19Z</time>
      </trkpt>
      <trkpt lat="43.14072" lon="6.11981">
        <ele>119.70703125</ele>
        <time>2021-01-17T13:34:22Z</time>
      </trkpt>
      <trkpt lat="43.14064" lon="6.11983">
        <ele>119.734375</ele>
        <time>2021-01-17T13:34:23Z</time>
      </trkpt>
      <trkpt lat="43.14056" lon="6.11983">
        <ele>120.55078125</ele>
        <time>2021-01-17T13:34:24Z</time>
      </trkpt>
      <trkpt lat="43.14049" lon="6.11982">
        <ele>121.78125</ele>
        <time>2021-01-17T13:34:25Z</time>
      </trkpt>
      <trkpt lat="43.14041" lon="6.11979">
        <ele>123.27734375</ele>
        <time>2021-01-17T13:34:26Z</time>
      </trkpt>
      <trkpt lat="43.14034" lon="6.11976">
        <ele>123.9609375</ele>
        <time>2021-01-17T13:34:27Z</time>
      </trkpt>
      <trkpt lat="43.14028" lon="6.11971">
        <ele>124.06640625</ele>
        <time>2021-01-17T13:34:28Z</time>
      </trkpt>
      <trkpt lat="43.14021" lon="6.11966">
        <ele>124.37109375</ele>
        <time>2021-01-17T13:34:29Z</time>
      </trkpt>
      <trkpt lat="43.13983" lon="6.11937">
        <ele>126.91015625</ele>
        <time>2021-01-17T13:34:34Z</time>
      </trkpt>
      <trkpt lat="43.13976" lon="6.11933">
        <ele>127.265625</ele>
        <time>2021-01-17T13:34:35Z</time>
      </trkpt>
      <trkpt lat="43.13969" lon="6.11932">
        <ele>126.86328125</ele>
        <time>2021-01-17T13:34:36Z</time>
      </trkpt>
      <trkpt lat="43.13962" lon="6.11933">
        <ele>125.59765625</ele>
        <time>2021-01-17T13:34:37Z</time>
      </trkpt>
      <trkpt lat="43.13956" lon="6.11937">
        <ele>123.9296875</ele>
        <time>2021-01-17T13:34:38Z</time>
      </trkpt>
      <trkpt lat="43.13952" lon="6.11942">
        <ele>122.5</ele>
        <time>2021-01-17T13:34:39Z</time>
      </trkpt>
      <trkpt lat="43.13947" lon="6.11947">
        <ele>121.27734375</ele>
        <time>2021-01-17T13:34:40Z</time>
      </trkpt>
      <trkpt lat="43.13926" lon="6.11967">
        <ele>116.86328125</ele>
        <time>2021-01-17T13:34:45Z</time>
      </trkpt>
      <trkpt lat="43.13921" lon="6.1197">
        <ele>117.08984375</ele>
        <time>2021-01-17T13:34:46Z</time>
      </trkpt>
      <trkpt lat="43.13916" lon="6.11972">
        <ele>117.4453125</ele>
        <time>2021-01-17T13:34:47Z</time>
      </trkpt>
      <trkpt lat="43.13912" lon="6.11974">
        <ele>117.88671875</ele>
        <time>2021-01-17T13:34:48Z</time>
      </trkpt>
      <trkpt lat="43.13907" lon="6.11975">
        <ele>118.40234375</ele>
        <time>2021-01-17T13:34:49Z</time>
      </trkpt>
      <trkpt lat="43.13904" lon="6.11976">
        <ele>118.96875</ele>
        <time>2021-01-17T13:34:50Z</time>
      </trkpt>
      <trkpt lat="43.139" lon="6.11976">
        <ele>119.5390625</ele>
        <time>2021-01-17T13:34:51Z</time>
      </trkpt>
      <trkpt lat="43.1385" lon="6.11962">
        <ele>123.59375</ele>
        <time>2021-01-17T13:35:06Z</time>
      </trkpt>
      <trkpt lat="43.13844" lon="6.11956">
        <ele>125.2265625</ele>
        <time>2021-01-17T13:35:15Z</time>
      </trkpt>
      <trkpt lat="43.13842" lon="6.11958">
        <ele>124.515625</ele>
        <time>2021-01-17T13:35:24Z</time>
      </trkpt>
      <trkpt lat="43.13842" lon="6.1196">
        <ele>123.91796875</ele>
        <time>2021-01-17T13:35:25Z</time>
      </trkpt>
      <trkpt lat="43.13844" lon="6.11962">
        <ele>123.6640625</ele>
        <time>2021-01-17T13:35:26Z</time>
      </trkpt>
      <trkpt lat="43.13851" lon="6.11964">
        <ele>123.0859375</ele>
        <time>2021-01-17T13:35:36Z</time>
      </trkpt>
      <trkpt lat="43.13852" lon="6.11963">
        <ele>123.453125</ele>
        <time>2021-01-17T13:35:37Z</time>
      </trkpt>
      <trkpt lat="43.13851" lon="6.11961">
        <ele>123.83203125</ele>
        <time>2021-01-17T13:35:38Z</time>
      </trkpt>
      <trkpt lat="43.1385" lon="6.1196">
        <ele>124.140625</ele>
        <time>2021-01-17T13:35:39Z</time>
      </trkpt>
      <trkpt lat="43.13848" lon="6.11959">
        <ele>124.41796875</ele>
        <time>2021-01-17T13:35:40Z</time>
      </trkpt>
      <trkpt lat="43.13846" lon="6.11958">
        <ele>124.69921875</ele>
        <time>2021-01-17T13:35:41Z</time>
      </trkpt>
      <trkpt lat="43.13844" lon="6.11957">
        <ele>125.046875</ele>
        <time>2021-01-17T13:35:42Z</time>
      </trkpt>
      <trkpt lat="43.13841" lon="6.11955">
        <ele>125.0703125</ele>
        <time>2021-01-17T13:35:43Z</time>
      </trkpt>
      <trkpt lat="43.13839" lon="6.11954">
        <ele>125.1484375</ele>
        <time>2021-01-17T13:35:44Z</time>
      </trkpt>
      <trkpt lat="43.13836" lon="6.11951">
        <ele>125.40625</ele>
        <time>2021-01-17T13:35:45Z</time>
      </trkpt>
      <trkpt lat="43.13834" lon="6.11949">
        <ele>125.7265625</ele>
        <time>2021-01-17T13:35:46Z</time>
      </trkpt>
      <trkpt lat="43.13813" lon="6.11911">
        <ele>130.4609375</ele>
        <time>2021-01-17T13:35:56Z</time>
      </trkpt>
      <trkpt lat="43.13807" lon="6.11902">
        <ele>131.0625</ele>
        <time>2021-01-17T13:35:58Z</time>
      </trkpt>
      <trkpt lat="43.13781" lon="6.11873">
        <ele>131.09765625</ele>
        <time>2021-01-17T13:36:06Z</time>
      </trkpt>
      <trkpt lat="43.13758" lon="6.11833">
        <ele>136.125</ele>
        <time>2021-01-17T13:36:19Z</time>
      </trkpt>
      <trkpt lat="43.13729" lon="6.11811">
        <ele>135.28125</ele>
        <time>2021-01-17T13:36:32Z</time>
      </trkpt>
      <trkpt lat="43.13708" lon="6.11801">
        <ele>133.5546875</ele>
        <time>2021-01-17T13:36:41Z</time>
      </trkpt>
      <trkpt lat="43.13705" lon="6.11797">
        <ele>133.83203125</ele>
        <time>2021-01-17T13:36:43Z</time>
      </trkpt>
      <trkpt lat="43.13673" lon="6.11766">
        <ele>140.39453125</ele>
        <time>2021-01-17T13:36:56Z</time>
      </trkpt>
      <trkpt lat="43.13627" lon="6.11735">
        <ele>139.45703125</ele>
        <time>2021-01-17T13:37:12Z</time>
      </trkpt>
      <trkpt lat="43.13624" lon="6.11733">
        <ele>139.33984375</ele>
        <time>2021-01-17T13:37:13Z</time>
      </trkpt>
      <trkpt lat="43.13601" lon="6.11716">
        <ele>138.43359375</ele>
        <time>2021-01-17T13:37:20Z</time>
      </trkpt>
      <trkpt lat="43.13598" lon="6.11713">
        <ele>138.40234375</ele>
        <time>2021-01-17T13:37:21Z</time>
      </trkpt>
      <trkpt lat="43.13593" lon="6.1171">
        <ele>138.13671875</ele>
        <time>2021-01-17T13:37:22Z</time>
      </trkpt>
      <trkpt lat="43.13589" lon="6.11707">
        <ele>137.46484375</ele>
        <time>2021-01-17T13:37:23Z</time>
      </trkpt>
      <trkpt lat="43.13584" lon="6.11705">
        <ele>136.65625</ele>
        <time>2021-01-17T13:37:24Z</time>
      </trkpt>
      <trkpt lat="43.13544" lon="6.11682">
        <ele>135.33203125</ele>
        <time>2021-01-17T13:37:31Z</time>
      </trkpt>
      <trkpt lat="43.13539" lon="6.11678">
        <ele>135.8984375</ele>
        <time>2021-01-17T13:37:32Z</time>
      </trkpt>
      <trkpt lat="43.13533" lon="6.11676">
        <ele>136.3046875</ele>
        <time>2021-01-17T13:37:33Z</time>
      </trkpt>
      <trkpt lat="43.13528" lon="6.11676">
        <ele>136.10546875</ele>
        <time>2021-01-17T13:37:34Z</time>
      </trkpt>
      <trkpt lat="43.13524" lon="6.11678">
        <ele>135.46875</ele>
        <time>2021-01-17T13:37:35Z</time>
      </trkpt>
      <trkpt lat="43.1352" lon="6.1168">
        <ele>134.58203125</ele>
        <time>2021-01-17T13:37:36Z</time>
      </trkpt>
      <trkpt lat="43.13517" lon="6.11682">
        <ele>133.64453125</ele>
        <time>2021-01-17T13:37:37Z</time>
      </trkpt>
      <trkpt lat="43.13513" lon="6.11685">
        <ele>132.5703125</ele>
        <time>2021-01-17T13:37:38Z</time>
      </trkpt>
      <trkpt lat="43.13509" lon="6.11688">
        <ele>131.82421875</ele>
        <time>2021-01-17T13:37:39Z</time>
      </trkpt>
      <trkpt lat="43.1349" lon="6.11706">
        <ele>132.03125</ele>
        <time>2021-01-17T13:37:44Z</time>
      </trkpt>
      <trkpt lat="43.13472" lon="6.11722">
        <ele>133.1796875</ele>
        <time>2021-01-17T13:37:49Z</time>
      </trkpt>
      <trkpt lat="43.13456" lon="6.11738">
        <ele>134.86328125</ele>
        <time>2021-01-17T13:37:54Z</time>
      </trkpt>
      <trkpt lat="43.13453" lon="6.11743">
        <ele>135.1328125</ele>
        <time>2021-01-17T13:37:55Z</time>
      </trkpt>
      <trkpt lat="43.13449" lon="6.11746">
        <ele>135.625</ele>
        <time>2021-01-17T13:37:56Z</time>
      </trkpt>
      <trkpt lat="43.13429" lon="6.11763">
        <ele>140.5078125</ele>
        <time>2021-01-17T13:38:04Z</time>
      </trkpt>
      <trkpt lat="43.13429" lon="6.11766">
        <ele>140.625</ele>
        <time>2021-01-17T13:38:05Z</time>
      </trkpt>
      <trkpt lat="43.1343" lon="6.1177">
        <ele>139.65234375</ele>
        <time>2021-01-17T13:38:17Z</time>
      </trkpt>
      <trkpt lat="43.1343" lon="6.1177">
        <ele>139.796875</ele>
        <time>2021-01-17T13:38:44Z</time>
      </trkpt>
      <trkpt lat="43.1343" lon="6.11772">
        <ele>139.6015625</ele>
        <time>2021-01-17T13:39:17Z</time>
      </trkpt>
      <trkpt lat="43.13431" lon="6.11774">
        <ele>139.1171875</ele>
        <time>2021-01-17T13:39:21Z</time>
      </trkpt>
      <trkpt lat="43.13431" lon="6.11777">
        <ele>138.7890625</ele>
        <time>2021-01-17T13:39:22Z</time>
      </trkpt>
      <trkpt lat="43.13431" lon="6.11779">
        <ele>138.5859375</ele>
        <time>2021-01-17T13:39:23Z</time>
      </trkpt>
      <trkpt lat="43.13432" lon="6.11782">
        <ele>138.16796875</ele>
        <time>2021-01-17T13:39:24Z</time>
      </trkpt>
      <trkpt lat="43.13433" lon="6.11784">
        <ele>137.70703125</ele>
        <time>2021-01-17T13:39:25Z</time>
      </trkpt>
      <trkpt lat="43.13434" lon="6.11788">
        <ele>137.12890625</ele>
        <time>2021-01-17T13:39:26Z</time>
      </trkpt>
      <trkpt lat="43.13443" lon="6.11825">
        <ele>131.69140625</ele>
        <time>2021-01-17T13:39:32Z</time>
      </trkpt>
      <trkpt lat="43.13446" lon="6.11833">
        <ele>130.7265625</ele>
        <time>2021-01-17T13:39:33Z</time>
      </trkpt>
      <trkpt lat="43.13448" lon="6.11842">
        <ele>129.8828125</ele>
        <time>2021-01-17T13:39:34Z</time>
      </trkpt>
      <trkpt lat="43.13453" lon="6.11874">
        <ele>127.16015625</ele>
        <time>2021-01-17T13:39:37Z</time>
      </trkpt>
      <trkpt lat="43.13454" lon="6.11885">
        <ele>126.41796875</ele>
        <time>2021-01-17T13:39:38Z</time>
      </trkpt>
      <trkpt lat="43.13456" lon="6.1192">
        <ele>125.5</ele>
        <time>2021-01-17T13:39:41Z</time>
      </trkpt>
      <trkpt lat="43.13452" lon="6.12037">
        <ele>120.8359375</ele>
        <time>2021-01-17T13:39:53Z</time>
      </trkpt>
      <trkpt lat="43.13449" lon="6.12045">
        <ele>121.00390625</ele>
        <time>2021-01-17T13:39:54Z</time>
      </trkpt>
      <trkpt lat="43.13445" lon="6.12051">
        <ele>121.31640625</ele>
        <time>2021-01-17T13:39:55Z</time>
      </trkpt>
      <trkpt lat="43.1344" lon="6.12057">
        <ele>121.9921875</ele>
        <time>2021-01-17T13:39:56Z</time>
      </trkpt>
      <trkpt lat="43.13435" lon="6.12062">
        <ele>122.8828125</ele>
        <time>2021-01-17T13:39:57Z</time>
      </trkpt>
      <trkpt lat="43.13429" lon="6.12066">
        <ele>123.859375</ele>
        <time>2021-01-17T13:39:58Z</time>
      </trkpt>
      <trkpt lat="43.13423" lon="6.12069">
        <ele>124.3046875</ele>
        <time>2021-01-17T13:39:59Z</time>
      </trkpt>
      <trkpt lat="43.13411" lon="6.12075">
        <ele>124.66796875</ele>
        <time>2021-01-17T13:40:01Z</time>
      </trkpt>
      <trkpt lat="43.13405" lon="6.12078">
        <ele>124.84375</ele>
        <time>2021-01-17T13:40:02Z</time>
      </trkpt>
      <trkpt lat="43.13386" lon="6.12089">
        <ele>125.26171875</ele>
        <time>2021-01-17T13:40:05Z</time>
      </trkpt>
      <trkpt lat="43.13381" lon="6.12095">
        <ele>124.41796875</ele>
        <time>2021-01-17T13:40:06Z</time>
      </trkpt>
      <trkpt lat="43.13377" lon="6.12102">
        <ele>123.14453125</ele>
        <time>2021-01-17T13:40:07Z</time>
      </trkpt>
      <trkpt lat="43.13374" lon="6.1211">
        <ele>122.140625</ele>
        <time>2021-01-17T13:40:08Z</time>
      </trkpt>
      <trkpt lat="43.13371" lon="6.12118">
        <ele>121.21484375</ele>
        <time>2021-01-17T13:40:09Z</time>
      </trkpt>
      <trkpt lat="43.13362" lon="6.12151">
        <ele>120.26171875</ele>
        <time>2021-01-17T13:40:13Z</time>
      </trkpt>
      <trkpt lat="43.13359" lon="6.12159">
        <ele>120.6015625</ele>
        <time>2021-01-17T13:40:14Z</time>
      </trkpt>
      <trkpt lat="43.13356" lon="6.12166">
        <ele>120.87109375</ele>
        <time>2021-01-17T13:40:15Z</time>
      </trkpt>
      <trkpt lat="43.13348" lon="6.12191">
        <ele>121.01953125</ele>
        <time>2021-01-17T13:40:18Z</time>
      </trkpt>
      <trkpt lat="43.13345" lon="6.12198">
        <ele>121.5078125</ele>
        <time>2021-01-17T13:40:19Z</time>
      </trkpt>
      <trkpt lat="43.13332" lon="6.12225">
        <ele>122.0859375</ele>
        <time>2021-01-17T13:40:23Z</time>
      </trkpt>
      <trkpt lat="43.13328" lon="6.12231">
        <ele>122.15234375</ele>
        <time>2021-01-17T13:40:24Z</time>
      </trkpt>
      <trkpt lat="43.13324" lon="6.12237">
        <ele>122.171875</ele>
        <time>2021-01-17T13:40:25Z</time>
      </trkpt>
      <trkpt lat="43.1332" lon="6.12243">
        <ele>122.32421875</ele>
        <time>2021-01-17T13:40:26Z</time>
      </trkpt>
      <trkpt lat="43.13314" lon="6.12247">
        <ele>122.5390625</ele>
        <time>2021-01-17T13:40:27Z</time>
      </trkpt>
      <trkpt lat="43.13308" lon="6.12251">
        <ele>122.5234375</ele>
        <time>2021-01-17T13:40:28Z</time>
      </trkpt>
      <trkpt lat="43.13302" lon="6.12252">
        <ele>122.68359375</ele>
        <time>2021-01-17T13:40:29Z</time>
      </trkpt>
      <trkpt lat="43.13295" lon="6.12253">
        <ele>123.0625</ele>
        <time>2021-01-17T13:40:30Z</time>
      </trkpt>
      <trkpt lat="43.13289" lon="6.12254">
        <ele>123.51953125</ele>
        <time>2021-01-17T13:40:31Z</time>
      </trkpt>
      <trkpt lat="43.13254" lon="6.12254">
        <ele>125.13671875</ele>
        <time>2021-01-17T13:40:37Z</time>
      </trkpt>
      <trkpt lat="43.13248" lon="6.12255">
        <ele>124.98046875</ele>
        <time>2021-01-17T13:40:38Z</time>
      </trkpt>
      <trkpt lat="43.13243" lon="6.12257">
        <ele>124.5625</ele>
        <time>2021-01-17T13:40:39Z</time>
      </trkpt>
      <trkpt lat="43.13238" lon="6.1226">
        <ele>123.859375</ele>
        <time>2021-01-17T13:40:40Z</time>
      </trkpt>
      <trkpt lat="43.13233" lon="6.12263">
        <ele>122.80859375</ele>
        <time>2021-01-17T13:40:41Z</time>
      </trkpt>
      <trkpt lat="43.13229" lon="6.12268">
        <ele>122.23046875</ele>
        <time>2021-01-17T13:40:42Z</time>
      </trkpt>
      <trkpt lat="43.13225" lon="6.12272">
        <ele>121.91015625</ele>
        <time>2021-01-17T13:40:43Z</time>
      </trkpt>
      <trkpt lat="43.1322" lon="6.12276">
        <ele>121.8359375</ele>
        <time>2021-01-17T13:40:44Z</time>
      </trkpt>
      <trkpt lat="43.13178" lon="6.12313">
        <ele>126.3125</ele>
        <time>2021-01-17T13:40:57Z</time>
      </trkpt>
      <trkpt lat="43.13169" lon="6.12325">
        <ele>127.94921875</ele>
        <time>2021-01-17T13:41:01Z</time>
      </trkpt>
      <trkpt lat="43.1315" lon="6.12354">
        <ele>131.28515625</ele>
        <time>2021-01-17T13:41:10Z</time>
      </trkpt>
      <trkpt lat="43.13141" lon="6.12371">
        <ele>131.48046875</ele>
        <time>2021-01-17T13:41:14Z</time>
      </trkpt>
      <trkpt lat="43.13138" lon="6.12376">
        <ele>131.65234375</ele>
        <time>2021-01-17T13:41:15Z</time>
      </trkpt>
      <trkpt lat="43.13134" lon="6.1238">
        <ele>132.05078125</ele>
        <time>2021-01-17T13:41:16Z</time>
      </trkpt>
      <trkpt lat="43.13131" lon="6.12383">
        <ele>132.60546875</ele>
        <time>2021-01-17T13:41:17Z</time>
      </trkpt>
      <trkpt lat="43.13127" lon="6.12387">
        <ele>133.24609375</ele>
        <time>2021-01-17T13:41:18Z</time>
      </trkpt>
      <trkpt lat="43.13123" lon="6.12391">
        <ele>133.83203125</ele>
        <time>2021-01-17T13:41:19Z</time>
      </trkpt>
      <trkpt lat="43.13119" lon="6.12396">
        <ele>134.18359375</ele>
        <time>2021-01-17T13:41:20Z</time>
      </trkpt>
      <trkpt lat="43.13115" lon="6.124">
        <ele>134.5390625</ele>
        <time>2021-01-17T13:41:21Z</time>
      </trkpt>
      <trkpt lat="43.13111" lon="6.12403">
        <ele>135.1328125</ele>
        <time>2021-01-17T13:41:22Z</time>
      </trkpt>
      <trkpt lat="43.13107" lon="6.12404">
        <ele>135.78125</ele>
        <time>2021-01-17T13:41:23Z</time>
      </trkpt>
      <trkpt lat="43.13104" lon="6.12405">
        <ele>136.19140625</ele>
        <time>2021-01-17T13:41:24Z</time>
      </trkpt>
      <trkpt lat="43.13108" lon="6.12419">
        <ele>132.4140625</ele>
        <time>2021-01-17T13:41:31Z</time>
      </trkpt>
      <trkpt lat="43.13108" lon="6.12422">
        <ele>131.84765625</ele>
        <time>2021-01-17T13:41:32Z</time>
      </trkpt>
      <trkpt lat="43.13106" lon="6.12424">
        <ele>131.6328125</ele>
        <time>2021-01-17T13:41:33Z</time>
      </trkpt>
      <trkpt lat="43.13104" lon="6.12426">
        <ele>131.66796875</ele>
        <time>2021-01-17T13:41:34Z</time>
      </trkpt>
      <trkpt lat="43.13098" lon="6.12429">
        <ele>131.91015625</ele>
        <time>2021-01-17T13:41:37Z</time>
      </trkpt>
      <trkpt lat="43.13097" lon="6.12431">
        <ele>131.80078125</ele>
        <time>2021-01-17T13:41:38Z</time>
      </trkpt>
      <trkpt lat="43.13096" lon="6.12432">
        <ele>131.828125</ele>
        <time>2021-01-17T13:41:39Z</time>
      </trkpt>
      <trkpt lat="43.13094" lon="6.12433">
        <ele>131.9375</ele>
        <time>2021-01-17T13:41:40Z</time>
      </trkpt>
      <trkpt lat="43.13092" lon="6.12434">
        <ele>132.09765625</ele>
        <time>2021-01-17T13:41:41Z</time>
      </trkpt>
      <trkpt lat="43.13091" lon="6.12436">
        <ele>132.13671875</ele>
        <time>2021-01-17T13:41:42Z</time>
      </trkpt>
      <trkpt lat="43.1309" lon="6.12438">
        <ele>132.1171875</ele>
        <time>2021-01-17T13:41:43Z</time>
      </trkpt>
      <trkpt lat="43.13088" lon="6.12439">
        <ele>132.109375</ele>
        <time>2021-01-17T13:41:44Z</time>
      </trkpt>
      <trkpt lat="43.13087" lon="6.12441">
        <ele>132.2578125</ele>
        <time>2021-01-17T13:41:45Z</time>
      </trkpt>
      <trkpt lat="43.13085" lon="6.12442">
        <ele>132.56640625</ele>
        <time>2021-01-17T13:41:46Z</time>
      </trkpt>
      <trkpt lat="43.13083" lon="6.12442">
        <ele>132.875</ele>
        <time>2021-01-17T13:41:47Z</time>
      </trkpt>
      <trkpt lat="43.13068" lon="6.12463">
        <ele>134.12109375</ele>
        <time>2021-01-17T13:41:58Z</time>
      </trkpt>
      <trkpt lat="43.13056" lon="6.12483">
        <ele>136.60546875</ele>
        <time>2021-01-17T13:42:08Z</time>
      </trkpt>
      <trkpt lat="43.13045" lon="6.12507">
        <ele>138.92578125</ele>
        <time>2021-01-17T13:42:22Z</time>
      </trkpt>
      <trkpt lat="43.13038" lon="6.12525">
        <ele>140.29296875</ele>
        <time>2021-01-17T13:42:32Z</time>
      </trkpt>
      <trkpt lat="43.13037" lon="6.12527">
        <ele>140.2265625</ele>
        <time>2021-01-17T13:42:33Z</time>
      </trkpt>
      <trkpt lat="43.13037" lon="6.12529">
        <ele>140.18359375</ele>
        <time>2021-01-17T13:42:34Z</time>
      </trkpt>
      <trkpt lat="43.13036" lon="6.12531">
        <ele>140.12109375</ele>
        <time>2021-01-17T13:42:35Z</time>
      </trkpt>
      <trkpt lat="43.13035" lon="6.12534">
        <ele>140.10546875</ele>
        <time>2021-01-17T13:42:36Z</time>
      </trkpt>
      <trkpt lat="43.13034" lon="6.12536">
        <ele>140.13671875</ele>
        <time>2021-01-17T13:42:37Z</time>
      </trkpt>
      <trkpt lat="43.13033" lon="6.12538">
        <ele>140.12890625</ele>
        <time>2021-01-17T13:42:38Z</time>
      </trkpt>
      <trkpt lat="43.13032" lon="6.1254">
        <ele>140.125</ele>
        <time>2021-01-17T13:42:39Z</time>
      </trkpt>
      <trkpt lat="43.13031" lon="6.12542">
        <ele>140.12109375</ele>
        <time>2021-01-17T13:42:40Z</time>
      </trkpt>
      <trkpt lat="43.13031" lon="6.12544">
        <ele>140.0234375</ele>
        <time>2021-01-17T13:42:41Z</time>
      </trkpt>
      <trkpt lat="43.1303" lon="6.12546">
        <ele>139.8671875</ele>
        <time>2021-01-17T13:42:42Z</time>
      </trkpt>
      <trkpt lat="43.13029" lon="6.12548">
        <ele>139.7578125</ele>
        <time>2021-01-17T13:42:43Z</time>
      </trkpt>
      <trkpt lat="43.13028" lon="6.1255">
        <ele>139.69140625</ele>
        <time>2021-01-17T13:42:44Z</time>
      </trkpt>
      <trkpt lat="43.13027" lon="6.12552">
        <ele>139.5625</ele>
        <time>2021-01-17T13:42:45Z</time>
      </trkpt>
      <trkpt lat="43.13025" lon="6.12555">
        <ele>139.41796875</ele>
        <time>2021-01-17T13:42:46Z</time>
      </trkpt>
      <trkpt lat="43.13023" lon="6.12557">
        <ele>139.296875</ele>
        <time>2021-01-17T13:42:47Z</time>
      </trkpt>
      <trkpt lat="43.13021" lon="6.1256">
        <ele>139.27734375</ele>
        <time>2021-01-17T13:42:48Z</time>
      </trkpt>
      <trkpt lat="43.13019" lon="6.12561">
        <ele>139.49609375</ele>
        <time>2021-01-17T13:42:49Z</time>
      </trkpt>
      <trkpt lat="43.13017" lon="6.12561">
        <ele>139.92578125</ele>
        <time>2021-01-17T13:42:50Z</time>
      </trkpt>
      <trkpt lat="43.13014" lon="6.12562">
        <ele>140.4140625</ele>
        <time>2021-01-17T13:42:51Z</time>
      </trkpt>
      <trkpt lat="43.12999" lon="6.12561">
        <ele>142.87890625</ele>
        <time>2021-01-17T13:42:56Z</time>
      </trkpt>
      <trkpt lat="43.12998" lon="6.12562">
        <ele>142.875</ele>
        <time>2021-01-17T13:42:57Z</time>
      </trkpt>
      <trkpt lat="43.12995" lon="6.12563">
        <ele>142.91015625</ele>
        <time>2021-01-17T13:42:58Z</time>
      </trkpt>
      <trkpt lat="43.12993" lon="6.12563">
        <ele>143.03515625</ele>
        <time>2021-01-17T13:42:59Z</time>
      </trkpt>
      <trkpt lat="43.12991" lon="6.12563">
        <ele>143.26953125</ele>
        <time>2021-01-17T13:43:00Z</time>
      </trkpt>
      <trkpt lat="43.12989" lon="6.12563">
        <ele>143.53125</ele>
        <time>2021-01-17T13:43:01Z</time>
      </trkpt>
      <trkpt lat="43.12976" lon="6.12559">
        <ele>146.3359375</ele>
        <time>2021-01-17T13:43:11Z</time>
      </trkpt>
      <trkpt lat="43.12971" lon="6.12557">
        <ele>147.4453125</ele>
        <time>2021-01-17T13:43:14Z</time>
      </trkpt>
      <trkpt lat="43.12969" lon="6.12557">
        <ele>147.52734375</ele>
        <time>2021-01-17T13:43:15Z</time>
      </trkpt>
      <trkpt lat="43.12961" lon="6.12558">
        <ele>148.07421875</ele>
        <time>2021-01-17T13:43:18Z</time>
      </trkpt>
      <trkpt lat="43.12936" lon="6.12574">
        <ele>148.625</ele>
        <time>2021-01-17T13:43:30Z</time>
      </trkpt>
      <trkpt lat="43.12923" lon="6.12587">
        <ele>149.6875</ele>
        <time>2021-01-17T13:43:36Z</time>
      </trkpt>
      <trkpt lat="43.12922" lon="6.1259">
        <ele>149.78515625</ele>
        <time>2021-01-17T13:43:37Z</time>
      </trkpt>
      <trkpt lat="43.1292" lon="6.12593">
        <ele>150.0234375</ele>
        <time>2021-01-17T13:43:38Z</time>
      </trkpt>
      <trkpt lat="43.12917" lon="6.12597">
        <ele>150.515625</ele>
        <time>2021-01-17T13:43:39Z</time>
      </trkpt>
      <trkpt lat="43.12914" lon="6.12599">
        <ele>151.25390625</ele>
        <time>2021-01-17T13:43:40Z</time>
      </trkpt>
      <trkpt lat="43.12912" lon="6.12601">
        <ele>151.9453125</ele>
        <time>2021-01-17T13:43:41Z</time>
      </trkpt>
      <trkpt lat="43.1291" lon="6.12604">
        <ele>152.453125</ele>
        <time>2021-01-17T13:43:42Z</time>
      </trkpt>
      <trkpt lat="43.12909" lon="6.12607">
        <ele>152.8515625</ele>
        <time>2021-01-17T13:43:43Z</time>
      </trkpt>
      <trkpt lat="43.12908" lon="6.12609">
        <ele>152.94140625</ele>
        <time>2021-01-17T13:43:44Z</time>
      </trkpt>
      <trkpt lat="43.12908" lon="6.12611">
        <ele>152.6640625</ele>
        <time>2021-01-17T13:43:45Z</time>
      </trkpt>
      <trkpt lat="43.12909" lon="6.12613">
        <ele>152.171875</ele>
        <time>2021-01-17T13:43:46Z</time>
      </trkpt>
      <trkpt lat="43.1291" lon="6.12615">
        <ele>151.62890625</ele>
        <time>2021-01-17T13:43:47Z</time>
      </trkpt>
      <trkpt lat="43.1291" lon="6.12617">
        <ele>151.0859375</ele>
        <time>2021-01-17T13:43:48Z</time>
      </trkpt>
      <trkpt lat="43.12911" lon="6.1262">
        <ele>150.55078125</ele>
        <time>2021-01-17T13:43:49Z</time>
      </trkpt>
      <trkpt lat="43.12914" lon="6.12659">
        <ele>147.7421875</ele>
        <time>2021-01-17T13:44:00Z</time>
      </trkpt>
      <trkpt lat="43.12913" lon="6.12701">
        <ele>147.46484375</ele>
        <time>2021-01-17T13:44:11Z</time>
      </trkpt>
      <trkpt lat="43.12914" lon="6.12705">
        <ele>147.2265625</ele>
        <time>2021-01-17T13:44:12Z</time>
      </trkpt>
      <trkpt lat="43.12913" lon="6.12709">
        <ele>147.42578125</ele>
        <time>2021-01-17T13:44:13Z</time>
      </trkpt>
      <trkpt lat="43.12912" lon="6.12713">
        <ele>147.671875</ele>
        <time>2021-01-17T13:44:14Z</time>
      </trkpt>
      <trkpt lat="43.12912" lon="6.12718">
        <ele>147.72265625</ele>
        <time>2021-01-17T13:44:15Z</time>
      </trkpt>
      <trkpt lat="43.12911" lon="6.12724">
        <ele>147.7265625</ele>
        <time>2021-01-17T13:44:16Z</time>
      </trkpt>
      <trkpt lat="43.12909" lon="6.12762">
        <ele>147.91015625</ele>
        <time>2021-01-17T13:44:25Z</time>
      </trkpt>
      <trkpt lat="43.12905" lon="6.12804">
        <ele>150.25390625</ele>
        <time>2021-01-17T13:44:35Z</time>
      </trkpt>
      <trkpt lat="43.12908" lon="6.1281">
        <ele>150.12890625</ele>
        <time>2021-01-17T13:44:36Z</time>
      </trkpt>
      <trkpt lat="43.1291" lon="6.12815">
        <ele>150.1328125</ele>
        <time>2021-01-17T13:44:37Z</time>
      </trkpt>
      <trkpt lat="43.12911" lon="6.12821">
        <ele>150.375</ele>
        <time>2021-01-17T13:44:38Z</time>
      </trkpt>
      <trkpt lat="43.1292" lon="6.12838">
        <ele>150.40234375</ele>
        <time>2021-01-17T13:44:48Z</time>
      </trkpt>
      <trkpt lat="43.1292" lon="6.12837">
        <ele>150.34765625</ele>
        <time>2021-01-17T13:45:05Z</time>
      </trkpt>
      <trkpt lat="43.1292" lon="6.12836">
        <ele>150.26171875</ele>
        <time>2021-01-17T13:45:08Z</time>
      </trkpt>
      <trkpt lat="43.1292" lon="6.12836">
        <ele>150.28125</ele>
        <time>2021-01-17T13:45:09Z</time>
      </trkpt>
      <trkpt lat="43.1292" lon="6.12836">
        <ele>150.2734375</ele>
        <time>2021-01-17T13:45:11Z</time>
      </trkpt>
      <trkpt lat="43.12921" lon="6.12837">
        <ele>150.2734375</ele>
        <time>2021-01-17T13:45:18Z</time>
      </trkpt>
      <trkpt lat="43.12921" lon="6.12837">
        <ele>150.265625</ele>
        <time>2021-01-17T13:45:19Z</time>
      </trkpt>
      <trkpt lat="43.12919" lon="6.12837">
        <ele>150.38671875</ele>
        <time>2021-01-17T13:45:25Z</time>
      </trkpt>
      <trkpt lat="43.12919" lon="6.12836">
        <ele>150.3671875</ele>
        <time>2021-01-17T13:45:26Z</time>
      </trkpt>
      <trkpt lat="43.12919" lon="6.12836">
        <ele>150.33984375</ele>
        <time>2021-01-17T13:45:32Z</time>
      </trkpt>
      <trkpt lat="43.12919" lon="6.12837">
        <ele>150.42578125</ele>
        <time>2021-01-17T13:45:38Z</time>
      </trkpt>
      <trkpt lat="43.12917" lon="6.12835">
        <ele>150.45703125</ele>
        <time>2021-01-17T13:45:57Z</time>
      </trkpt>
      <trkpt lat="43.12916" lon="6.12834">
        <ele>150.44140625</ele>
        <time>2021-01-17T13:45:58Z</time>
      </trkpt>
      <trkpt lat="43.12915" lon="6.12832">
        <ele>150.515625</ele>
        <time>2021-01-17T13:46:10Z</time>
      </trkpt>
      <trkpt lat="43.12915" lon="6.12832">
        <ele>150.4921875</ele>
        <time>2021-01-17T13:46:29Z</time>
      </trkpt>
      <trkpt lat="43.12916" lon="6.12834">
        <ele>150.5390625</ele>
        <time>2021-01-17T13:46:30Z</time>
      </trkpt>
      <trkpt lat="43.12916" lon="6.12837">
        <ele>150.63671875</ele>
        <time>2021-01-17T13:46:31Z</time>
      </trkpt>
      <trkpt lat="43.12917" lon="6.12839">
        <ele>150.78515625</ele>
        <time>2021-01-17T13:46:32Z</time>
      </trkpt>
      <trkpt lat="43.12917" lon="6.12842">
        <ele>150.953125</ele>
        <time>2021-01-17T13:46:33Z</time>
      </trkpt>
      <trkpt lat="43.12917" lon="6.12845">
        <ele>151.09375</ele>
        <time>2021-01-17T13:46:34Z</time>
      </trkpt>
      <trkpt lat="43.12918" lon="6.12847">
        <ele>151.234375</ele>
        <time>2021-01-17T13:46:35Z</time>
      </trkpt>
      <trkpt lat="43.12922" lon="6.12854">
        <ele>151.4609375</ele>
        <time>2021-01-17T13:46:38Z</time>
      </trkpt>
      <trkpt lat="43.12931" lon="6.12871">
        <ele>152.50390625</ele>
        <time>2021-01-17T13:46:47Z</time>
      </trkpt>
      <trkpt lat="43.12939" lon="6.12879">
        <ele>152.81640625</ele>
        <time>2021-01-17T13:46:53Z</time>
      </trkpt>
      <trkpt lat="43.12948" lon="6.12894">
        <ele>152.5</ele>
        <time>2021-01-17T13:47:00Z</time>
      </trkpt>
      <trkpt lat="43.12951" lon="6.12898">
        <ele>152.59375</ele>
        <time>2021-01-17T13:47:09Z</time>
      </trkpt>
      <trkpt lat="43.12953" lon="6.12896">
        <ele>152.796875</ele>
        <time>2021-01-17T13:47:21Z</time>
      </trkpt>
      <trkpt lat="43.12953" lon="6.12895">
        <ele>152.8203125</ele>
        <time>2021-01-17T13:47:24Z</time>
      </trkpt>
      <trkpt lat="43.12953" lon="6.12895">
        <ele>152.8046875</ele>
        <time>2021-01-17T13:47:26Z</time>
      </trkpt>
      <trkpt lat="43.12953" lon="6.12895">
        <ele>152.796875</ele>
        <time>2021-01-17T13:47:27Z</time>
      </trkpt>
      <trkpt lat="43.12952" lon="6.12895">
        <ele>152.77734375</ele>
        <time>2021-01-17T13:47:28Z</time>
      </trkpt>
      <trkpt lat="43.12952" lon="6.12895">
        <ele>152.73828125</ele>
        <time>2021-01-17T13:47:31Z</time>
      </trkpt>
      <trkpt lat="43.12953" lon="6.12895">
        <ele>152.83203125</ele>
        <time>2021-01-17T13:47:47Z</time>
      </trkpt>
      <trkpt lat="43.12952" lon="6.12896">
        <ele>152.73046875</ele>
        <time>2021-01-17T13:48:02Z</time>
      </trkpt>
      <trkpt lat="43.12952" lon="6.12895">
        <ele>152.7734375</ele>
        <time>2021-01-17T13:48:31Z</time>
      </trkpt>
      <trkpt lat="43.12952" lon="6.12896">
        <ele>152.70703125</ele>
        <time>2021-01-17T13:48:36Z</time>
      </trkpt>
      <trkpt lat="43.12954" lon="6.129">
        <ele>152.875</ele>
        <time>2021-01-17T13:48:47Z</time>
      </trkpt>
      <trkpt lat="43.12954" lon="6.129">
        <ele>152.90625</ele>
        <time>2021-01-17T13:48:52Z</time>
      </trkpt>
      <trkpt lat="43.12953" lon="6.12899">
        <ele>152.77734375</ele>
        <time>2021-01-17T13:48:56Z</time>
      </trkpt>
      <trkpt lat="43.12951" lon="6.12898">
        <ele>152.609375</ele>
        <time>2021-01-17T13:49:04Z</time>
      </trkpt>
      <trkpt lat="43.12952" lon="6.12898">
        <ele>152.7265625</ele>
        <time>2021-01-17T13:49:25Z</time>
      </trkpt>
      <trkpt lat="43.12953" lon="6.12899">
        <ele>152.765625</ele>
        <time>2021-01-17T13:49:47Z</time>
      </trkpt>
      <trkpt lat="43.12956" lon="6.12901">
        <ele>152.87109375</ele>
        <time>2021-01-17T13:49:50Z</time>
      </trkpt>
      <trkpt lat="43.12958" lon="6.12903">
        <ele>152.67578125</ele>
        <time>2021-01-17T13:49:51Z</time>
      </trkpt>
      <trkpt lat="43.12961" lon="6.12906">
        <ele>152.48046875</ele>
        <time>2021-01-17T13:49:52Z</time>
      </trkpt>
      <trkpt lat="43.12969" lon="6.12911">
        <ele>151.8984375</ele>
        <time>2021-01-17T13:49:55Z</time>
      </trkpt>
      <trkpt lat="43.12972" lon="6.12911">
        <ele>151.66796875</ele>
        <time>2021-01-17T13:49:56Z</time>
      </trkpt>
      <trkpt lat="43.12974" lon="6.12912">
        <ele>151.50390625</ele>
        <time>2021-01-17T13:49:57Z</time>
      </trkpt>
      <trkpt lat="43.12977" lon="6.12913">
        <ele>151.44140625</ele>
        <time>2021-01-17T13:49:58Z</time>
      </trkpt>
      <trkpt lat="43.12979" lon="6.12916">
        <ele>151.56640625</ele>
        <time>2021-01-17T13:49:59Z</time>
      </trkpt>
      <trkpt lat="43.1298" lon="6.1292">
        <ele>151.80859375</ele>
        <time>2021-01-17T13:50:00Z</time>
      </trkpt>
      <trkpt lat="43.12981" lon="6.12923">
        <ele>152.08203125</ele>
        <time>2021-01-17T13:50:01Z</time>
      </trkpt>
      <trkpt lat="43.13001" lon="6.12957">
        <ele>153.359375</ele>
        <time>2021-01-17T13:50:12Z</time>
      </trkpt>
      <trkpt lat="43.13002" lon="6.1296">
        <ele>153.64453125</ele>
        <time>2021-01-17T13:50:13Z</time>
      </trkpt>
      <trkpt lat="43.13018" lon="6.12994">
        <ele>154.3125</ele>
        <time>2021-01-17T13:50:25Z</time>
      </trkpt>
      <trkpt lat="43.13026" lon="6.13008">
        <ele>154.4921875</ele>
        <time>2021-01-17T13:50:32Z</time>
      </trkpt>
      <trkpt lat="43.13029" lon="6.13012">
        <ele>154.703125</ele>
        <time>2021-01-17T13:50:52Z</time>
      </trkpt>
      <trkpt lat="43.1303" lon="6.13017">
        <ele>154.953125</ele>
        <time>2021-01-17T13:50:58Z</time>
      </trkpt>
      <trkpt lat="43.13031" lon="6.13019">
        <ele>154.91796875</ele>
        <time>2021-01-17T13:50:59Z</time>
      </trkpt>
      <trkpt lat="43.13032" lon="6.13022">
        <ele>154.859375</ele>
        <time>2021-01-17T13:51:00Z</time>
      </trkpt>
      <trkpt lat="43.13034" lon="6.13024">
        <ele>154.75390625</ele>
        <time>2021-01-17T13:51:01Z</time>
      </trkpt>
      <trkpt lat="43.13035" lon="6.13025">
        <ele>154.64453125</ele>
        <time>2021-01-17T13:51:02Z</time>
      </trkpt>
      <trkpt lat="43.13037" lon="6.13025">
        <ele>154.5234375</ele>
        <time>2021-01-17T13:51:03Z</time>
      </trkpt>
      <trkpt lat="43.13038" lon="6.13025">
        <ele>154.3671875</ele>
        <time>2021-01-17T13:51:04Z</time>
      </trkpt>
      <trkpt lat="43.13041" lon="6.13026">
        <ele>153.84765625</ele>
        <time>2021-01-17T13:51:05Z</time>
      </trkpt>
      <trkpt lat="43.13042" lon="6.13029">
        <ele>153.4140625</ele>
        <time>2021-01-17T13:51:06Z</time>
      </trkpt>
      <trkpt lat="43.13043" lon="6.13031">
        <ele>153.18359375</ele>
        <time>2021-01-17T13:51:07Z</time>
      </trkpt>
      <trkpt lat="43.13044" lon="6.13034">
        <ele>153.20703125</ele>
        <time>2021-01-17T13:51:08Z</time>
      </trkpt>
      <trkpt lat="43.13044" lon="6.13036">
        <ele>153.07421875</ele>
        <time>2021-01-17T13:51:09Z</time>
      </trkpt>
      <trkpt lat="43.13046" lon="6.13037">
        <ele>152.73828125</ele>
        <time>2021-01-17T13:51:10Z</time>
      </trkpt>
      <trkpt lat="43.13048" lon="6.13038">
        <ele>152.21875</ele>
        <time>2021-01-17T13:51:11Z</time>
      </trkpt>
      <trkpt lat="43.13051" lon="6.13039">
        <ele>151.1953125</ele>
        <time>2021-01-17T13:51:13Z</time>
      </trkpt>
      <trkpt lat="43.13053" lon="6.13042">
        <ele>150.85546875</ele>
        <time>2021-01-17T13:51:15Z</time>
      </trkpt>
      <trkpt lat="43.13064" lon="6.13074">
        <ele>147.671875</ele>
        <time>2021-01-17T13:51:27Z</time>
      </trkpt>
      <trkpt lat="43.13068" lon="6.13085">
        <ele>146.40234375</ele>
        <time>2021-01-17T13:51:30Z</time>
      </trkpt>
      <trkpt lat="43.13073" lon="6.1311">
        <ele>144.4765625</ele>
        <time>2021-01-17T13:51:36Z</time>
      </trkpt>
      <trkpt lat="43.13077" lon="6.13123">
        <ele>143.21875</ele>
        <time>2021-01-17T13:51:39Z</time>
      </trkpt>
      <trkpt lat="43.13078" lon="6.13129">
        <ele>143.125</ele>
        <time>2021-01-17T13:51:40Z</time>
      </trkpt>
      <trkpt lat="43.13078" lon="6.13136">
        <ele>142.91796875</ele>
        <time>2021-01-17T13:51:41Z</time>
      </trkpt>
      <trkpt lat="43.13079" lon="6.13144">
        <ele>142.65234375</ele>
        <time>2021-01-17T13:51:42Z</time>
      </trkpt>
      <trkpt lat="43.13079" lon="6.13151">
        <ele>142.5390625</ele>
        <time>2021-01-17T13:51:43Z</time>
      </trkpt>
      <trkpt lat="43.1308" lon="6.13166">
        <ele>143.2890625</ele>
        <time>2021-01-17T13:51:45Z</time>
      </trkpt>
      <trkpt lat="43.13081" lon="6.13173">
        <ele>143.61328125</ele>
        <time>2021-01-17T13:51:46Z</time>
      </trkpt>
      <trkpt lat="43.13081" lon="6.1318">
        <ele>143.98046875</ele>
        <time>2021-01-17T13:51:47Z</time>
      </trkpt>
      <trkpt lat="43.13082" lon="6.13186">
        <ele>144.1796875</ele>
        <time>2021-01-17T13:51:48Z</time>
      </trkpt>
      <trkpt lat="43.13084" lon="6.1319">
        <ele>144.28125</ele>
        <time>2021-01-17T13:51:49Z</time>
      </trkpt>
      <trkpt lat="43.13084" lon="6.13194">
        <ele>144.578125</ele>
        <time>2021-01-17T13:51:50Z</time>
      </trkpt>
      <trkpt lat="43.13084" lon="6.13203">
        <ele>145.5546875</ele>
        <time>2021-01-17T13:51:52Z</time>
      </trkpt>
      <trkpt lat="43.13084" lon="6.13208">
        <ele>145.96484375</ele>
        <time>2021-01-17T13:51:53Z</time>
      </trkpt>
      <trkpt lat="43.13086" lon="6.13214">
        <ele>146.1953125</ele>
        <time>2021-01-17T13:51:54Z</time>
      </trkpt>
      <trkpt lat="43.13088" lon="6.13219">
        <ele>146.37109375</ele>
        <time>2021-01-17T13:51:55Z</time>
      </trkpt>
      <trkpt lat="43.1309" lon="6.13223">
        <ele>146.5546875</ele>
        <time>2021-01-17T13:51:56Z</time>
      </trkpt>
      <trkpt lat="43.13092" lon="6.13227">
        <ele>146.8046875</ele>
        <time>2021-01-17T13:51:57Z</time>
      </trkpt>
      <trkpt lat="43.13095" lon="6.13232">
        <ele>147.09375</ele>
        <time>2021-01-17T13:51:58Z</time>
      </trkpt>
      <trkpt lat="43.13098" lon="6.13236">
        <ele>147.1875</ele>
        <time>2021-01-17T13:51:59Z</time>
      </trkpt>
      <trkpt lat="43.13102" lon="6.1324">
        <ele>147.30078125</ele>
        <time>2021-01-17T13:52:00Z</time>
      </trkpt>
      <trkpt lat="43.13105" lon="6.13246">
        <ele>147.59765625</ele>
        <time>2021-01-17T13:52:01Z</time>
      </trkpt>
      <trkpt lat="43.13108" lon="6.1325">
        <ele>147.86328125</ele>
        <time>2021-01-17T13:52:02Z</time>
      </trkpt>
      <trkpt lat="43.13111" lon="6.13252">
        <ele>147.87890625</ele>
        <time>2021-01-17T13:52:03Z</time>
      </trkpt>
      <trkpt lat="43.13114" lon="6.13254">
        <ele>147.7890625</ele>
        <time>2021-01-17T13:52:04Z</time>
      </trkpt>
      <trkpt lat="43.13116" lon="6.13255">
        <ele>147.79296875</ele>
        <time>2021-01-17T13:52:05Z</time>
      </trkpt>
      <trkpt lat="43.1312" lon="6.13258">
        <ele>147.9453125</ele>
        <time>2021-01-17T13:52:15Z</time>
      </trkpt>
      <trkpt lat="43.13139" lon="6.13269">
        <ele>148.58984375</ele>
        <time>2021-01-17T13:52:30Z</time>
      </trkpt>
      <trkpt lat="43.13162" lon="6.13277">
        <ele>147.375</ele>
        <time>2021-01-17T13:52:37Z</time>
      </trkpt>
      <trkpt lat="43.13166" lon="6.13279">
        <ele>147.19140625</ele>
        <time>2021-01-17T13:52:38Z</time>
      </trkpt>
      <trkpt lat="43.1318" lon="6.13286">
        <ele>146.40625</ele>
        <time>2021-01-17T13:52:41Z</time>
      </trkpt>
      <trkpt lat="43.13185" lon="6.1329">
        <ele>146.72265625</ele>
        <time>2021-01-17T13:52:42Z</time>
      </trkpt>
      <trkpt lat="43.13189" lon="6.13295">
        <ele>147.44140625</ele>
        <time>2021-01-17T13:52:43Z</time>
      </trkpt>
      <trkpt lat="43.13193" lon="6.13299">
        <ele>148.1484375</ele>
        <time>2021-01-17T13:52:44Z</time>
      </trkpt>
      <trkpt lat="43.13198" lon="6.13304">
        <ele>148.7421875</ele>
        <time>2021-01-17T13:52:45Z</time>
      </trkpt>
      <trkpt lat="43.13202" lon="6.13308">
        <ele>149.390625</ele>
        <time>2021-01-17T13:52:46Z</time>
      </trkpt>
      <trkpt lat="43.13228" lon="6.1333">
        <ele>152.33203125</ele>
        <time>2021-01-17T13:52:51Z</time>
      </trkpt>
      <trkpt lat="43.13234" lon="6.13332">
        <ele>152.22265625</ele>
        <time>2021-01-17T13:52:52Z</time>
      </trkpt>
      <trkpt lat="43.1324" lon="6.13333">
        <ele>152.1640625</ele>
        <time>2021-01-17T13:52:53Z</time>
      </trkpt>
      <trkpt lat="43.13246" lon="6.13332">
        <ele>151.734375</ele>
        <time>2021-01-17T13:52:54Z</time>
      </trkpt>
      <trkpt lat="43.13252" lon="6.13331">
        <ele>151.109375</ele>
        <time>2021-01-17T13:52:55Z</time>
      </trkpt>
      <trkpt lat="43.13272" lon="6.13326">
        <ele>149.3515625</ele>
        <time>2021-01-17T13:52:59Z</time>
      </trkpt>
      <trkpt lat="43.13277" lon="6.13326">
        <ele>149.17578125</ele>
        <time>2021-01-17T13:53:00Z</time>
      </trkpt>
      <trkpt lat="43.13287" lon="6.13323">
        <ele>148.5703125</ele>
        <time>2021-01-17T13:53:02Z</time>
      </trkpt>
      <trkpt lat="43.13293" lon="6.13323">
        <ele>148.70703125</ele>
        <time>2021-01-17T13:53:03Z</time>
      </trkpt>
      <trkpt lat="43.13299" lon="6.13322">
        <ele>148.98828125</ele>
        <time>2021-01-17T13:53:04Z</time>
      </trkpt>
      <trkpt lat="43.13305" lon="6.13321">
        <ele>149.22265625</ele>
        <time>2021-01-17T13:53:05Z</time>
      </trkpt>
      <trkpt lat="43.13309" lon="6.13319">
        <ele>149.13671875</ele>
        <time>2021-01-17T13:53:06Z</time>
      </trkpt>
      <trkpt lat="43.13313" lon="6.13315">
        <ele>148.8671875</ele>
        <time>2021-01-17T13:53:07Z</time>
      </trkpt>
      <trkpt lat="43.13317" lon="6.13309">
        <ele>148.2890625</ele>
        <time>2021-01-17T13:53:08Z</time>
      </trkpt>
      <trkpt lat="43.1332" lon="6.13303">
        <ele>147.15625</ele>
        <time>2021-01-17T13:53:09Z</time>
      </trkpt>
      <trkpt lat="43.13328" lon="6.13284">
        <ele>143.30078125</ele>
        <time>2021-01-17T13:53:12Z</time>
      </trkpt>
      <trkpt lat="43.13329" lon="6.13277">
        <ele>141.85546875</ele>
        <time>2021-01-17T13:53:13Z</time>
      </trkpt>
      <trkpt lat="43.1333" lon="6.1327">
        <ele>140.359375</ele>
        <time>2021-01-17T13:53:14Z</time>
      </trkpt>
      <trkpt lat="43.13333" lon="6.13264">
        <ele>139.1640625</ele>
        <time>2021-01-17T13:53:15Z</time>
      </trkpt>
      <trkpt lat="43.13335" lon="6.13259">
        <ele>138.2421875</ele>
        <time>2021-01-17T13:53:16Z</time>
      </trkpt>
      <trkpt lat="43.13338" lon="6.13254">
        <ele>137.35546875</ele>
        <time>2021-01-17T13:53:17Z</time>
      </trkpt>
      <trkpt lat="43.13341" lon="6.13248">
        <ele>136.53515625</ele>
        <time>2021-01-17T13:53:18Z</time>
      </trkpt>
      <trkpt lat="43.13345" lon="6.13243">
        <ele>135.80078125</ele>
        <time>2021-01-17T13:53:19Z</time>
      </trkpt>
      <trkpt lat="43.13348" lon="6.1324">
        <ele>134.71875</ele>
        <time>2021-01-17T13:53:20Z</time>
      </trkpt>
      <trkpt lat="43.13352" lon="6.13237">
        <ele>133.6953125</ele>
        <time>2021-01-17T13:53:21Z</time>
      </trkpt>
      <trkpt lat="43.1336" lon="6.1323">
        <ele>131.609375</ele>
        <time>2021-01-17T13:53:23Z</time>
      </trkpt>
      <trkpt lat="43.13364" lon="6.13226">
        <ele>130.609375</ele>
        <time>2021-01-17T13:53:24Z</time>
      </trkpt>
      <trkpt lat="43.13368" lon="6.13223">
        <ele>129.8125</ele>
        <time>2021-01-17T13:53:25Z</time>
      </trkpt>
      <trkpt lat="43.13372" lon="6.1322">
        <ele>129.09765625</ele>
        <time>2021-01-17T13:53:26Z</time>
      </trkpt>
      <trkpt lat="43.13375" lon="6.13217">
        <ele>127.69140625</ele>
        <time>2021-01-17T13:53:27Z</time>
      </trkpt>
      <trkpt lat="43.13379" lon="6.13213">
        <ele>126.3515625</ele>
        <time>2021-01-17T13:53:28Z</time>
      </trkpt>
      <trkpt lat="43.13408" lon="6.13202">
        <ele>117.84765625</ele>
        <time>2021-01-17T13:53:38Z</time>
      </trkpt>
      <trkpt lat="43.13405" lon="6.13202">
        <ele>118.62109375</ele>
        <time>2021-01-17T13:53:52Z</time>
      </trkpt>
      <trkpt lat="43.13407" lon="6.13201">
        <ele>118.23046875</ele>
        <time>2021-01-17T13:54:20Z</time>
      </trkpt>
      <trkpt lat="43.13408" lon="6.13202">
        <ele>117.8046875</ele>
        <time>2021-01-17T13:54:39Z</time>
      </trkpt>
      <trkpt lat="43.1341" lon="6.13203">
        <ele>117.19140625</ele>
        <time>2021-01-17T13:54:43Z</time>
      </trkpt>
      <trkpt lat="43.13411" lon="6.13205">
        <ele>116.71484375</ele>
        <time>2021-01-17T13:54:44Z</time>
      </trkpt>
      <trkpt lat="43.13412" lon="6.13207">
        <ele>116.08984375</ele>
        <time>2021-01-17T13:54:45Z</time>
      </trkpt>
      <trkpt lat="43.13414" lon="6.1321">
        <ele>115.33203125</ele>
        <time>2021-01-17T13:54:46Z</time>
      </trkpt>
      <trkpt lat="43.13416" lon="6.13213">
        <ele>114.84375</ele>
        <time>2021-01-17T13:54:47Z</time>
      </trkpt>
      <trkpt lat="43.13416" lon="6.13218">
        <ele>114.5</ele>
        <time>2021-01-17T13:54:48Z</time>
      </trkpt>
      <trkpt lat="43.13417" lon="6.13222">
        <ele>114.171875</ele>
        <time>2021-01-17T13:54:49Z</time>
      </trkpt>
      <trkpt lat="43.13421" lon="6.13235">
        <ele>112.640625</ele>
        <time>2021-01-17T13:54:53Z</time>
      </trkpt>
      <trkpt lat="43.13422" lon="6.13238">
        <ele>112.19140625</ele>
        <time>2021-01-17T13:54:54Z</time>
      </trkpt>
      <trkpt lat="43.13423" lon="6.13242">
        <ele>112.05859375</ele>
        <time>2021-01-17T13:54:55Z</time>
      </trkpt>
      <trkpt lat="43.13423" lon="6.13252">
        <ele>112.15234375</ele>
        <time>2021-01-17T13:54:57Z</time>
      </trkpt>
      <trkpt lat="43.13425" lon="6.13267">
        <ele>112.13671875</ele>
        <time>2021-01-17T13:55:00Z</time>
      </trkpt>
      <trkpt lat="43.13443" lon="6.13303">
        <ele>106.5078125</ele>
        <time>2021-01-17T13:55:08Z</time>
      </trkpt>
      <trkpt lat="43.13446" lon="6.13313">
        <ele>106.421875</ele>
        <time>2021-01-17T13:55:10Z</time>
      </trkpt>
      <trkpt lat="43.13449" lon="6.13337">
        <ele>109.5</ele>
        <time>2021-01-17T13:55:14Z</time>
      </trkpt>
      <trkpt lat="43.13448" lon="6.13343">
        <ele>110.73828125</ele>
        <time>2021-01-17T13:55:15Z</time>
      </trkpt>
      <trkpt lat="43.13448" lon="6.13349">
        <ele>111.953125</ele>
        <time>2021-01-17T13:55:16Z</time>
      </trkpt>
      <trkpt lat="43.13448" lon="6.13354">
        <ele>113.40234375</ele>
        <time>2021-01-17T13:55:17Z</time>
      </trkpt>
      <trkpt lat="43.13449" lon="6.13359">
        <ele>114.41796875</ele>
        <time>2021-01-17T13:55:18Z</time>
      </trkpt>
      <trkpt lat="43.13453" lon="6.13369">
        <ele>116.56640625</ele>
        <time>2021-01-17T13:55:21Z</time>
      </trkpt>
      <trkpt lat="43.13455" lon="6.1337">
        <ele>116.328125</ele>
        <time>2021-01-17T13:55:22Z</time>
      </trkpt>
      <trkpt lat="43.13458" lon="6.1337">
        <ele>115.76171875</ele>
        <time>2021-01-17T13:55:23Z</time>
      </trkpt>
      <trkpt lat="43.13463" lon="6.1337">
        <ele>114.76953125</ele>
        <time>2021-01-17T13:55:24Z</time>
      </trkpt>
      <trkpt lat="43.13469" lon="6.13369">
        <ele>113.7109375</ele>
        <time>2021-01-17T13:55:25Z</time>
      </trkpt>
      <trkpt lat="43.13475" lon="6.13368">
        <ele>112.515625</ele>
        <time>2021-01-17T13:55:26Z</time>
      </trkpt>
      <trkpt lat="43.13487" lon="6.13368">
        <ele>110.53125</ele>
        <time>2021-01-17T13:55:28Z</time>
      </trkpt>
      <trkpt lat="43.13493" lon="6.13369">
        <ele>110.15625</ele>
        <time>2021-01-17T13:55:29Z</time>
      </trkpt>
      <trkpt lat="43.135" lon="6.1337">
        <ele>109.76171875</ele>
        <time>2021-01-17T13:55:30Z</time>
      </trkpt>
      <trkpt lat="43.13512" lon="6.13371">
        <ele>108.94140625</ele>
        <time>2021-01-17T13:55:32Z</time>
      </trkpt>
      <trkpt lat="43.13517" lon="6.13371">
        <ele>108.52734375</ele>
        <time>2021-01-17T13:55:33Z</time>
      </trkpt>
      <trkpt lat="43.13521" lon="6.13369">
        <ele>107.609375</ele>
        <time>2021-01-17T13:55:34Z</time>
      </trkpt>
      <trkpt lat="43.13526" lon="6.13366">
        <ele>106.5625</ele>
        <time>2021-01-17T13:55:35Z</time>
      </trkpt>
      <trkpt lat="43.1353" lon="6.13364">
        <ele>105.56640625</ele>
        <time>2021-01-17T13:55:36Z</time>
      </trkpt>
      <trkpt lat="43.13534" lon="6.13362">
        <ele>104.51171875</ele>
        <time>2021-01-17T13:55:37Z</time>
      </trkpt>
      <trkpt lat="43.13536" lon="6.1336">
        <ele>103.875</ele>
        <time>2021-01-17T13:55:38Z</time>
      </trkpt>
      <trkpt lat="43.13538" lon="6.1336">
        <ele>103.6328125</ele>
        <time>2021-01-17T13:55:39Z</time>
      </trkpt>
      <trkpt lat="43.1355" lon="6.13357">
        <ele>102.02734375</ele>
        <time>2021-01-17T13:55:44Z</time>
      </trkpt>
      <trkpt lat="43.13555" lon="6.13356">
        <ele>101.328125</ele>
        <time>2021-01-17T13:55:45Z</time>
      </trkpt>
      <trkpt lat="43.1356" lon="6.13354">
        <ele>100.24609375</ele>
        <time>2021-01-17T13:55:46Z</time>
      </trkpt>
      <trkpt lat="43.13565" lon="6.13351">
        <ele>98.8359375</ele>
        <time>2021-01-17T13:55:47Z</time>
      </trkpt>
      <trkpt lat="43.1357" lon="6.13348">
        <ele>98.16015625</ele>
        <time>2021-01-17T13:55:48Z</time>
      </trkpt>
      <trkpt lat="43.13575" lon="6.13346">
        <ele>97.85546875</ele>
        <time>2021-01-17T13:55:49Z</time>
      </trkpt>
      <trkpt lat="43.13581" lon="6.13344">
        <ele>97.671875</ele>
        <time>2021-01-17T13:55:50Z</time>
      </trkpt>
      <trkpt lat="43.13586" lon="6.13343">
        <ele>97.55859375</ele>
        <time>2021-01-17T13:55:51Z</time>
      </trkpt>
      <trkpt lat="43.13592" lon="6.1334">
        <ele>97.17578125</ele>
        <time>2021-01-17T13:55:52Z</time>
      </trkpt>
      <trkpt lat="43.13598" lon="6.13337">
        <ele>96.44921875</ele>
        <time>2021-01-17T13:55:53Z</time>
      </trkpt>
      <trkpt lat="43.13603" lon="6.13334">
        <ele>95.85546875</ele>
        <time>2021-01-17T13:55:54Z</time>
      </trkpt>
      <trkpt lat="43.13609" lon="6.13332">
        <ele>95.6328125</ele>
        <time>2021-01-17T13:55:55Z</time>
      </trkpt>
      <trkpt lat="43.13614" lon="6.13331">
        <ele>95.53515625</ele>
        <time>2021-01-17T13:55:56Z</time>
      </trkpt>
      <trkpt lat="43.13622" lon="6.13328">
        <ele>95.09375</ele>
        <time>2021-01-17T13:55:59Z</time>
      </trkpt>
      <trkpt lat="43.13619" lon="6.13327">
        <ele>94.5234375</ele>
        <time>2021-01-17T13:56:06Z</time>
      </trkpt>
      <trkpt lat="43.13618" lon="6.13325">
        <ele>93.85546875</ele>
        <time>2021-01-17T13:56:07Z</time>
      </trkpt>
      <trkpt lat="43.13616" lon="6.13323">
        <ele>93.1015625</ele>
        <time>2021-01-17T13:56:08Z</time>
      </trkpt>
      <trkpt lat="43.13614" lon="6.1332">
        <ele>92.203125</ele>
        <time>2021-01-17T13:56:09Z</time>
      </trkpt>
      <trkpt lat="43.13612" lon="6.13317">
        <ele>91.12890625</ele>
        <time>2021-01-17T13:56:10Z</time>
      </trkpt>
      <trkpt lat="43.1361" lon="6.13314">
        <ele>90.13671875</ele>
        <time>2021-01-17T13:56:11Z</time>
      </trkpt>
      <trkpt lat="43.13609" lon="6.13312">
        <ele>89.328125</ele>
        <time>2021-01-17T13:56:21Z</time>
      </trkpt>
      <trkpt lat="43.13608" lon="6.13311">
        <ele>89.05078125</ele>
        <time>2021-01-17T13:56:22Z</time>
      </trkpt>
      <trkpt lat="43.13606" lon="6.1331">
        <ele>88.60546875</ele>
        <time>2021-01-17T13:56:23Z</time>
      </trkpt>
      <trkpt lat="43.13604" lon="6.13309">
        <ele>88.20703125</ele>
        <time>2021-01-17T13:56:24Z</time>
      </trkpt>
      <trkpt lat="43.13602" lon="6.13309">
        <ele>87.9453125</ele>
        <time>2021-01-17T13:56:25Z</time>
      </trkpt>
      <trkpt lat="43.13599" lon="6.13309">
        <ele>87.703125</ele>
        <time>2021-01-17T13:56:26Z</time>
      </trkpt>
      <trkpt lat="43.13597" lon="6.13308">
        <ele>87.140625</ele>
        <time>2021-01-17T13:56:27Z</time>
      </trkpt>
      <trkpt lat="43.13594" lon="6.13306">
        <ele>86.21484375</ele>
        <time>2021-01-17T13:56:28Z</time>
      </trkpt>
      <trkpt lat="43.13592" lon="6.13304">
        <ele>85.4375</ele>
        <time>2021-01-17T13:56:29Z</time>
      </trkpt>
      <trkpt lat="43.1359" lon="6.13302">
        <ele>84.484375</ele>
        <time>2021-01-17T13:56:31Z</time>
      </trkpt>
      <trkpt lat="43.13584" lon="6.13299">
        <ele>83.140625</ele>
        <time>2021-01-17T13:56:36Z</time>
      </trkpt>
      <trkpt lat="43.13582" lon="6.13298">
        <ele>82.6484375</ele>
        <time>2021-01-17T13:56:37Z</time>
      </trkpt>
      <trkpt lat="43.13575" lon="6.13297">
        <ele>82.06640625</ele>
        <time>2021-01-17T13:56:45Z</time>
      </trkpt>
      <trkpt lat="43.13573" lon="6.13296">
        <ele>81.49609375</ele>
        <time>2021-01-17T13:56:46Z</time>
      </trkpt>
      <trkpt lat="43.13571" lon="6.13294">
        <ele>80.73828125</ele>
        <time>2021-01-17T13:56:47Z</time>
      </trkpt>
      <trkpt lat="43.1357" lon="6.13292">
        <ele>80.11328125</ele>
        <time>2021-01-17T13:56:48Z</time>
      </trkpt>
      <trkpt lat="43.13569" lon="6.1329">
        <ele>79.70703125</ele>
        <time>2021-01-17T13:56:49Z</time>
      </trkpt>
      <trkpt lat="43.13571" lon="6.13287">
        <ele>79.40625</ele>
        <time>2021-01-17T13:56:50Z</time>
      </trkpt>
      <trkpt lat="43.13573" lon="6.13286">
        <ele>79.2109375</ele>
        <time>2021-01-17T13:56:51Z</time>
      </trkpt>
      <trkpt lat="43.1359" lon="6.13278">
        <ele>78.078125</ele>
        <time>2021-01-17T13:56:58Z</time>
      </trkpt>
      <trkpt lat="43.13599" lon="6.13271">
        <ele>76.6875</ele>
        <time>2021-01-17T13:57:00Z</time>
      </trkpt>
      <trkpt lat="43.13638" lon="6.13231">
        <ele>67.91796875</ele>
        <time>2021-01-17T13:57:06Z</time>
      </trkpt>
      <trkpt lat="43.13661" lon="6.13201">
        <ele>62.12109375</ele>
        <time>2021-01-17T13:57:10Z</time>
      </trkpt>
      <trkpt lat="43.13672" lon="6.13189">
        <ele>60.3515625</ele>
        <time>2021-01-17T13:57:12Z</time>
      </trkpt>
      <trkpt lat="43.13675" lon="6.13186">
        <ele>59.69921875</ele>
        <time>2021-01-17T13:57:13Z</time>
      </trkpt>
      <trkpt lat="43.13695" lon="6.13179">
        <ele>57.9453125</ele>
        <time>2021-01-17T13:57:20Z</time>
      </trkpt>
      <trkpt lat="43.13705" lon="6.13176">
        <ele>57.203125</ele>
        <time>2021-01-17T13:57:23Z</time>
      </trkpt>
      <trkpt lat="43.13708" lon="6.13176">
        <ele>57.0703125</ele>
        <time>2021-01-17T13:57:24Z</time>
      </trkpt>
      <trkpt lat="43.13711" lon="6.13175">
        <ele>56.9921875</ele>
        <time>2021-01-17T13:57:25Z</time>
      </trkpt>
      <trkpt lat="43.13713" lon="6.13175">
        <ele>56.8984375</ele>
        <time>2021-01-17T13:57:26Z</time>
      </trkpt>
      <trkpt lat="43.13715" lon="6.13174">
        <ele>56.83203125</ele>
        <time>2021-01-17T13:57:27Z</time>
      </trkpt>
      <trkpt lat="43.13716" lon="6.13174">
        <ele>56.78125</ele>
        <time>2021-01-17T13:57:28Z</time>
      </trkpt>
      <trkpt lat="43.13719" lon="6.13174">
        <ele>56.67578125</ele>
        <time>2021-01-17T13:57:29Z</time>
      </trkpt>
      <trkpt lat="43.13722" lon="6.13174">
        <ele>56.67578125</ele>
        <time>2021-01-17T13:57:30Z</time>
      </trkpt>
      <trkpt lat="43.13725" lon="6.13174">
        <ele>56.609375</ele>
        <time>2021-01-17T13:57:31Z</time>
      </trkpt>
      <trkpt lat="43.13728" lon="6.13172">
        <ele>56.27734375</ele>
        <time>2021-01-17T13:57:32Z</time>
      </trkpt>
      <trkpt lat="43.13732" lon="6.1317">
        <ele>55.84765625</ele>
        <time>2021-01-17T13:57:33Z</time>
      </trkpt>
      <trkpt lat="43.13735" lon="6.13169">
        <ele>55.55078125</ele>
        <time>2021-01-17T13:57:34Z</time>
      </trkpt>
      <trkpt lat="43.13739" lon="6.13168">
        <ele>55.25</ele>
        <time>2021-01-17T13:57:35Z</time>
      </trkpt>
      <trkpt lat="43.13742" lon="6.13167">
        <ele>54.99609375</ele>
        <time>2021-01-17T13:57:36Z</time>
      </trkpt>
      <trkpt lat="43.13745" lon="6.13166">
        <ele>54.65234375</ele>
        <time>2021-01-17T13:57:37Z</time>
      </trkpt>
      <trkpt lat="43.13748" lon="6.13165">
        <ele>54.17578125</ele>
        <time>2021-01-17T13:57:38Z</time>
      </trkpt>
      <trkpt lat="43.13762" lon="6.13159">
        <ele>52.12109375</ele>
        <time>2021-01-17T13:57:42Z</time>
      </trkpt>
      <trkpt lat="43.13781" lon="6.13155">
        <ele>51.27734375</ele>
        <time>2021-01-17T13:57:46Z</time>
      </trkpt>
      <trkpt lat="43.13785" lon="6.13153">
        <ele>50.80078125</ele>
        <time>2021-01-17T13:57:47Z</time>
      </trkpt>
      <trkpt lat="43.1379" lon="6.1315">
        <ele>50.41796875</ele>
        <time>2021-01-17T13:57:48Z</time>
      </trkpt>
      <trkpt lat="43.13799" lon="6.13146">
        <ele>49.734375</ele>
        <time>2021-01-17T13:57:50Z</time>
      </trkpt>
      <trkpt lat="43.13812" lon="6.13142">
        <ele>48.82421875</ele>
        <time>2021-01-17T13:57:53Z</time>
      </trkpt>
      <trkpt lat="43.13847" lon="6.13127">
        <ele>45.4296875</ele>
        <time>2021-01-17T13:58:00Z</time>
      </trkpt>
      <trkpt lat="43.13852" lon="6.13125">
        <ele>45.46484375</ele>
        <time>2021-01-17T13:58:01Z</time>
      </trkpt>
      <trkpt lat="43.13871" lon="6.13118">
        <ele>45.390625</ele>
        <time>2021-01-17T13:58:05Z</time>
      </trkpt>
      <trkpt lat="43.13876" lon="6.13113">
        <ele>44.796875</ele>
        <time>2021-01-17T13:58:06Z</time>
      </trkpt>
      <trkpt lat="43.13887" lon="6.13103">
        <ele>43.28515625</ele>
        <time>2021-01-17T13:58:08Z</time>
      </trkpt>
      <trkpt lat="43.13893" lon="6.13099">
        <ele>42.84765625</ele>
        <time>2021-01-17T13:58:09Z</time>
      </trkpt>
      <trkpt lat="43.13899" lon="6.13097">
        <ele>42.62890625</ele>
        <time>2021-01-17T13:58:10Z</time>
      </trkpt>
      <trkpt lat="43.13903" lon="6.13095">
        <ele>42.23828125</ele>
        <time>2021-01-17T13:58:11Z</time>
      </trkpt>
      <trkpt lat="43.13905" lon="6.13094">
        <ele>42.05078125</ele>
        <time>2021-01-17T13:58:12Z</time>
      </trkpt>
      <trkpt lat="43.13907" lon="6.13094">
        <ele>41.890625</ele>
        <time>2021-01-17T13:58:13Z</time>
      </trkpt>
      <trkpt lat="43.1391" lon="6.13091">
        <ele>41.2578125</ele>
        <time>2021-01-17T13:58:14Z</time>
      </trkpt>
      <trkpt lat="43.13912" lon="6.13089">
        <ele>40.8515625</ele>
        <time>2021-01-17T13:58:15Z</time>
      </trkpt>
      <trkpt lat="43.13917" lon="6.13085">
        <ele>40.12890625</ele>
        <time>2021-01-17T13:58:17Z</time>
      </trkpt>
      <trkpt lat="43.13918" lon="6.13083">
        <ele>39.66796875</ele>
        <time>2021-01-17T13:58:18Z</time>
      </trkpt>
      <trkpt lat="43.13916" lon="6.13081">
        <ele>39.2734375</ele>
        <time>2021-01-17T13:58:20Z</time>
      </trkpt>
      <trkpt lat="43.13914" lon="6.13082">
        <ele>39.30859375</ele>
        <time>2021-01-17T13:58:21Z</time>
      </trkpt>
      <trkpt lat="43.13913" lon="6.13082">
        <ele>39.49609375</ele>
        <time>2021-01-17T13:58:22Z</time>
      </trkpt>
      <trkpt lat="43.13912" lon="6.13084">
        <ele>39.76953125</ele>
        <time>2021-01-17T13:58:23Z</time>
      </trkpt>
      <trkpt lat="43.13911" lon="6.13086">
        <ele>40.15625</ele>
        <time>2021-01-17T13:58:24Z</time>
      </trkpt>
      <trkpt lat="43.13911" lon="6.13088">
        <ele>40.609375</ele>
        <time>2021-01-17T13:58:25Z</time>
      </trkpt>
      <trkpt lat="43.13912" lon="6.13089">
        <ele>40.8984375</ele>
        <time>2021-01-17T13:58:26Z</time>
      </trkpt>
      <trkpt lat="43.13913" lon="6.13089">
        <ele>40.92578125</ele>
        <time>2021-01-17T13:58:27Z</time>
      </trkpt>
      <trkpt lat="43.13916" lon="6.13087">
        <ele>40.55078125</ele>
        <time>2021-01-17T13:58:43Z</time>
      </trkpt>
      <trkpt lat="43.13926" lon="6.13091">
        <ele>41.28125</ele>
        <time>2021-01-17T13:59:05Z</time>
      </trkpt>
      <trkpt lat="43.13953" lon="6.13086">
        <ele>38.87109375</ele>
        <time>2021-01-17T13:59:19Z</time>
      </trkpt>
      <trkpt lat="43.13976" lon="6.13104">
        <ele>38.7265625</ele>
        <time>2021-01-17T13:59:33Z</time>
      </trkpt>
      <trkpt lat="43.13987" lon="6.13117">
        <ele>38.75</ele>
        <time>2021-01-17T13:59:40Z</time>
      </trkpt>
      <trkpt lat="43.14001" lon="6.13147">
        <ele>38.61328125</ele>
        <time>2021-01-17T13:59:53Z</time>
      </trkpt>
      <trkpt lat="43.14" lon="6.13191">
        <ele>40.62890625</ele>
        <time>2021-01-17T14:00:07Z</time>
      </trkpt>
      <trkpt lat="43.14" lon="6.13241">
        <ele>40.4765625</ele>
        <time>2021-01-17T14:00:21Z</time>
      </trkpt>
      <trkpt lat="43.13986" lon="6.13292">
        <ele>41.2578125</ele>
        <time>2021-01-17T14:00:36Z</time>
      </trkpt>
      <trkpt lat="43.13967" lon="6.13329">
        <ele>43.76171875</ele>
        <time>2021-01-17T14:00:48Z</time>
      </trkpt>
      <trkpt lat="43.13945" lon="6.13365">
        <ele>47.3046875</ele>
        <time>2021-01-17T14:01:00Z</time>
      </trkpt>
      <trkpt lat="43.13927" lon="6.13389">
        <ele>49.359375</ele>
        <time>2021-01-17T14:01:09Z</time>
      </trkpt>
      <trkpt lat="43.13886" lon="6.1342">
        <ele>56.10546875</ele>
        <time>2021-01-17T14:01:24Z</time>
      </trkpt>
      <trkpt lat="43.13874" lon="6.13451">
        <ele>56.79296875</ele>
        <time>2021-01-17T14:01:33Z</time>
      </trkpt>
      <trkpt lat="43.13868" lon="6.1349">
        <ele>55.890625</ele>
        <time>2021-01-17T14:01:43Z</time>
      </trkpt>
      <trkpt lat="43.13867" lon="6.13494">
        <ele>55.75</ele>
        <time>2021-01-17T14:01:44Z</time>
      </trkpt>
      <trkpt lat="43.1384" lon="6.13531">
        <ele>58.14453125</ele>
        <time>2021-01-17T14:01:56Z</time>
      </trkpt>
      <trkpt lat="43.13803" lon="6.13557">
        <ele>62.4453125</ele>
        <time>2021-01-17T14:02:11Z</time>
      </trkpt>
      <trkpt lat="43.13779" lon="6.1358">
        <ele>63.55859375</ele>
        <time>2021-01-17T14:02:22Z</time>
      </trkpt>
      <trkpt lat="43.13777" lon="6.13582">
        <ele>63.890625</ele>
        <time>2021-01-17T14:02:23Z</time>
      </trkpt>
      <trkpt lat="43.13757" lon="6.13596">
        <ele>66.51953125</ele>
        <time>2021-01-17T14:02:32Z</time>
      </trkpt>
      <trkpt lat="43.13755" lon="6.13598">
        <ele>66.65625</ele>
        <time>2021-01-17T14:02:33Z</time>
      </trkpt>
      <trkpt lat="43.13753" lon="6.136">
        <ele>66.828125</ele>
        <time>2021-01-17T14:02:34Z</time>
      </trkpt>
      <trkpt lat="43.13751" lon="6.13601">
        <ele>66.9921875</ele>
        <time>2021-01-17T14:02:35Z</time>
      </trkpt>
      <trkpt lat="43.13749" lon="6.13603">
        <ele>67.09765625</ele>
        <time>2021-01-17T14:02:36Z</time>
      </trkpt>
      <trkpt lat="43.13732" lon="6.13618">
        <ele>68.2578125</ele>
        <time>2021-01-17T14:02:45Z</time>
      </trkpt>
      <trkpt lat="43.13721" lon="6.13626">
        <ele>69.515625</ele>
        <time>2021-01-17T14:02:50Z</time>
      </trkpt>
      <trkpt lat="43.13691" lon="6.1363">
        <ele>74.18359375</ele>
        <time>2021-01-17T14:03:03Z</time>
      </trkpt>
      <trkpt lat="43.13662" lon="6.13592">
        <ele>85.03125</ele>
        <time>2021-01-17T14:03:18Z</time>
      </trkpt>
      <trkpt lat="43.13645" lon="6.13576">
        <ele>89.59765625</ele>
        <time>2021-01-17T14:03:25Z</time>
      </trkpt>
      <trkpt lat="43.13642" lon="6.13575">
        <ele>89.7265625</ele>
        <time>2021-01-17T14:03:26Z</time>
      </trkpt>
      <trkpt lat="43.13639" lon="6.13575">
        <ele>89.6171875</ele>
        <time>2021-01-17T14:03:27Z</time>
      </trkpt>
      <trkpt lat="43.13636" lon="6.13576">
        <ele>89.3046875</ele>
        <time>2021-01-17T14:03:28Z</time>
      </trkpt>
      <trkpt lat="43.13633" lon="6.13577">
        <ele>89.015625</ele>
        <time>2021-01-17T14:03:29Z</time>
      </trkpt>
      <trkpt lat="43.1363" lon="6.13577">
        <ele>88.7890625</ele>
        <time>2021-01-17T14:03:30Z</time>
      </trkpt>
      <trkpt lat="43.13603" lon="6.13602">
        <ele>87.453125</ele>
        <time>2021-01-17T14:03:41Z</time>
      </trkpt>
      <trkpt lat="43.13591" lon="6.1366">
        <ele>83.16796875</ele>
        <time>2021-01-17T14:03:55Z</time>
      </trkpt>
      <trkpt lat="43.13581" lon="6.13691">
        <ele>82.5546875</ele>
        <time>2021-01-17T14:04:03Z</time>
      </trkpt>
      <trkpt lat="43.13562" lon="6.13713">
        <ele>85.12109375</ele>
        <time>2021-01-17T14:04:11Z</time>
      </trkpt>
      <trkpt lat="43.13541" lon="6.13722">
        <ele>87.3515625</ele>
        <time>2021-01-17T14:04:19Z</time>
      </trkpt>
      <trkpt lat="43.13507" lon="6.13721">
        <ele>92.23828125</ele>
        <time>2021-01-17T14:04:31Z</time>
      </trkpt>
      <trkpt lat="43.13498" lon="6.13712">
        <ele>94.87890625</ele>
        <time>2021-01-17T14:04:35Z</time>
      </trkpt>
      <trkpt lat="43.1348" lon="6.13657">
        <ele>105.75390625</ele>
        <time>2021-01-17T14:04:49Z</time>
      </trkpt>
      <trkpt lat="43.1346" lon="6.13596">
        <ele>110.109375</ele>
        <time>2021-01-17T14:05:05Z</time>
      </trkpt>
      <trkpt lat="43.13419" lon="6.13561">
        <ele>105.63671875</ele>
        <time>2021-01-17T14:05:18Z</time>
      </trkpt>
      <trkpt lat="43.13384" lon="6.13542">
        <ele>105.6875</ele>
        <time>2021-01-17T14:05:29Z</time>
      </trkpt>
      <trkpt lat="43.13359" lon="6.13526">
        <ele>110.1640625</ele>
        <time>2021-01-17T14:05:38Z</time>
      </trkpt>
      <trkpt lat="43.13351" lon="6.13524">
        <ele>111.171875</ele>
        <time>2021-01-17T14:05:41Z</time>
      </trkpt>
      <trkpt lat="43.13349" lon="6.13526">
        <ele>111.02734375</ele>
        <time>2021-01-17T14:05:42Z</time>
      </trkpt>
      <trkpt lat="43.13347" lon="6.13528">
        <ele>110.76953125</ele>
        <time>2021-01-17T14:05:43Z</time>
      </trkpt>
      <trkpt lat="43.13347" lon="6.1353">
        <ele>110.46484375</ele>
        <time>2021-01-17T14:05:44Z</time>
      </trkpt>
      <trkpt lat="43.13347" lon="6.13533">
        <ele>109.9375</ele>
        <time>2021-01-17T14:05:45Z</time>
      </trkpt>
      <trkpt lat="43.13348" lon="6.13537">
        <ele>109.1796875</ele>
        <time>2021-01-17T14:05:46Z</time>
      </trkpt>
      <trkpt lat="43.13348" lon="6.13542">
        <ele>108.34765625</ele>
        <time>2021-01-17T14:05:47Z</time>
      </trkpt>
      <trkpt lat="43.13348" lon="6.13548">
        <ele>107.85546875</ele>
        <time>2021-01-17T14:05:48Z</time>
      </trkpt>
      <trkpt lat="43.13348" lon="6.13553">
        <ele>107.3125</ele>
        <time>2021-01-17T14:05:49Z</time>
      </trkpt>
      <trkpt lat="43.13346" lon="6.13613">
        <ele>102.98046875</ele>
        <time>2021-01-17T14:06:03Z</time>
      </trkpt>
      <trkpt lat="43.13344" lon="6.1362">
        <ele>102.72265625</ele>
        <time>2021-01-17T14:06:05Z</time>
      </trkpt>
      <trkpt lat="43.13342" lon="6.13623">
        <ele>102.8046875</ele>
        <time>2021-01-17T14:06:06Z</time>
      </trkpt>
      <trkpt lat="43.13341" lon="6.13626">
        <ele>102.96875</ele>
        <time>2021-01-17T14:06:07Z</time>
      </trkpt>
      <trkpt lat="43.13339" lon="6.13628">
        <ele>103.046875</ele>
        <time>2021-01-17T14:06:08Z</time>
      </trkpt>
      <trkpt lat="43.13336" lon="6.1363">
        <ele>103.08984375</ele>
        <time>2021-01-17T14:06:09Z</time>
      </trkpt>
      <trkpt lat="43.13302" lon="6.13651">
        <ele>105.52734375</ele>
        <time>2021-01-17T14:06:22Z</time>
      </trkpt>
      <trkpt lat="43.13259" lon="6.13657">
        <ele>110.71484375</ele>
        <time>2021-01-17T14:06:34Z</time>
      </trkpt>
      <trkpt lat="43.13253" lon="6.13663">
        <ele>111.171875</ele>
        <time>2021-01-17T14:06:36Z</time>
      </trkpt>
      <trkpt lat="43.13251" lon="6.13668">
        <ele>110.85546875</ele>
        <time>2021-01-17T14:06:37Z</time>
      </trkpt>
      <trkpt lat="43.13251" lon="6.13674">
        <ele>110.0703125</ele>
        <time>2021-01-17T14:06:38Z</time>
      </trkpt>
      <trkpt lat="43.13252" lon="6.13699">
        <ele>107.0625</ele>
        <time>2021-01-17T14:06:42Z</time>
      </trkpt>
      <trkpt lat="43.13253" lon="6.13706">
        <ele>106.1953125</ele>
        <time>2021-01-17T14:06:43Z</time>
      </trkpt>
      <trkpt lat="43.13254" lon="6.13712">
        <ele>105.30859375</ele>
        <time>2021-01-17T14:06:44Z</time>
      </trkpt>
      <trkpt lat="43.13256" lon="6.13719">
        <ele>104.50390625</ele>
        <time>2021-01-17T14:06:45Z</time>
      </trkpt>
      <trkpt lat="43.13263" lon="6.13755">
        <ele>102.140625</ele>
        <time>2021-01-17T14:06:50Z</time>
      </trkpt>
      <trkpt lat="43.13263" lon="6.13762">
        <ele>102.4296875</ele>
        <time>2021-01-17T14:06:51Z</time>
      </trkpt>
      <trkpt lat="43.13262" lon="6.1377">
        <ele>103.73828125</ele>
        <time>2021-01-17T14:06:52Z</time>
      </trkpt>
      <trkpt lat="43.13261" lon="6.13777">
        <ele>105.63671875</ele>
        <time>2021-01-17T14:06:53Z</time>
      </trkpt>
      <trkpt lat="43.13259" lon="6.13784">
        <ele>107.58984375</ele>
        <time>2021-01-17T14:06:54Z</time>
      </trkpt>
      <trkpt lat="43.13257" lon="6.13791">
        <ele>109.46875</ele>
        <time>2021-01-17T14:06:55Z</time>
      </trkpt>
      <trkpt lat="43.13256" lon="6.13798">
        <ele>111.1875</ele>
        <time>2021-01-17T14:06:56Z</time>
      </trkpt>
      <trkpt lat="43.13255" lon="6.13805">
        <ele>112.7265625</ele>
        <time>2021-01-17T14:06:57Z</time>
      </trkpt>
      <trkpt lat="43.13253" lon="6.13816">
        <ele>115.31640625</ele>
        <time>2021-01-17T14:06:59Z</time>
      </trkpt>
      <trkpt lat="43.13254" lon="6.13821">
        <ele>116.12890625</ele>
        <time>2021-01-17T14:07:00Z</time>
      </trkpt>
      <trkpt lat="43.13257" lon="6.13825">
        <ele>116.26953125</ele>
        <time>2021-01-17T14:07:01Z</time>
      </trkpt>
      <trkpt lat="43.13261" lon="6.13827">
        <ele>115.92578125</ele>
        <time>2021-01-17T14:07:02Z</time>
      </trkpt>
      <trkpt lat="43.13266" lon="6.13828">
        <ele>115.1484375</ele>
        <time>2021-01-17T14:07:03Z</time>
      </trkpt>
      <trkpt lat="43.13271" lon="6.13828">
        <ele>114.1953125</ele>
        <time>2021-01-17T14:07:04Z</time>
      </trkpt>
      <trkpt lat="43.13276" lon="6.13828">
        <ele>113.171875</ele>
        <time>2021-01-17T14:07:05Z</time>
      </trkpt>
      <trkpt lat="43.13297" lon="6.1383">
        <ele>108.6015625</ele>
        <time>2021-01-17T14:07:09Z</time>
      </trkpt>
      <trkpt lat="43.13302" lon="6.13832">
        <ele>107.359375</ele>
        <time>2021-01-17T14:07:10Z</time>
      </trkpt>
      <trkpt lat="43.13307" lon="6.13834">
        <ele>106.1640625</ele>
        <time>2021-01-17T14:07:11Z</time>
      </trkpt>
      <trkpt lat="43.13316" lon="6.1384">
        <ele>103.890625</ele>
        <time>2021-01-17T14:07:13Z</time>
      </trkpt>
      <trkpt lat="43.1332" lon="6.13843">
        <ele>102.8046875</ele>
        <time>2021-01-17T14:07:14Z</time>
      </trkpt>
      <trkpt lat="43.13323" lon="6.13847">
        <ele>101.76171875</ele>
        <time>2021-01-17T14:07:15Z</time>
      </trkpt>
      <trkpt lat="43.1333" lon="6.13856">
        <ele>100.07421875</ele>
        <time>2021-01-17T14:07:17Z</time>
      </trkpt>
      <trkpt lat="43.13332" lon="6.13861">
        <ele>99.5234375</ele>
        <time>2021-01-17T14:07:18Z</time>
      </trkpt>
      <trkpt lat="43.13334" lon="6.13866">
        <ele>99.1796875</ele>
        <time>2021-01-17T14:07:19Z</time>
      </trkpt>
      <trkpt lat="43.13335" lon="6.13872">
        <ele>99.05078125</ele>
        <time>2021-01-17T14:07:20Z</time>
      </trkpt>
      <trkpt lat="43.13336" lon="6.13879">
        <ele>99.22265625</ele>
        <time>2021-01-17T14:07:21Z</time>
      </trkpt>
      <trkpt lat="43.13335" lon="6.13885">
        <ele>99.6484375</ele>
        <time>2021-01-17T14:07:22Z</time>
      </trkpt>
      <trkpt lat="43.13335" lon="6.1389">
        <ele>100.23828125</ele>
        <time>2021-01-17T14:07:23Z</time>
      </trkpt>
      <trkpt lat="43.13334" lon="6.13896">
        <ele>100.8828125</ele>
        <time>2021-01-17T14:07:24Z</time>
      </trkpt>
      <trkpt lat="43.13332" lon="6.13901">
        <ele>101.74609375</ele>
        <time>2021-01-17T14:07:25Z</time>
      </trkpt>
      <trkpt lat="43.1333" lon="6.13906">
        <ele>102.96484375</ele>
        <time>2021-01-17T14:07:26Z</time>
      </trkpt>
      <trkpt lat="43.13327" lon="6.1391">
        <ele>104.59375</ele>
        <time>2021-01-17T14:07:27Z</time>
      </trkpt>
      <trkpt lat="43.13324" lon="6.13915">
        <ele>106.31640625</ele>
        <time>2021-01-17T14:07:28Z</time>
      </trkpt>
      <trkpt lat="43.13315" lon="6.13928">
        <ele>110.90234375</ele>
        <time>2021-01-17T14:07:31Z</time>
      </trkpt>
      <trkpt lat="43.13314" lon="6.13934">
        <ele>112.140625</ele>
        <time>2021-01-17T14:07:32Z</time>
      </trkpt>
      <trkpt lat="43.13314" lon="6.1394">
        <ele>113.0078125</ele>
        <time>2021-01-17T14:07:33Z</time>
      </trkpt>
      <trkpt lat="43.1332" lon="6.13956">
        <ele>114.69140625</ele>
        <time>2021-01-17T14:07:36Z</time>
      </trkpt>
      <trkpt lat="43.13322" lon="6.13961">
        <ele>115.23046875</ele>
        <time>2021-01-17T14:07:37Z</time>
      </trkpt>
      <trkpt lat="43.13326" lon="6.13963">
        <ele>115.16015625</ele>
        <time>2021-01-17T14:07:38Z</time>
      </trkpt>
      <trkpt lat="43.1333" lon="6.13964">
        <ele>114.2421875</ele>
        <time>2021-01-17T14:07:39Z</time>
      </trkpt>
      <trkpt lat="43.13335" lon="6.13964">
        <ele>113.25390625</ele>
        <time>2021-01-17T14:07:40Z</time>
      </trkpt>
      <trkpt lat="43.1334" lon="6.13965">
        <ele>112.46875</ele>
        <time>2021-01-17T14:07:41Z</time>
      </trkpt>
      <trkpt lat="43.13345" lon="6.13967">
        <ele>111.82421875</ele>
        <time>2021-01-17T14:07:42Z</time>
      </trkpt>
      <trkpt lat="43.13377" lon="6.13979">
        <ele>107.015625</ele>
        <time>2021-01-17T14:07:48Z</time>
      </trkpt>
      <trkpt lat="43.13392" lon="6.13985">
        <ele>103.14453125</ele>
        <time>2021-01-17T14:07:51Z</time>
      </trkpt>
      <trkpt lat="43.13402" lon="6.1399">
        <ele>100.33984375</ele>
        <time>2021-01-17T14:07:53Z</time>
      </trkpt>
      <trkpt lat="43.13407" lon="6.13994">
        <ele>98.92578125</ele>
        <time>2021-01-17T14:07:54Z</time>
      </trkpt>
      <trkpt lat="43.13412" lon="6.14">
        <ele>97.6484375</ele>
        <time>2021-01-17T14:07:55Z</time>
      </trkpt>
      <trkpt lat="43.13416" lon="6.14006">
        <ele>96.67578125</ele>
        <time>2021-01-17T14:07:56Z</time>
      </trkpt>
      <trkpt lat="43.13419" lon="6.14012">
        <ele>95.890625</ele>
        <time>2021-01-17T14:07:57Z</time>
      </trkpt>
      <trkpt lat="43.13423" lon="6.14025">
        <ele>95.03515625</ele>
        <time>2021-01-17T14:08:00Z</time>
      </trkpt>
      <trkpt lat="43.13408" lon="6.14069">
        <ele>101.69921875</ele>
        <time>2021-01-17T14:08:10Z</time>
      </trkpt>
      <trkpt lat="43.13392" lon="6.14083">
        <ele>105.7890625</ele>
        <time>2021-01-17T14:08:15Z</time>
      </trkpt>
      <trkpt lat="43.13379" lon="6.14092">
        <ele>108.578125</ele>
        <time>2021-01-17T14:08:19Z</time>
      </trkpt>
      <trkpt lat="43.13379" lon="6.14095">
        <ele>108.828125</ele>
        <time>2021-01-17T14:08:20Z</time>
      </trkpt>
      <trkpt lat="43.1338" lon="6.14097">
        <ele>108.77734375</ele>
        <time>2021-01-17T14:08:21Z</time>
      </trkpt>
      <trkpt lat="43.13381" lon="6.14099">
        <ele>108.83984375</ele>
        <time>2021-01-17T14:08:22Z</time>
      </trkpt>
      <trkpt lat="43.13383" lon="6.14101">
        <ele>109.24609375</ele>
        <time>2021-01-17T14:08:23Z</time>
      </trkpt>
      <trkpt lat="43.13385" lon="6.14104">
        <ele>109.6328125</ele>
        <time>2021-01-17T14:08:24Z</time>
      </trkpt>
      <trkpt lat="43.13387" lon="6.14106">
        <ele>110.08984375</ele>
        <time>2021-01-17T14:08:25Z</time>
      </trkpt>
      <trkpt lat="43.13389" lon="6.14109">
        <ele>110.62109375</ele>
        <time>2021-01-17T14:08:26Z</time>
      </trkpt>
      <trkpt lat="43.1339" lon="6.14112">
        <ele>111.17578125</ele>
        <time>2021-01-17T14:08:27Z</time>
      </trkpt>
      <trkpt lat="43.13392" lon="6.14115">
        <ele>111.875</ele>
        <time>2021-01-17T14:08:28Z</time>
      </trkpt>
      <trkpt lat="43.13393" lon="6.14118">
        <ele>112.58203125</ele>
        <time>2021-01-17T14:08:29Z</time>
      </trkpt>
      <trkpt lat="43.13395" lon="6.14121">
        <ele>113.22265625</ele>
        <time>2021-01-17T14:08:30Z</time>
      </trkpt>
      <trkpt lat="43.13396" lon="6.14124">
        <ele>113.87890625</ele>
        <time>2021-01-17T14:08:31Z</time>
      </trkpt>
      <trkpt lat="43.13412" lon="6.14168">
        <ele>126</ele>
        <time>2021-01-17T14:08:42Z</time>
      </trkpt>
      <trkpt lat="43.13415" lon="6.14169">
        <ele>126.109375</ele>
        <time>2021-01-17T14:08:43Z</time>
      </trkpt>
      <trkpt lat="43.13419" lon="6.14167">
        <ele>125.49609375</ele>
        <time>2021-01-17T14:08:44Z</time>
      </trkpt>
      <trkpt lat="43.13422" lon="6.14164">
        <ele>124.4296875</ele>
        <time>2021-01-17T14:08:45Z</time>
      </trkpt>
      <trkpt lat="43.13426" lon="6.1416">
        <ele>123.015625</ele>
        <time>2021-01-17T14:08:46Z</time>
      </trkpt>
      <trkpt lat="43.1343" lon="6.14156">
        <ele>121.6328125</ele>
        <time>2021-01-17T14:08:47Z</time>
      </trkpt>
      <trkpt lat="43.13434" lon="6.14152">
        <ele>120.37890625</ele>
        <time>2021-01-17T14:08:48Z</time>
      </trkpt>
      <trkpt lat="43.13448" lon="6.14143">
        <ele>117.49609375</ele>
        <time>2021-01-17T14:08:51Z</time>
      </trkpt>
      <trkpt lat="43.13498" lon="6.14136">
        <ele>111.734375</ele>
        <time>2021-01-17T14:09:01Z</time>
      </trkpt>
      <trkpt lat="43.13503" lon="6.14138">
        <ele>111.5234375</ele>
        <time>2021-01-17T14:09:02Z</time>
      </trkpt>
      <trkpt lat="43.13509" lon="6.1414">
        <ele>111.515625</ele>
        <time>2021-01-17T14:09:03Z</time>
      </trkpt>
      <trkpt lat="43.13513" lon="6.14144">
        <ele>112.2890625</ele>
        <time>2021-01-17T14:09:04Z</time>
      </trkpt>
      <trkpt lat="43.13518" lon="6.14148">
        <ele>113.57421875</ele>
        <time>2021-01-17T14:09:05Z</time>
      </trkpt>
      <trkpt lat="43.13521" lon="6.14153">
        <ele>114.796875</ele>
        <time>2021-01-17T14:09:06Z</time>
      </trkpt>
      <trkpt lat="43.13525" lon="6.14156">
        <ele>115.76953125</ele>
        <time>2021-01-17T14:09:07Z</time>
      </trkpt>
      <trkpt lat="43.1353" lon="6.14159">
        <ele>116.3828125</ele>
        <time>2021-01-17T14:09:08Z</time>
      </trkpt>
      <trkpt lat="43.13534" lon="6.1416">
        <ele>116.63671875</ele>
        <time>2021-01-17T14:09:09Z</time>
      </trkpt>
      <trkpt lat="43.1354" lon="6.1416">
        <ele>116.7421875</ele>
        <time>2021-01-17T14:09:10Z</time>
      </trkpt>
      <trkpt lat="43.13545" lon="6.14162">
        <ele>117.17578125</ele>
        <time>2021-01-17T14:09:11Z</time>
      </trkpt>
      <trkpt lat="43.1355" lon="6.14164">
        <ele>117.83203125</ele>
        <time>2021-01-17T14:09:12Z</time>
      </trkpt>
      <trkpt lat="43.13556" lon="6.14166">
        <ele>118.421875</ele>
        <time>2021-01-17T14:09:13Z</time>
      </trkpt>
      <trkpt lat="43.13562" lon="6.14166">
        <ele>118.64453125</ele>
        <time>2021-01-17T14:09:14Z</time>
      </trkpt>
      <trkpt lat="43.13568" lon="6.14164">
        <ele>118.328125</ele>
        <time>2021-01-17T14:09:15Z</time>
      </trkpt>
      <trkpt lat="43.13573" lon="6.1416">
        <ele>117.50390625</ele>
        <time>2021-01-17T14:09:16Z</time>
      </trkpt>
      <trkpt lat="43.13577" lon="6.14154">
        <ele>116.46875</ele>
        <time>2021-01-17T14:09:17Z</time>
      </trkpt>
      <trkpt lat="43.13581" lon="6.14146">
        <ele>115.09375</ele>
        <time>2021-01-17T14:09:18Z</time>
      </trkpt>
      <trkpt lat="43.1359" lon="6.1412">
        <ele>110.27734375</ele>
        <time>2021-01-17T14:09:21Z</time>
      </trkpt>
      <trkpt lat="43.13599" lon="6.14099">
        <ele>105.2890625</ele>
        <time>2021-01-17T14:09:24Z</time>
      </trkpt>
      <trkpt lat="43.13602" lon="6.14095">
        <ele>104.58984375</ele>
        <time>2021-01-17T14:09:25Z</time>
      </trkpt>
      <trkpt lat="43.13605" lon="6.14094">
        <ele>104.5</ele>
        <time>2021-01-17T14:09:26Z</time>
      </trkpt>
      <trkpt lat="43.13607" lon="6.14095">
        <ele>104.70703125</ele>
        <time>2021-01-17T14:09:27Z</time>
      </trkpt>
      <trkpt lat="43.13609" lon="6.14096">
        <ele>104.93359375</ele>
        <time>2021-01-17T14:09:39Z</time>
      </trkpt>
      <trkpt lat="43.13609" lon="6.14095">
        <ele>104.875</ele>
        <time>2021-01-17T14:10:07Z</time>
      </trkpt>
      <trkpt lat="43.1361" lon="6.14095">
        <ele>104.84765625</ele>
        <time>2021-01-17T14:10:38Z</time>
      </trkpt>
      <trkpt lat="43.13615" lon="6.14097">
        <ele>105.3984375</ele>
        <time>2021-01-17T14:11:03Z</time>
      </trkpt>
      <trkpt lat="43.13616" lon="6.14098">
        <ele>105.6875</ele>
        <time>2021-01-17T14:11:04Z</time>
      </trkpt>
      <trkpt lat="43.13642" lon="6.1412">
        <ele>112.3046875</ele>
        <time>2021-01-17T14:11:13Z</time>
      </trkpt>
      <trkpt lat="43.13647" lon="6.14121">
        <ele>112.75390625</ele>
        <time>2021-01-17T14:11:14Z</time>
      </trkpt>
      <trkpt lat="43.13652" lon="6.14121">
        <ele>113.15625</ele>
        <time>2021-01-17T14:11:15Z</time>
      </trkpt>
      <trkpt lat="43.13668" lon="6.14118">
        <ele>115.13671875</ele>
        <time>2021-01-17T14:11:18Z</time>
      </trkpt>
      <trkpt lat="43.13673" lon="6.14116">
        <ele>115.53125</ele>
        <time>2021-01-17T14:11:19Z</time>
      </trkpt>
      <trkpt lat="43.13678" lon="6.14112">
        <ele>115.76171875</ele>
        <time>2021-01-17T14:11:20Z</time>
      </trkpt>
      <trkpt lat="43.13683" lon="6.14107">
        <ele>116.10546875</ele>
        <time>2021-01-17T14:11:21Z</time>
      </trkpt>
      <trkpt lat="43.13688" lon="6.14101">
        <ele>116.40234375</ele>
        <time>2021-01-17T14:11:22Z</time>
      </trkpt>
      <trkpt lat="43.13693" lon="6.14092">
        <ele>116.2578125</ele>
        <time>2021-01-17T14:11:23Z</time>
      </trkpt>
      <trkpt lat="43.13697" lon="6.14084">
        <ele>115.65625</ele>
        <time>2021-01-17T14:11:24Z</time>
      </trkpt>
      <trkpt lat="43.13701" lon="6.14075">
        <ele>114.69140625</ele>
        <time>2021-01-17T14:11:25Z</time>
      </trkpt>
      <trkpt lat="43.13704" lon="6.14065">
        <ele>113.58203125</ele>
        <time>2021-01-17T14:11:26Z</time>
      </trkpt>
      <trkpt lat="43.13718" lon="6.14029">
        <ele>106.96875</ele>
        <time>2021-01-17T14:11:30Z</time>
      </trkpt>
      <trkpt lat="43.13723" lon="6.14022">
        <ele>105.64453125</ele>
        <time>2021-01-17T14:11:31Z</time>
      </trkpt>
      <trkpt lat="43.13728" lon="6.14015">
        <ele>104.58984375</ele>
        <time>2021-01-17T14:11:32Z</time>
      </trkpt>
      <trkpt lat="43.13734" lon="6.14009">
        <ele>103.4375</ele>
        <time>2021-01-17T14:11:33Z</time>
      </trkpt>
      <trkpt lat="43.1374" lon="6.14004">
        <ele>102.34375</ele>
        <time>2021-01-17T14:11:34Z</time>
      </trkpt>
      <trkpt lat="43.13747" lon="6.14001">
        <ele>101.66015625</ele>
        <time>2021-01-17T14:11:35Z</time>
      </trkpt>
      <trkpt lat="43.13753" lon="6.13999">
        <ele>101.50390625</ele>
        <time>2021-01-17T14:11:36Z</time>
      </trkpt>
      <trkpt lat="43.1376" lon="6.13999">
        <ele>101.82421875</ele>
        <time>2021-01-17T14:11:37Z</time>
      </trkpt>
      <trkpt lat="43.13767" lon="6.14">
        <ele>102.73828125</ele>
        <time>2021-01-17T14:11:38Z</time>
      </trkpt>
      <trkpt lat="43.13773" lon="6.14002">
        <ele>104.0234375</ele>
        <time>2021-01-17T14:11:39Z</time>
      </trkpt>
      <trkpt lat="43.1378" lon="6.14005">
        <ele>105.47265625</ele>
        <time>2021-01-17T14:11:40Z</time>
      </trkpt>
      <trkpt lat="43.13798" lon="6.14015">
        <ele>111.1796875</ele>
        <time>2021-01-17T14:11:43Z</time>
      </trkpt>
      <trkpt lat="43.13804" lon="6.14015">
        <ele>112.3046875</ele>
        <time>2021-01-17T14:11:44Z</time>
      </trkpt>
      <trkpt lat="43.13808" lon="6.14012">
        <ele>112.29296875</ele>
        <time>2021-01-17T14:11:45Z</time>
      </trkpt>
      <trkpt lat="43.13811" lon="6.14006">
        <ele>111.4765625</ele>
        <time>2021-01-17T14:11:46Z</time>
      </trkpt>
      <trkpt lat="43.13815" lon="6.14">
        <ele>110.40234375</ele>
        <time>2021-01-17T14:11:47Z</time>
      </trkpt>
      <trkpt lat="43.13819" lon="6.13994">
        <ele>109.72265625</ele>
        <time>2021-01-17T14:11:48Z</time>
      </trkpt>
      <trkpt lat="43.13824" lon="6.13988">
        <ele>109.48046875</ele>
        <time>2021-01-17T14:11:49Z</time>
      </trkpt>
      <trkpt lat="43.13846" lon="6.13963">
        <ele>109.62890625</ele>
        <time>2021-01-17T14:11:53Z</time>
      </trkpt>
      <trkpt lat="43.13855" lon="6.13951">
        <ele>110.3203125</ele>
        <time>2021-01-17T14:11:55Z</time>
      </trkpt>
      <trkpt lat="43.13856" lon="6.13944">
        <ele>109.4140625</ele>
        <time>2021-01-17T14:11:56Z</time>
      </trkpt>
      <trkpt lat="43.13855" lon="6.13938">
        <ele>107.71484375</ele>
        <time>2021-01-17T14:11:57Z</time>
      </trkpt>
      <trkpt lat="43.13852" lon="6.13932">
        <ele>105.6328125</ele>
        <time>2021-01-17T14:11:58Z</time>
      </trkpt>
      <trkpt lat="43.13849" lon="6.13925">
        <ele>103.546875</ele>
        <time>2021-01-17T14:11:59Z</time>
      </trkpt>
      <trkpt lat="43.13848" lon="6.13916">
        <ele>101.5234375</ele>
        <time>2021-01-17T14:12:00Z</time>
      </trkpt>
      <trkpt lat="43.13847" lon="6.13908">
        <ele>99.68359375</ele>
        <time>2021-01-17T14:12:01Z</time>
      </trkpt>
      <trkpt lat="43.13847" lon="6.13899">
        <ele>98.58984375</ele>
        <time>2021-01-17T14:12:02Z</time>
      </trkpt>
      <trkpt lat="43.13848" lon="6.13889">
        <ele>98.2421875</ele>
        <time>2021-01-17T14:12:03Z</time>
      </trkpt>
      <trkpt lat="43.1385" lon="6.1388">
        <ele>98.1953125</ele>
        <time>2021-01-17T14:12:04Z</time>
      </trkpt>
      <trkpt lat="43.13853" lon="6.13872">
        <ele>98.08984375</ele>
        <time>2021-01-17T14:12:05Z</time>
      </trkpt>
      <trkpt lat="43.13857" lon="6.13864">
        <ele>97.8671875</ele>
        <time>2021-01-17T14:12:06Z</time>
      </trkpt>
      <trkpt lat="43.13861" lon="6.13856">
        <ele>97.78515625</ele>
        <time>2021-01-17T14:12:07Z</time>
      </trkpt>
      <trkpt lat="43.13866" lon="6.13849">
        <ele>97.78125</ele>
        <time>2021-01-17T14:12:08Z</time>
      </trkpt>
      <trkpt lat="43.13871" lon="6.13842">
        <ele>97.07421875</ele>
        <time>2021-01-17T14:12:09Z</time>
      </trkpt>
      <trkpt lat="43.13894" lon="6.13814">
        <ele>93.16015625</ele>
        <time>2021-01-17T14:12:13Z</time>
      </trkpt>
      <trkpt lat="43.139" lon="6.13807">
        <ele>92.14453125</ele>
        <time>2021-01-17T14:12:14Z</time>
      </trkpt>
      <trkpt lat="43.13907" lon="6.13801">
        <ele>90.21484375</ele>
        <time>2021-01-17T14:12:15Z</time>
      </trkpt>
      <trkpt lat="43.13913" lon="6.13796">
        <ele>88.48828125</ele>
        <time>2021-01-17T14:12:16Z</time>
      </trkpt>
      <trkpt lat="43.1392" lon="6.13792">
        <ele>86.98828125</ele>
        <time>2021-01-17T14:12:17Z</time>
      </trkpt>
      <trkpt lat="43.13926" lon="6.13789">
        <ele>85.87890625</ele>
        <time>2021-01-17T14:12:18Z</time>
      </trkpt>
      <trkpt lat="43.13933" lon="6.13787">
        <ele>85.484375</ele>
        <time>2021-01-17T14:12:19Z</time>
      </trkpt>
      <trkpt lat="43.1394" lon="6.13786">
        <ele>85.42578125</ele>
        <time>2021-01-17T14:12:20Z</time>
      </trkpt>
      <trkpt lat="43.13947" lon="6.13785">
        <ele>85.6015625</ele>
        <time>2021-01-17T14:12:21Z</time>
      </trkpt>
      <trkpt lat="43.13953" lon="6.13786">
        <ele>86.08203125</ele>
        <time>2021-01-17T14:12:22Z</time>
      </trkpt>
      <trkpt lat="43.13959" lon="6.13788">
        <ele>87.12890625</ele>
        <time>2021-01-17T14:12:23Z</time>
      </trkpt>
      <trkpt lat="43.13965" lon="6.13791">
        <ele>88.703125</ele>
        <time>2021-01-17T14:12:24Z</time>
      </trkpt>
      <trkpt lat="43.1397" lon="6.13796">
        <ele>90.67578125</ele>
        <time>2021-01-17T14:12:25Z</time>
      </trkpt>
      <trkpt lat="43.13975" lon="6.13801">
        <ele>92.65234375</ele>
        <time>2021-01-17T14:12:26Z</time>
      </trkpt>
      <trkpt lat="43.13981" lon="6.13803">
        <ele>93.8984375</ele>
        <time>2021-01-17T14:12:27Z</time>
      </trkpt>
      <trkpt lat="43.13985" lon="6.13803">
        <ele>94.63671875</ele>
        <time>2021-01-17T14:12:28Z</time>
      </trkpt>
      <trkpt lat="43.1399" lon="6.138">
        <ele>95.3359375</ele>
        <time>2021-01-17T14:12:29Z</time>
      </trkpt>
      <trkpt lat="43.13996" lon="6.13797">
        <ele>96.09375</ele>
        <time>2021-01-17T14:12:30Z</time>
      </trkpt>
      <trkpt lat="43.14002" lon="6.13793">
        <ele>96.421875</ele>
        <time>2021-01-17T14:12:31Z</time>
      </trkpt>
      <trkpt lat="43.14006" lon="6.13786">
        <ele>95.77734375</ele>
        <time>2021-01-17T14:12:32Z</time>
      </trkpt>
      <trkpt lat="43.14009" lon="6.13777">
        <ele>94.37109375</ele>
        <time>2021-01-17T14:12:33Z</time>
      </trkpt>
      <trkpt lat="43.14013" lon="6.13768">
        <ele>92.61328125</ele>
        <time>2021-01-17T14:12:34Z</time>
      </trkpt>
      <trkpt lat="43.14015" lon="6.13758">
        <ele>90.7265625</ele>
        <time>2021-01-17T14:12:35Z</time>
      </trkpt>
      <trkpt lat="43.14016" lon="6.13748">
        <ele>88.640625</ele>
        <time>2021-01-17T14:12:36Z</time>
      </trkpt>
      <trkpt lat="43.14019" lon="6.13739">
        <ele>86.8203125</ele>
        <time>2021-01-17T14:12:37Z</time>
      </trkpt>
      <trkpt lat="43.14022" lon="6.1373">
        <ele>85.4375</ele>
        <time>2021-01-17T14:12:38Z</time>
      </trkpt>
      <trkpt lat="43.14027" lon="6.13723">
        <ele>84.546875</ele>
        <time>2021-01-17T14:12:39Z</time>
      </trkpt>
      <trkpt lat="43.14031" lon="6.13718">
        <ele>84.015625</ele>
        <time>2021-01-17T14:12:40Z</time>
      </trkpt>
      <trkpt lat="43.14036" lon="6.13713">
        <ele>83.6328125</ele>
        <time>2021-01-17T14:12:41Z</time>
      </trkpt>
      <trkpt lat="43.14042" lon="6.13708">
        <ele>83.25390625</ele>
        <time>2021-01-17T14:12:42Z</time>
      </trkpt>
      <trkpt lat="43.14048" lon="6.13704">
        <ele>83.1015625</ele>
        <time>2021-01-17T14:12:43Z</time>
      </trkpt>
      <trkpt lat="43.14054" lon="6.137">
        <ele>83.1875</ele>
        <time>2021-01-17T14:12:44Z</time>
      </trkpt>
      <trkpt lat="43.1406" lon="6.13697">
        <ele>83.484375</ele>
        <time>2021-01-17T14:12:45Z</time>
      </trkpt>
      <trkpt lat="43.14067" lon="6.13695">
        <ele>84.0390625</ele>
        <time>2021-01-17T14:12:46Z</time>
      </trkpt>
      <trkpt lat="43.14074" lon="6.13694">
        <ele>85.3828125</ele>
        <time>2021-01-17T14:12:47Z</time>
      </trkpt>
      <trkpt lat="43.1408" lon="6.13695">
        <ele>87.140625</ele>
        <time>2021-01-17T14:12:48Z</time>
      </trkpt>
      <trkpt lat="43.14086" lon="6.13695">
        <ele>88.765625</ele>
        <time>2021-01-17T14:12:49Z</time>
      </trkpt>
      <trkpt lat="43.14091" lon="6.13694">
        <ele>89.6640625</ele>
        <time>2021-01-17T14:12:50Z</time>
      </trkpt>
      <trkpt lat="43.14095" lon="6.1369">
        <ele>89.7109375</ele>
        <time>2021-01-17T14:12:51Z</time>
      </trkpt>
      <trkpt lat="43.14097" lon="6.13685">
        <ele>88.89453125</ele>
        <time>2021-01-17T14:12:52Z</time>
      </trkpt>
      <trkpt lat="43.14098" lon="6.13678">
        <ele>87.765625</ele>
        <time>2021-01-17T14:12:53Z</time>
      </trkpt>
      <trkpt lat="43.14099" lon="6.1367">
        <ele>86.9921875</ele>
        <time>2021-01-17T14:12:54Z</time>
      </trkpt>
      <trkpt lat="43.14102" lon="6.13663">
        <ele>86.7734375</ele>
        <time>2021-01-17T14:12:55Z</time>
      </trkpt>
      <trkpt lat="43.14104" lon="6.13657">
        <ele>86.77734375</ele>
        <time>2021-01-17T14:12:56Z</time>
      </trkpt>
      <trkpt lat="43.14106" lon="6.1365">
        <ele>86.1953125</ele>
        <time>2021-01-17T14:12:57Z</time>
      </trkpt>
      <trkpt lat="43.14105" lon="6.13644">
        <ele>84.69140625</ele>
        <time>2021-01-17T14:12:58Z</time>
      </trkpt>
      <trkpt lat="43.14103" lon="6.13638">
        <ele>82.7734375</ele>
        <time>2021-01-17T14:12:59Z</time>
      </trkpt>
      <trkpt lat="43.14101" lon="6.1363">
        <ele>80.7734375</ele>
        <time>2021-01-17T14:13:00Z</time>
      </trkpt>
      <trkpt lat="43.141" lon="6.13622">
        <ele>79.27734375</ele>
        <time>2021-01-17T14:13:01Z</time>
      </trkpt>
      <trkpt lat="43.14099" lon="6.13613">
        <ele>78.3203125</ele>
        <time>2021-01-17T14:13:02Z</time>
      </trkpt>
      <trkpt lat="43.14099" lon="6.13605">
        <ele>77.625</ele>
        <time>2021-01-17T14:13:03Z</time>
      </trkpt>
      <trkpt lat="43.141" lon="6.13596">
        <ele>77.22265625</ele>
        <time>2021-01-17T14:13:04Z</time>
      </trkpt>
      <trkpt lat="43.14101" lon="6.13586">
        <ele>76.95703125</ele>
        <time>2021-01-17T14:13:05Z</time>
      </trkpt>
      <trkpt lat="43.14105" lon="6.13568">
        <ele>76.6328125</ele>
        <time>2021-01-17T14:13:07Z</time>
      </trkpt>
      <trkpt lat="43.14108" lon="6.1356">
        <ele>76.703125</ele>
        <time>2021-01-17T14:13:08Z</time>
      </trkpt>
      <trkpt lat="43.14112" lon="6.13553">
        <ele>77.1640625</ele>
        <time>2021-01-17T14:13:09Z</time>
      </trkpt>
      <trkpt lat="43.14121" lon="6.13538">
        <ele>78.1875</ele>
        <time>2021-01-17T14:13:11Z</time>
      </trkpt>
      <trkpt lat="43.14125" lon="6.13529">
        <ele>77.73046875</ele>
        <time>2021-01-17T14:13:12Z</time>
      </trkpt>
      <trkpt lat="43.14151" lon="6.13442">
        <ele>68.09375</ele>
        <time>2021-01-17T14:13:20Z</time>
      </trkpt>
      <trkpt lat="43.14164" lon="6.13397">
        <ele>60.67578125</ele>
        <time>2021-01-17T14:13:24Z</time>
      </trkpt>
      <trkpt lat="43.14168" lon="6.13385">
        <ele>58.8828125</ele>
        <time>2021-01-17T14:13:25Z</time>
      </trkpt>
      <trkpt lat="43.14176" lon="6.13367">
        <ele>56.27734375</ele>
        <time>2021-01-17T14:13:27Z</time>
      </trkpt>
      <trkpt lat="43.14181" lon="6.1336">
        <ele>54.79296875</ele>
        <time>2021-01-17T14:13:28Z</time>
      </trkpt>
      <trkpt lat="43.14187" lon="6.13354">
        <ele>53.30859375</ele>
        <time>2021-01-17T14:13:29Z</time>
      </trkpt>
      <trkpt lat="43.14194" lon="6.1335">
        <ele>51.9921875</ele>
        <time>2021-01-17T14:13:30Z</time>
      </trkpt>
      <trkpt lat="43.142" lon="6.13346">
        <ele>50.9453125</ele>
        <time>2021-01-17T14:13:31Z</time>
      </trkpt>
      <trkpt lat="43.14206" lon="6.13344">
        <ele>50.07421875</ele>
        <time>2021-01-17T14:13:32Z</time>
      </trkpt>
      <trkpt lat="43.14213" lon="6.13343">
        <ele>49.17578125</ele>
        <time>2021-01-17T14:13:33Z</time>
      </trkpt>
      <trkpt lat="43.14227" lon="6.13343">
        <ele>47.53125</ele>
        <time>2021-01-17T14:13:35Z</time>
      </trkpt>
      <trkpt lat="43.14254" lon="6.13342">
        <ele>41.53125</ele>
        <time>2021-01-17T14:13:39Z</time>
      </trkpt>
      <trkpt lat="43.14264" lon="6.13344">
        <ele>39.66015625</ele>
        <time>2021-01-17T14:13:44Z</time>
      </trkpt>
      <trkpt lat="43.14266" lon="6.13346">
        <ele>39.62890625</ele>
        <time>2021-01-17T14:13:45Z</time>
      </trkpt>
      <trkpt lat="43.14268" lon="6.13347">
        <ele>39.46875</ele>
        <time>2021-01-17T14:13:56Z</time>
      </trkpt>
      <trkpt lat="43.14268" lon="6.13346">
        <ele>39.30859375</ele>
        <time>2021-01-17T14:13:58Z</time>
      </trkpt>
      <trkpt lat="43.14266" lon="6.13348">
        <ele>39.79296875</ele>
        <time>2021-01-17T14:14:21Z</time>
      </trkpt>
      <trkpt lat="43.14266" lon="6.13349">
        <ele>40.04296875</ele>
        <time>2021-01-17T14:14:22Z</time>
      </trkpt>
      <trkpt lat="43.14265" lon="6.1335">
        <ele>40.34765625</ele>
        <time>2021-01-17T14:14:23Z</time>
      </trkpt>
      <trkpt lat="43.14259" lon="6.13363">
        <ele>43.3828125</ele>
        <time>2021-01-17T14:14:31Z</time>
      </trkpt>
      <trkpt lat="43.14258" lon="6.13365">
        <ele>43.9296875</ele>
        <time>2021-01-17T14:14:32Z</time>
      </trkpt>
      <trkpt lat="43.14252" lon="6.13379">
        <ele>47.6328125</ele>
        <time>2021-01-17T14:14:38Z</time>
      </trkpt>
      <trkpt lat="43.14249" lon="6.1339">
        <ele>50.3125</ele>
        <time>2021-01-17T14:14:43Z</time>
      </trkpt>
      <trkpt lat="43.14246" lon="6.13397">
        <ele>52.28125</ele>
        <time>2021-01-17T14:14:46Z</time>
      </trkpt>
      <trkpt lat="43.14241" lon="6.13413">
        <ele>57.109375</ele>
        <time>2021-01-17T14:14:53Z</time>
      </trkpt>
      <trkpt lat="43.14237" lon="6.13423">
        <ele>60.11328125</ele>
        <time>2021-01-17T14:14:57Z</time>
      </trkpt>
      <trkpt lat="43.14233" lon="6.13432">
        <ele>62.90625</ele>
        <time>2021-01-17T14:15:01Z</time>
      </trkpt>
      <trkpt lat="43.1423" lon="6.13439">
        <ele>64.8671875</ele>
        <time>2021-01-17T14:15:04Z</time>
      </trkpt>
      <trkpt lat="43.14225" lon="6.13454">
        <ele>68.703125</ele>
        <time>2021-01-17T14:15:10Z</time>
      </trkpt>
      <trkpt lat="43.14224" lon="6.13459">
        <ele>69.8828125</ele>
        <time>2021-01-17T14:15:12Z</time>
      </trkpt>
      <trkpt lat="43.14221" lon="6.13469">
        <ele>72.26171875</ele>
        <time>2021-01-17T14:15:16Z</time>
      </trkpt>
      <trkpt lat="43.14217" lon="6.13482">
        <ele>75.5</ele>
        <time>2021-01-17T14:15:21Z</time>
      </trkpt>
      <trkpt lat="43.14212" lon="6.135">
        <ele>79.7265625</ele>
        <time>2021-01-17T14:15:28Z</time>
      </trkpt>
      <trkpt lat="43.14211" lon="6.13504">
        <ele>80.87890625</ele>
        <time>2021-01-17T14:15:30Z</time>
      </trkpt>
      <trkpt lat="43.14208" lon="6.13515">
        <ele>83.40234375</ele>
        <time>2021-01-17T14:15:34Z</time>
      </trkpt>
      <trkpt lat="43.14204" lon="6.13528">
        <ele>86.33984375</ele>
        <time>2021-01-17T14:15:39Z</time>
      </trkpt>
      <trkpt lat="43.14201" lon="6.13543">
        <ele>89.2890625</ele>
        <time>2021-01-17T14:15:45Z</time>
      </trkpt>
      <trkpt lat="43.142" lon="6.13545">
        <ele>89.7265625</ele>
        <time>2021-01-17T14:15:46Z</time>
      </trkpt>
      <trkpt lat="43.14197" lon="6.13555">
        <ele>91.3828125</ele>
        <time>2021-01-17T14:15:50Z</time>
      </trkpt>
      <trkpt lat="43.14196" lon="6.13557">
        <ele>91.7890625</ele>
        <time>2021-01-17T14:16:04Z</time>
      </trkpt>
      <trkpt lat="43.14196" lon="6.13556">
        <ele>91.69921875</ele>
        <time>2021-01-17T14:16:28Z</time>
      </trkpt>
      <trkpt lat="43.14196" lon="6.13559">
        <ele>92.16015625</ele>
        <time>2021-01-17T14:16:49Z</time>
      </trkpt>
      <trkpt lat="43.14196" lon="6.13557">
        <ele>91.90234375</ele>
        <time>2021-01-17T14:17:09Z</time>
      </trkpt>
      <trkpt lat="43.14193" lon="6.13566">
        <ele>93.46875</ele>
        <time>2021-01-17T14:17:24Z</time>
      </trkpt>
      <trkpt lat="43.14191" lon="6.13572">
        <ele>94.66015625</ele>
        <time>2021-01-17T14:17:27Z</time>
      </trkpt>
      <trkpt lat="43.14191" lon="6.13582">
        <ele>95.71875</ele>
        <time>2021-01-17T14:17:31Z</time>
      </trkpt>
      <trkpt lat="43.14193" lon="6.13598">
        <ele>96.98828125</ele>
        <time>2021-01-17T14:17:37Z</time>
      </trkpt>
      <trkpt lat="43.14194" lon="6.136">
        <ele>97.16796875</ele>
        <time>2021-01-17T14:17:38Z</time>
      </trkpt>
      <trkpt lat="43.14197" lon="6.13613">
        <ele>97.73046875</ele>
        <time>2021-01-17T14:17:43Z</time>
      </trkpt>
      <trkpt lat="43.14199" lon="6.13629">
        <ele>98.6328125</ele>
        <time>2021-01-17T14:17:49Z</time>
      </trkpt>
      <trkpt lat="43.142" lon="6.13643">
        <ele>99.43359375</ele>
        <time>2021-01-17T14:17:55Z</time>
      </trkpt>
      <trkpt lat="43.14201" lon="6.13646">
        <ele>99.53515625</ele>
        <time>2021-01-17T14:17:56Z</time>
      </trkpt>
      <trkpt lat="43.14197" lon="6.13678">
        <ele>103.08984375</ele>
        <time>2021-01-17T14:18:09Z</time>
      </trkpt>
      <trkpt lat="43.14189" lon="6.13713">
        <ele>109.12890625</ele>
        <time>2021-01-17T14:18:23Z</time>
      </trkpt>
      <trkpt lat="43.14186" lon="6.13728">
        <ele>111.91015625</ele>
        <time>2021-01-17T14:18:29Z</time>
      </trkpt>
      <trkpt lat="43.14183" lon="6.13749">
        <ele>114.90625</ele>
        <time>2021-01-17T14:18:37Z</time>
      </trkpt>
      <trkpt lat="43.14182" lon="6.13763">
        <ele>116.83984375</ele>
        <time>2021-01-17T14:18:42Z</time>
      </trkpt>
      <trkpt lat="43.14181" lon="6.13778">
        <ele>119.49609375</ele>
        <time>2021-01-17T14:18:48Z</time>
      </trkpt>
      <trkpt lat="43.1418" lon="6.13794">
        <ele>122.1171875</ele>
        <time>2021-01-17T14:18:54Z</time>
      </trkpt>
      <trkpt lat="43.1417" lon="6.13822">
        <ele>123.47265625</ele>
        <time>2021-01-17T14:19:06Z</time>
      </trkpt>
      <trkpt lat="43.14161" lon="6.13844">
        <ele>119.1796875</ele>
        <time>2021-01-17T14:19:20Z</time>
      </trkpt>
      <trkpt lat="43.14161" lon="6.13844">
        <ele>119.20703125</ele>
        <time>2021-01-17T14:19:59Z</time>
      </trkpt>
      <trkpt lat="43.1416" lon="6.13846">
        <ele>118.71484375</ele>
        <time>2021-01-17T14:20:28Z</time>
      </trkpt>
      <trkpt lat="43.14159" lon="6.13847">
        <ele>118.6328125</ele>
        <time>2021-01-17T14:21:03Z</time>
      </trkpt>
      <trkpt lat="43.14159" lon="6.13847">
        <ele>118.49609375</ele>
        <time>2021-01-17T14:21:29Z</time>
      </trkpt>
      <trkpt lat="43.14159" lon="6.13846">
        <ele>118.69921875</ele>
        <time>2021-01-17T14:22:09Z</time>
      </trkpt>
      <trkpt lat="43.14159" lon="6.13847">
        <ele>118.578125</ele>
        <time>2021-01-17T14:22:39Z</time>
      </trkpt>
      <trkpt lat="43.14161" lon="6.13845">
        <ele>118.97265625</ele>
        <time>2021-01-17T14:23:07Z</time>
      </trkpt>
      <trkpt lat="43.14158" lon="6.13847">
        <ele>118.51953125</ele>
        <time>2021-01-17T14:23:27Z</time>
      </trkpt>
      <trkpt lat="43.14156" lon="6.13847">
        <ele>118.4140625</ele>
        <time>2021-01-17T14:23:28Z</time>
      </trkpt>
      <trkpt lat="43.14144" lon="6.13846">
        <ele>118.4921875</ele>
        <time>2021-01-17T14:23:31Z</time>
      </trkpt>
      <trkpt lat="43.1414" lon="6.13847">
        <ele>118.4609375</ele>
        <time>2021-01-17T14:23:32Z</time>
      </trkpt>
      <trkpt lat="43.14136" lon="6.13849">
        <ele>118.3046875</ele>
        <time>2021-01-17T14:23:33Z</time>
      </trkpt>
      <trkpt lat="43.14132" lon="6.1385">
        <ele>118.1171875</ele>
        <time>2021-01-17T14:23:34Z</time>
      </trkpt>
      <trkpt lat="43.14128" lon="6.13852">
        <ele>117.97265625</ele>
        <time>2021-01-17T14:23:35Z</time>
      </trkpt>
      <trkpt lat="43.14107" lon="6.13861">
        <ele>117.578125</ele>
        <time>2021-01-17T14:23:42Z</time>
      </trkpt>
      <trkpt lat="43.14076" lon="6.13887">
        <ele>114.3671875</ele>
        <time>2021-01-17T14:23:54Z</time>
      </trkpt>
      <trkpt lat="43.14026" lon="6.13928">
        <ele>111.21484375</ele>
        <time>2021-01-17T14:24:03Z</time>
      </trkpt>
      <trkpt lat="43.13977" lon="6.13967">
        <ele>119.79296875</ele>
        <time>2021-01-17T14:24:13Z</time>
      </trkpt>
      <trkpt lat="43.13939" lon="6.1399">
        <ele>128.51953125</ele>
        <time>2021-01-17T14:24:26Z</time>
      </trkpt>
      <trkpt lat="43.13904" lon="6.14024">
        <ele>137.46484375</ele>
        <time>2021-01-17T14:24:38Z</time>
      </trkpt>
      <trkpt lat="43.13874" lon="6.14065">
        <ele>140.53125</ele>
        <time>2021-01-17T14:24:51Z</time>
      </trkpt>
      <trkpt lat="43.13872" lon="6.14068">
        <ele>140.6875</ele>
        <time>2021-01-17T14:24:52Z</time>
      </trkpt>
      <trkpt lat="43.13827" lon="6.14106">
        <ele>140.12109375</ele>
        <time>2021-01-17T14:25:04Z</time>
      </trkpt>
      <trkpt lat="43.13823" lon="6.14109">
        <ele>139.83984375</ele>
        <time>2021-01-17T14:25:05Z</time>
      </trkpt>
      <trkpt lat="43.13814" lon="6.14113">
        <ele>139.42578125</ele>
        <time>2021-01-17T14:25:07Z</time>
      </trkpt>
      <trkpt lat="43.13764" lon="6.14147">
        <ele>134.7734375</ele>
        <time>2021-01-17T14:25:22Z</time>
      </trkpt>
      <trkpt lat="43.1376" lon="6.14153">
        <ele>133.86328125</ele>
        <time>2021-01-17T14:25:24Z</time>
      </trkpt>
      <trkpt lat="43.13747" lon="6.14167">
        <ele>127.9921875</ele>
        <time>2021-01-17T14:25:28Z</time>
      </trkpt>
      <trkpt lat="43.13742" lon="6.1417">
        <ele>126.10546875</ele>
        <time>2021-01-17T14:25:29Z</time>
      </trkpt>
      <trkpt lat="43.13706" lon="6.14186">
        <ele>116.09765625</ele>
        <time>2021-01-17T14:25:34Z</time>
      </trkpt>
      <trkpt lat="43.13699" lon="6.14189">
        <ele>115.41015625</ele>
        <time>2021-01-17T14:25:35Z</time>
      </trkpt>
      <trkpt lat="43.13683" lon="6.14194">
        <ele>114.98828125</ele>
        <time>2021-01-17T14:25:37Z</time>
      </trkpt>
      <trkpt lat="43.1364" lon="6.14197">
        <ele>116.0625</ele>
        <time>2021-01-17T14:25:44Z</time>
      </trkpt>
      <trkpt lat="43.13633" lon="6.14199">
        <ele>116.0703125</ele>
        <time>2021-01-17T14:25:45Z</time>
      </trkpt>
      <trkpt lat="43.13622" lon="6.14203">
        <ele>115.890625</ele>
        <time>2021-01-17T14:25:47Z</time>
      </trkpt>
      <trkpt lat="43.13618" lon="6.14205">
        <ele>115.86328125</ele>
        <time>2021-01-17T14:25:48Z</time>
      </trkpt>
      <trkpt lat="43.13596" lon="6.14227">
        <ele>115.671875</ele>
        <time>2021-01-17T14:25:59Z</time>
      </trkpt>
      <trkpt lat="43.13574" lon="6.14251">
        <ele>118.02734375</ele>
        <time>2021-01-17T14:26:09Z</time>
      </trkpt>
      <trkpt lat="43.13559" lon="6.14258">
        <ele>120.61328125</ele>
        <time>2021-01-17T14:26:14Z</time>
      </trkpt>
      <trkpt lat="43.13546" lon="6.14261">
        <ele>123.01171875</ele>
        <time>2021-01-17T14:26:18Z</time>
      </trkpt>
      <trkpt lat="43.13532" lon="6.14263">
        <ele>125.5078125</ele>
        <time>2021-01-17T14:26:22Z</time>
      </trkpt>
      <trkpt lat="43.13514" lon="6.14266">
        <ele>128.85546875</ele>
        <time>2021-01-17T14:26:29Z</time>
      </trkpt>
      <trkpt lat="43.1351" lon="6.14267">
        <ele>129.71484375</ele>
        <time>2021-01-17T14:26:31Z</time>
      </trkpt>
      <trkpt lat="43.13496" lon="6.1427">
        <ele>132.171875</ele>
        <time>2021-01-17T14:26:37Z</time>
      </trkpt>
      <trkpt lat="43.1348" lon="6.14276">
        <ele>134.87890625</ele>
        <time>2021-01-17T14:26:46Z</time>
      </trkpt>
      <trkpt lat="43.1348" lon="6.14275">
        <ele>135.171875</ele>
        <time>2021-01-17T14:26:47Z</time>
      </trkpt>
      <trkpt lat="43.1348" lon="6.14272">
        <ele>135.5390625</ele>
        <time>2021-01-17T14:26:48Z</time>
      </trkpt>
      <trkpt lat="43.1348" lon="6.1427">
        <ele>135.70703125</ele>
        <time>2021-01-17T14:26:52Z</time>
      </trkpt>
      <trkpt lat="43.1348" lon="6.1427">
        <ele>135.765625</ele>
        <time>2021-01-17T14:27:11Z</time>
      </trkpt>
      <trkpt lat="43.1348" lon="6.14269">
        <ele>135.79296875</ele>
        <time>2021-01-17T14:27:35Z</time>
      </trkpt>
      <trkpt lat="43.13482" lon="6.14268">
        <ele>135.703125</ele>
        <time>2021-01-17T14:27:49Z</time>
      </trkpt>
      <trkpt lat="43.13483" lon="6.14268">
        <ele>135.4453125</ele>
        <time>2021-01-17T14:27:50Z</time>
      </trkpt>
      <trkpt lat="43.13484" lon="6.14269">
        <ele>135.03515625</ele>
        <time>2021-01-17T14:27:51Z</time>
      </trkpt>
      <trkpt lat="43.13485" lon="6.14271">
        <ele>134.70703125</ele>
        <time>2021-01-17T14:27:52Z</time>
      </trkpt>
      <trkpt lat="43.13481" lon="6.1428">
        <ele>134.2109375</ele>
        <time>2021-01-17T14:27:56Z</time>
      </trkpt>
      <trkpt lat="43.13479" lon="6.14281">
        <ele>134.421875</ele>
        <time>2021-01-17T14:27:57Z</time>
      </trkpt>
      <trkpt lat="43.13477" lon="6.14282">
        <ele>134.70703125</ele>
        <time>2021-01-17T14:27:58Z</time>
      </trkpt>
      <trkpt lat="43.13475" lon="6.14282">
        <ele>135.1171875</ele>
        <time>2021-01-17T14:27:59Z</time>
      </trkpt>
      <trkpt lat="43.13473" lon="6.14283">
        <ele>135.546875</ele>
        <time>2021-01-17T14:28:00Z</time>
      </trkpt>
      <trkpt lat="43.1347" lon="6.14282">
        <ele>136</ele>
        <time>2021-01-17T14:28:01Z</time>
      </trkpt>
      <trkpt lat="43.13468" lon="6.14282">
        <ele>136.48046875</ele>
        <time>2021-01-17T14:28:02Z</time>
      </trkpt>
      <trkpt lat="43.13429" lon="6.14289">
        <ele>142.0390625</ele>
        <time>2021-01-17T14:28:18Z</time>
      </trkpt>
      <trkpt lat="43.13409" lon="6.14301">
        <ele>144.01953125</ele>
        <time>2021-01-17T14:28:27Z</time>
      </trkpt>
      <trkpt lat="43.13408" lon="6.14304">
        <ele>143.6796875</ele>
        <time>2021-01-17T14:28:28Z</time>
      </trkpt>
      <trkpt lat="43.13396" lon="6.14327">
        <ele>142.89453125</ele>
        <time>2021-01-17T14:28:37Z</time>
      </trkpt>
      <trkpt lat="43.13377" lon="6.14353">
        <ele>145.4609375</ele>
        <time>2021-01-17T14:28:49Z</time>
      </trkpt>
      <trkpt lat="43.13359" lon="6.14378">
        <ele>147.6875</ele>
        <time>2021-01-17T14:29:00Z</time>
      </trkpt>
      <trkpt lat="43.13339" lon="6.14407">
        <ele>150.2578125</ele>
        <time>2021-01-17T14:29:12Z</time>
      </trkpt>
      <trkpt lat="43.13336" lon="6.14412">
        <ele>150.67578125</ele>
        <time>2021-01-17T14:29:15Z</time>
      </trkpt>
      <trkpt lat="43.13335" lon="6.14412">
        <ele>151.1484375</ele>
        <time>2021-01-17T14:29:16Z</time>
      </trkpt>
      <trkpt lat="43.13336" lon="6.1441">
        <ele>150.96484375</ele>
        <time>2021-01-17T14:29:27Z</time>
      </trkpt>
      <trkpt lat="43.13339" lon="6.14409">
        <ele>150.17578125</ele>
        <time>2021-01-17T14:29:47Z</time>
      </trkpt>
      <trkpt lat="43.13339" lon="6.14406">
        <ele>150.5390625</ele>
        <time>2021-01-17T14:30:15Z</time>
      </trkpt>
      <trkpt lat="43.1334" lon="6.14409">
        <ele>149.7265625</ele>
        <time>2021-01-17T14:30:38Z</time>
      </trkpt>
      <trkpt lat="43.13341" lon="6.14409">
        <ele>149.16015625</ele>
        <time>2021-01-17T14:31:06Z</time>
      </trkpt>
      <trkpt lat="43.13343" lon="6.14406">
        <ele>148.84765625</ele>
        <time>2021-01-17T14:31:39Z</time>
      </trkpt>
      <trkpt lat="43.13344" lon="6.14404">
        <ele>148.8359375</ele>
        <time>2021-01-17T14:31:48Z</time>
      </trkpt>
      <trkpt lat="43.13367" lon="6.14369">
        <ele>146.0546875</ele>
        <time>2021-01-17T14:31:57Z</time>
      </trkpt>
      <trkpt lat="43.13407" lon="6.14313">
        <ele>141.94140625</ele>
        <time>2021-01-17T14:32:04Z</time>
      </trkpt>
      <trkpt lat="43.13415" lon="6.14298">
        <ele>143.171875</ele>
        <time>2021-01-17T14:32:06Z</time>
      </trkpt>
      <trkpt lat="43.13419" lon="6.14292">
        <ele>143.78515625</ele>
        <time>2021-01-17T14:32:07Z</time>
      </trkpt>
      <trkpt lat="43.13424" lon="6.14288">
        <ele>143.05859375</ele>
        <time>2021-01-17T14:32:08Z</time>
      </trkpt>
      <trkpt lat="43.13428" lon="6.14286">
        <ele>142.29296875</ele>
        <time>2021-01-17T14:32:09Z</time>
      </trkpt>
      <trkpt lat="43.13439" lon="6.14284">
        <ele>141.0625</ele>
        <time>2021-01-17T14:32:11Z</time>
      </trkpt>
      <trkpt lat="43.13461" lon="6.14278">
        <ele>138.31640625</ele>
        <time>2021-01-17T14:32:15Z</time>
      </trkpt>
      <trkpt lat="43.13467" lon="6.14278">
        <ele>137.1328125</ele>
        <time>2021-01-17T14:32:16Z</time>
      </trkpt>
      <trkpt lat="43.13478" lon="6.14279">
        <ele>134.89453125</ele>
        <time>2021-01-17T14:32:18Z</time>
      </trkpt>
      <trkpt lat="43.13482" lon="6.14278">
        <ele>134.33203125</ele>
        <time>2021-01-17T14:32:19Z</time>
      </trkpt>
      <trkpt lat="43.13484" lon="6.14275">
        <ele>134.20703125</ele>
        <time>2021-01-17T14:32:20Z</time>
      </trkpt>
      <trkpt lat="43.13485" lon="6.14271">
        <ele>134.5078125</ele>
        <time>2021-01-17T14:32:21Z</time>
      </trkpt>
      <trkpt lat="43.13484" lon="6.14266">
        <ele>135.73828125</ele>
        <time>2021-01-17T14:32:23Z</time>
      </trkpt>
      <trkpt lat="43.1348" lon="6.14262">
        <ele>136.72265625</ele>
        <time>2021-01-17T14:32:25Z</time>
      </trkpt>
      <trkpt lat="43.13478" lon="6.1426">
        <ele>137.22265625</ele>
        <time>2021-01-17T14:32:26Z</time>
      </trkpt>
      <trkpt lat="43.13476" lon="6.14257">
        <ele>137.75</ele>
        <time>2021-01-17T14:32:27Z</time>
      </trkpt>
      <trkpt lat="43.13473" lon="6.14255">
        <ele>138.35546875</ele>
        <time>2021-01-17T14:32:28Z</time>
      </trkpt>
      <trkpt lat="43.13469" lon="6.14254">
        <ele>139.046875</ele>
        <time>2021-01-17T14:32:29Z</time>
      </trkpt>
      <trkpt lat="43.13465" lon="6.14254">
        <ele>139.73828125</ele>
        <time>2021-01-17T14:32:30Z</time>
      </trkpt>
      <trkpt lat="43.13461" lon="6.14254">
        <ele>140.4296875</ele>
        <time>2021-01-17T14:32:31Z</time>
      </trkpt>
      <trkpt lat="43.13457" lon="6.14254">
        <ele>141.12109375</ele>
        <time>2021-01-17T14:32:32Z</time>
      </trkpt>
      <trkpt lat="43.13452" lon="6.14255">
        <ele>141.65234375</ele>
        <time>2021-01-17T14:32:33Z</time>
      </trkpt>
      <trkpt lat="43.13448" lon="6.14255">
        <ele>142.08203125</ele>
        <time>2021-01-17T14:32:34Z</time>
      </trkpt>
      <trkpt lat="43.13412" lon="6.14274">
        <ele>145.83984375</ele>
        <time>2021-01-17T14:32:47Z</time>
      </trkpt>
      <trkpt lat="43.13385" lon="6.1427">
        <ele>150.39453125</ele>
        <time>2021-01-17T14:33:00Z</time>
      </trkpt>
      <trkpt lat="43.13378" lon="6.14265">
        <ele>151.15625</ele>
        <time>2021-01-17T14:33:05Z</time>
      </trkpt>
      <trkpt lat="43.1338" lon="6.14265">
        <ele>150.8203125</ele>
        <time>2021-01-17T14:33:14Z</time>
      </trkpt>
      <trkpt lat="43.13385" lon="6.1427">
        <ele>150.49609375</ele>
        <time>2021-01-17T14:33:18Z</time>
      </trkpt>
      <trkpt lat="43.13386" lon="6.14271">
        <ele>150.32421875</ele>
        <time>2021-01-17T14:33:19Z</time>
      </trkpt>
      <trkpt lat="43.13387" lon="6.14272">
        <ele>150.1171875</ele>
        <time>2021-01-17T14:33:20Z</time>
      </trkpt>
      <trkpt lat="43.1339" lon="6.14273">
        <ele>149.765625</ele>
        <time>2021-01-17T14:33:21Z</time>
      </trkpt>
      <trkpt lat="43.13392" lon="6.14274">
        <ele>149.30078125</ele>
        <time>2021-01-17T14:33:22Z</time>
      </trkpt>
      <trkpt lat="43.13396" lon="6.14274">
        <ele>148.6328125</ele>
        <time>2021-01-17T14:33:23Z</time>
      </trkpt>
      <trkpt lat="43.134" lon="6.14274">
        <ele>147.953125</ele>
        <time>2021-01-17T14:33:24Z</time>
      </trkpt>
      <trkpt lat="43.13408" lon="6.14274">
        <ele>146.578125</ele>
        <time>2021-01-17T14:33:26Z</time>
      </trkpt>
      <trkpt lat="43.13413" lon="6.14273">
        <ele>145.84375</ele>
        <time>2021-01-17T14:33:27Z</time>
      </trkpt>
      <trkpt lat="43.13419" lon="6.1427">
        <ele>145</ele>
        <time>2021-01-17T14:33:28Z</time>
      </trkpt>
      <trkpt lat="43.1345" lon="6.14256">
        <ele>141.87109375</ele>
        <time>2021-01-17T14:33:33Z</time>
      </trkpt>
      <trkpt lat="43.13457" lon="6.14255">
        <ele>141.11328125</ele>
        <time>2021-01-17T14:33:34Z</time>
      </trkpt>
      <trkpt lat="43.13463" lon="6.14256">
        <ele>140.02734375</ele>
        <time>2021-01-17T14:33:35Z</time>
      </trkpt>
      <trkpt lat="43.13469" lon="6.14258">
        <ele>138.91796875</ele>
        <time>2021-01-17T14:33:36Z</time>
      </trkpt>
      <trkpt lat="43.13474" lon="6.14261">
        <ele>137.8671875</ele>
        <time>2021-01-17T14:33:37Z</time>
      </trkpt>
      <trkpt lat="43.13478" lon="6.14265">
        <ele>136.88671875</ele>
        <time>2021-01-17T14:33:38Z</time>
      </trkpt>
      <trkpt lat="43.13481" lon="6.14268">
        <ele>135.828125</ele>
        <time>2021-01-17T14:33:39Z</time>
      </trkpt>
      <trkpt lat="43.13491" lon="6.14272">
        <ele>133.03515625</ele>
        <time>2021-01-17T14:33:42Z</time>
      </trkpt>
      <trkpt lat="43.13495" lon="6.14271">
        <ele>132.13671875</ele>
        <time>2021-01-17T14:33:43Z</time>
      </trkpt>
      <trkpt lat="43.13513" lon="6.14266">
        <ele>129.31640625</ele>
        <time>2021-01-17T14:33:46Z</time>
      </trkpt>
      <trkpt lat="43.13542" lon="6.14261">
        <ele>123.8515625</ele>
        <time>2021-01-17T14:33:50Z</time>
      </trkpt>
      <trkpt lat="43.13555" lon="6.14258">
        <ele>121.4765625</ele>
        <time>2021-01-17T14:33:52Z</time>
      </trkpt>
      <trkpt lat="43.13564" lon="6.14256">
        <ele>120.02734375</ele>
        <time>2021-01-17T14:33:54Z</time>
      </trkpt>
      <trkpt lat="43.13577" lon="6.14249">
        <ele>117.3046875</ele>
        <time>2021-01-17T14:34:01Z</time>
      </trkpt>
      <trkpt lat="43.13576" lon="6.14249">
        <ele>117.69140625</ele>
        <time>2021-01-17T14:34:18Z</time>
      </trkpt>
      <trkpt lat="43.13573" lon="6.14253">
        <ele>118.05859375</ele>
        <time>2021-01-17T14:34:33Z</time>
      </trkpt>
      <trkpt lat="43.13572" lon="6.14253">
        <ele>118.34375</ele>
        <time>2021-01-17T14:34:55Z</time>
      </trkpt>
      <trkpt lat="43.13571" lon="6.14254">
        <ele>118.46875</ele>
        <time>2021-01-17T14:34:59Z</time>
      </trkpt>
      <trkpt lat="43.13569" lon="6.14255">
        <ele>118.73046875</ele>
        <time>2021-01-17T14:35:00Z</time>
      </trkpt>
      <trkpt lat="43.13544" lon="6.14261">
        <ele>123.23046875</ele>
        <time>2021-01-17T14:35:09Z</time>
      </trkpt>
      <trkpt lat="43.13541" lon="6.14262">
        <ele>123.7734375</ele>
        <time>2021-01-17T14:35:10Z</time>
      </trkpt>
      <trkpt lat="43.1353" lon="6.14265">
        <ele>125.74609375</ele>
        <time>2021-01-17T14:35:15Z</time>
      </trkpt>
      <trkpt lat="43.13513" lon="6.14267">
        <ele>129.03125</ele>
        <time>2021-01-17T14:35:23Z</time>
      </trkpt>
      <trkpt lat="43.13501" lon="6.1427">
        <ele>131.05859375</ele>
        <time>2021-01-17T14:35:28Z</time>
      </trkpt>
      <trkpt lat="43.13484" lon="6.14273">
        <ele>134.41015625</ele>
        <time>2021-01-17T14:35:35Z</time>
      </trkpt>
      <trkpt lat="43.13482" lon="6.14271">
        <ele>135.15625</ele>
        <time>2021-01-17T14:35:36Z</time>
      </trkpt>
      <trkpt lat="43.13481" lon="6.14269">
        <ele>135.8046875</ele>
        <time>2021-01-17T14:35:37Z</time>
      </trkpt>
      <trkpt lat="43.13479" lon="6.14266">
        <ele>136.578125</ele>
        <time>2021-01-17T14:35:38Z</time>
      </trkpt>
      <trkpt lat="43.13476" lon="6.14262">
        <ele>137.359375</ele>
        <time>2021-01-17T14:35:39Z</time>
      </trkpt>
      <trkpt lat="43.13472" lon="6.14259">
        <ele>138.2109375</ele>
        <time>2021-01-17T14:35:40Z</time>
      </trkpt>
      <trkpt lat="43.13468" lon="6.14257">
        <ele>139.15625</ele>
        <time>2021-01-17T14:35:41Z</time>
      </trkpt>
      <trkpt lat="43.13463" lon="6.14255">
        <ele>140.0390625</ele>
        <time>2021-01-17T14:35:42Z</time>
      </trkpt>
      <trkpt lat="43.13459" lon="6.14255">
        <ele>140.765625</ele>
        <time>2021-01-17T14:35:43Z</time>
      </trkpt>
      <trkpt lat="43.13455" lon="6.14255">
        <ele>141.37109375</ele>
        <time>2021-01-17T14:35:44Z</time>
      </trkpt>
      <trkpt lat="43.13451" lon="6.14256">
        <ele>141.73046875</ele>
        <time>2021-01-17T14:35:45Z</time>
      </trkpt>
      <trkpt lat="43.13448" lon="6.14256">
        <ele>142.08203125</ele>
        <time>2021-01-17T14:35:46Z</time>
      </trkpt>
      <trkpt lat="43.13444" lon="6.14257">
        <ele>142.4453125</ele>
        <time>2021-01-17T14:35:47Z</time>
      </trkpt>
      <trkpt lat="43.13441" lon="6.14258">
        <ele>142.7734375</ele>
        <time>2021-01-17T14:35:48Z</time>
      </trkpt>
      <trkpt lat="43.13438" lon="6.1426">
        <ele>143.06640625</ele>
        <time>2021-01-17T14:35:49Z</time>
      </trkpt>
      <trkpt lat="43.13391" lon="6.14274">
        <ele>149.63671875</ele>
        <time>2021-01-17T14:36:02Z</time>
      </trkpt>
      <trkpt lat="43.13387" lon="6.14271">
        <ele>150.23828125</ele>
        <time>2021-01-17T14:36:03Z</time>
      </trkpt>
      <trkpt lat="43.13382" lon="6.14268">
        <ele>150.7265625</ele>
        <time>2021-01-17T14:36:04Z</time>
      </trkpt>
      <trkpt lat="43.13374" lon="6.14261">
        <ele>151.0859375</ele>
        <time>2021-01-17T14:36:06Z</time>
      </trkpt>
      <trkpt lat="43.13349" lon="6.14232">
        <ele>151.74609375</ele>
        <time>2021-01-17T14:36:15Z</time>
      </trkpt>
      <trkpt lat="43.13346" lon="6.14229">
        <ele>151.7578125</ele>
        <time>2021-01-17T14:36:16Z</time>
      </trkpt>
      <trkpt lat="43.13322" lon="6.14207">
        <ele>153.24609375</ele>
        <time>2021-01-17T14:36:25Z</time>
      </trkpt>
      <trkpt lat="43.13318" lon="6.14204">
        <ele>153.44921875</ele>
        <time>2021-01-17T14:36:26Z</time>
      </trkpt>
      <trkpt lat="43.13272" lon="6.14172">
        <ele>156.22265625</ele>
        <time>2021-01-17T14:36:39Z</time>
      </trkpt>
      <trkpt lat="43.13253" lon="6.14127">
        <ele>152.74609375</ele>
        <time>2021-01-17T14:36:52Z</time>
      </trkpt>
      <trkpt lat="43.13255" lon="6.14123">
        <ele>152.078125</ele>
        <time>2021-01-17T14:36:53Z</time>
      </trkpt>
      <trkpt lat="43.13258" lon="6.14118">
        <ele>151.3671875</ele>
        <time>2021-01-17T14:36:54Z</time>
      </trkpt>
      <trkpt lat="43.13259" lon="6.14114">
        <ele>150.890625</ele>
        <time>2021-01-17T14:36:55Z</time>
      </trkpt>
      <trkpt lat="43.1326" lon="6.1411">
        <ele>150.6875</ele>
        <time>2021-01-17T14:36:56Z</time>
      </trkpt>
      <trkpt lat="43.1326" lon="6.14107">
        <ele>150.4453125</ele>
        <time>2021-01-17T14:36:57Z</time>
      </trkpt>
      <trkpt lat="43.13262" lon="6.14105">
        <ele>150.00390625</ele>
        <time>2021-01-17T14:36:58Z</time>
      </trkpt>
      <trkpt lat="43.13267" lon="6.14093">
        <ele>147.98828125</ele>
        <time>2021-01-17T14:37:03Z</time>
      </trkpt>
      <trkpt lat="43.13268" lon="6.14092">
        <ele>147.4453125</ele>
        <time>2021-01-17T14:37:13Z</time>
      </trkpt>
      <trkpt lat="43.1327" lon="6.14091">
        <ele>146.92578125</ele>
        <time>2021-01-17T14:37:15Z</time>
      </trkpt>
      <trkpt lat="43.13272" lon="6.14084">
        <ele>145.94921875</ele>
        <time>2021-01-17T14:37:24Z</time>
      </trkpt>
      <trkpt lat="43.13272" lon="6.14081">
        <ele>146.03515625</ele>
        <time>2021-01-17T14:37:25Z</time>
      </trkpt>
      <trkpt lat="43.1327" lon="6.14079">
        <ele>146.4375</ele>
        <time>2021-01-17T14:37:26Z</time>
      </trkpt>
      <trkpt lat="43.13269" lon="6.14076">
        <ele>146.93359375</ele>
        <time>2021-01-17T14:37:27Z</time>
      </trkpt>
      <trkpt lat="43.13266" lon="6.14075">
        <ele>147.65234375</ele>
        <time>2021-01-17T14:37:28Z</time>
      </trkpt>
      <trkpt lat="43.13263" lon="6.14073">
        <ele>148.4921875</ele>
        <time>2021-01-17T14:37:29Z</time>
      </trkpt>
      <trkpt lat="43.1326" lon="6.14071">
        <ele>149.30078125</ele>
        <time>2021-01-17T14:37:30Z</time>
      </trkpt>
      <trkpt lat="43.13257" lon="6.14068">
        <ele>150.08203125</ele>
        <time>2021-01-17T14:37:31Z</time>
      </trkpt>
      <trkpt lat="43.13253" lon="6.14064">
        <ele>150.9375</ele>
        <time>2021-01-17T14:37:32Z</time>
      </trkpt>
      <trkpt lat="43.1325" lon="6.14061">
        <ele>151.8203125</ele>
        <time>2021-01-17T14:37:33Z</time>
      </trkpt>
      <trkpt lat="43.13246" lon="6.14058">
        <ele>152.72265625</ele>
        <time>2021-01-17T14:37:34Z</time>
      </trkpt>
      <trkpt lat="43.13243" lon="6.14053">
        <ele>153.55078125</ele>
        <time>2021-01-17T14:37:35Z</time>
      </trkpt>
      <trkpt lat="43.1324" lon="6.14048">
        <ele>154.31640625</ele>
        <time>2021-01-17T14:37:36Z</time>
      </trkpt>
      <trkpt lat="43.13233" lon="6.14038">
        <ele>155.296875</ele>
        <time>2021-01-17T14:37:38Z</time>
      </trkpt>
      <trkpt lat="43.1323" lon="6.1403">
        <ele>154.30859375</ele>
        <time>2021-01-17T14:37:39Z</time>
      </trkpt>
      <trkpt lat="43.13229" lon="6.14023">
        <ele>153.24609375</ele>
        <time>2021-01-17T14:37:40Z</time>
      </trkpt>
      <trkpt lat="43.13227" lon="6.14015">
        <ele>152.2421875</ele>
        <time>2021-01-17T14:37:41Z</time>
      </trkpt>
      <trkpt lat="43.13225" lon="6.14007">
        <ele>151.11328125</ele>
        <time>2021-01-17T14:37:42Z</time>
      </trkpt>
      <trkpt lat="43.13221" lon="6.13994">
        <ele>149.390625</ele>
        <time>2021-01-17T14:37:44Z</time>
      </trkpt>
      <trkpt lat="43.13219" lon="6.13989">
        <ele>148.87109375</ele>
        <time>2021-01-17T14:37:45Z</time>
      </trkpt>
      <trkpt lat="43.13217" lon="6.13984">
        <ele>148.1953125</ele>
        <time>2021-01-17T14:37:46Z</time>
      </trkpt>
      <trkpt lat="43.13214" lon="6.1398">
        <ele>147.671875</ele>
        <time>2021-01-17T14:37:47Z</time>
      </trkpt>
      <trkpt lat="43.13211" lon="6.13976">
        <ele>147.20703125</ele>
        <time>2021-01-17T14:37:48Z</time>
      </trkpt>
      <trkpt lat="43.1321" lon="6.13971">
        <ele>146.4921875</ele>
        <time>2021-01-17T14:37:49Z</time>
      </trkpt>
      <trkpt lat="43.13209" lon="6.13966">
        <ele>145.73046875</ele>
        <time>2021-01-17T14:37:50Z</time>
      </trkpt>
      <trkpt lat="43.13207" lon="6.13962">
        <ele>145.2578125</ele>
        <time>2021-01-17T14:37:51Z</time>
      </trkpt>
      <trkpt lat="43.13204" lon="6.13958">
        <ele>144.99609375</ele>
        <time>2021-01-17T14:37:52Z</time>
      </trkpt>
      <trkpt lat="43.13201" lon="6.13954">
        <ele>144.7578125</ele>
        <time>2021-01-17T14:37:53Z</time>
      </trkpt>
      <trkpt lat="43.13198" lon="6.13948">
        <ele>144.37109375</ele>
        <time>2021-01-17T14:37:54Z</time>
      </trkpt>
      <trkpt lat="43.13196" lon="6.13942">
        <ele>143.80859375</ele>
        <time>2021-01-17T14:37:55Z</time>
      </trkpt>
      <trkpt lat="43.13195" lon="6.13936">
        <ele>143.16796875</ele>
        <time>2021-01-17T14:37:56Z</time>
      </trkpt>
      <trkpt lat="43.13193" lon="6.13929">
        <ele>142.66796875</ele>
        <time>2021-01-17T14:37:57Z</time>
      </trkpt>
      <trkpt lat="43.13191" lon="6.13923">
        <ele>142.30078125</ele>
        <time>2021-01-17T14:37:58Z</time>
      </trkpt>
      <trkpt lat="43.13188" lon="6.13916">
        <ele>141.89453125</ele>
        <time>2021-01-17T14:37:59Z</time>
      </trkpt>
      <trkpt lat="43.13186" lon="6.13909">
        <ele>141.5234375</ele>
        <time>2021-01-17T14:38:00Z</time>
      </trkpt>
      <trkpt lat="43.13183" lon="6.13902">
        <ele>141.28125</ele>
        <time>2021-01-17T14:38:01Z</time>
      </trkpt>
      <trkpt lat="43.1318" lon="6.13896">
        <ele>140.9375</ele>
        <time>2021-01-17T14:38:02Z</time>
      </trkpt>
      <trkpt lat="43.13179" lon="6.13889">
        <ele>140.296875</ele>
        <time>2021-01-17T14:38:03Z</time>
      </trkpt>
      <trkpt lat="43.13179" lon="6.13882">
        <ele>139.4765625</ele>
        <time>2021-01-17T14:38:04Z</time>
      </trkpt>
      <trkpt lat="43.13178" lon="6.13866">
        <ele>137.80859375</ele>
        <time>2021-01-17T14:38:06Z</time>
      </trkpt>
      <trkpt lat="43.13179" lon="6.13858">
        <ele>136.890625</ele>
        <time>2021-01-17T14:38:07Z</time>
      </trkpt>
      <trkpt lat="43.13179" lon="6.1385">
        <ele>135.90234375</ele>
        <time>2021-01-17T14:38:08Z</time>
      </trkpt>
      <trkpt lat="43.13179" lon="6.13827">
        <ele>134.171875</ele>
        <time>2021-01-17T14:38:11Z</time>
      </trkpt>
      <trkpt lat="43.1318" lon="6.13799">
        <ele>132.546875</ele>
        <time>2021-01-17T14:38:15Z</time>
      </trkpt>
      <trkpt lat="43.13183" lon="6.13786">
        <ele>131.53515625</ele>
        <time>2021-01-17T14:38:17Z</time>
      </trkpt>
      <trkpt lat="43.13185" lon="6.13781">
        <ele>130.83203125</ele>
        <time>2021-01-17T14:38:18Z</time>
      </trkpt>
      <trkpt lat="43.13186" lon="6.13775">
        <ele>130.2890625</ele>
        <time>2021-01-17T14:38:19Z</time>
      </trkpt>
      <trkpt lat="43.13186" lon="6.1377">
        <ele>130.21875</ele>
        <time>2021-01-17T14:38:20Z</time>
      </trkpt>
      <trkpt lat="43.13186" lon="6.13765">
        <ele>130.2265625</ele>
        <time>2021-01-17T14:38:21Z</time>
      </trkpt>
      <trkpt lat="43.13186" lon="6.13762">
        <ele>130.2421875</ele>
        <time>2021-01-17T14:38:22Z</time>
      </trkpt>
      <trkpt lat="43.13187" lon="6.13759">
        <ele>130.1484375</ele>
        <time>2021-01-17T14:38:23Z</time>
      </trkpt>
      <trkpt lat="43.13188" lon="6.13756">
        <ele>130.02734375</ele>
        <time>2021-01-17T14:38:24Z</time>
      </trkpt>
      <trkpt lat="43.1319" lon="6.13752">
        <ele>129.37890625</ele>
        <time>2021-01-17T14:38:28Z</time>
      </trkpt>
      <trkpt lat="43.13192" lon="6.1375">
        <ele>128.859375</ele>
        <time>2021-01-17T14:38:29Z</time>
      </trkpt>
      <trkpt lat="43.13194" lon="6.13745">
        <ele>128.51171875</ele>
        <time>2021-01-17T14:38:30Z</time>
      </trkpt>
      <trkpt lat="43.13194" lon="6.1374">
        <ele>128.4453125</ele>
        <time>2021-01-17T14:38:31Z</time>
      </trkpt>
      <trkpt lat="43.13195" lon="6.13734">
        <ele>128.296875</ele>
        <time>2021-01-17T14:38:32Z</time>
      </trkpt>
      <trkpt lat="43.13196" lon="6.13729">
        <ele>127.93359375</ele>
        <time>2021-01-17T14:38:33Z</time>
      </trkpt>
      <trkpt lat="43.13198" lon="6.13723">
        <ele>127.30859375</ele>
        <time>2021-01-17T14:38:34Z</time>
      </trkpt>
      <trkpt lat="43.132" lon="6.13717">
        <ele>126.6015625</ele>
        <time>2021-01-17T14:38:35Z</time>
      </trkpt>
      <trkpt lat="43.13202" lon="6.13711">
        <ele>126.19140625</ele>
        <time>2021-01-17T14:38:36Z</time>
      </trkpt>
      <trkpt lat="43.13202" lon="6.13705">
        <ele>126.01171875</ele>
        <time>2021-01-17T14:38:37Z</time>
      </trkpt>
      <trkpt lat="43.13202" lon="6.13699">
        <ele>126.0234375</ele>
        <time>2021-01-17T14:38:38Z</time>
      </trkpt>
      <trkpt lat="43.13202" lon="6.13693">
        <ele>126.12109375</ele>
        <time>2021-01-17T14:38:39Z</time>
      </trkpt>
      <trkpt lat="43.13201" lon="6.13688">
        <ele>126.34765625</ele>
        <time>2021-01-17T14:38:40Z</time>
      </trkpt>
      <trkpt lat="43.13199" lon="6.13683">
        <ele>126.734375</ele>
        <time>2021-01-17T14:38:41Z</time>
      </trkpt>
      <trkpt lat="43.13197" lon="6.13679">
        <ele>127.46484375</ele>
        <time>2021-01-17T14:38:42Z</time>
      </trkpt>
      <trkpt lat="43.13195" lon="6.13675">
        <ele>128.3125</ele>
        <time>2021-01-17T14:38:43Z</time>
      </trkpt>
      <trkpt lat="43.13193" lon="6.13672">
        <ele>128.98046875</ele>
        <time>2021-01-17T14:38:44Z</time>
      </trkpt>
      <trkpt lat="43.13192" lon="6.13668">
        <ele>129.5703125</ele>
        <time>2021-01-17T14:38:45Z</time>
      </trkpt>
      <trkpt lat="43.13189" lon="6.13652">
        <ele>131.19140625</ele>
        <time>2021-01-17T14:38:49Z</time>
      </trkpt>
      <trkpt lat="43.13193" lon="6.13631">
        <ele>132.23046875</ele>
        <time>2021-01-17T14:38:57Z</time>
      </trkpt>
      <trkpt lat="43.13199" lon="6.13622">
        <ele>132.2890625</ele>
        <time>2021-01-17T14:39:01Z</time>
      </trkpt>
      <trkpt lat="43.1322" lon="6.136">
        <ele>132.91796875</ele>
        <time>2021-01-17T14:39:11Z</time>
      </trkpt>
      <trkpt lat="43.13234" lon="6.13588">
        <ele>133.26953125</ele>
        <time>2021-01-17T14:39:17Z</time>
      </trkpt>
      <trkpt lat="43.13252" lon="6.13567">
        <ele>135.4140625</ele>
        <time>2021-01-17T14:39:24Z</time>
      </trkpt>
      <trkpt lat="43.1326" lon="6.13547">
        <ele>135.9921875</ele>
        <time>2021-01-17T14:39:29Z</time>
      </trkpt>
      <trkpt lat="43.13267" lon="6.13494">
        <ele>139.6484375</ele>
        <time>2021-01-17T14:39:41Z</time>
      </trkpt>
      <trkpt lat="43.13273" lon="6.13459">
        <ele>142.6171875</ele>
        <time>2021-01-17T14:39:50Z</time>
      </trkpt>
      <trkpt lat="43.1329" lon="6.13428">
        <ele>144.02734375</ele>
        <time>2021-01-17T14:40:00Z</time>
      </trkpt>
      <trkpt lat="43.13301" lon="6.13411">
        <ele>147.6953125</ele>
        <time>2021-01-17T14:40:07Z</time>
      </trkpt>
      <trkpt lat="43.13305" lon="6.13403">
        <ele>149.41015625</ele>
        <time>2021-01-17T14:40:19Z</time>
      </trkpt>
      <trkpt lat="43.13306" lon="6.134">
        <ele>149.82421875</ele>
        <time>2021-01-17T14:40:28Z</time>
      </trkpt>
      <trkpt lat="43.13305" lon="6.13398">
        <ele>150.1328125</ele>
        <time>2021-01-17T14:40:29Z</time>
      </trkpt>
      <trkpt lat="43.13303" lon="6.13394">
        <ele>151.078125</ele>
        <time>2021-01-17T14:40:32Z</time>
      </trkpt>
      <trkpt lat="43.13279" lon="6.13377">
        <ele>156.3125</ele>
        <time>2021-01-17T14:40:42Z</time>
      </trkpt>
      <trkpt lat="43.13273" lon="6.13375">
        <ele>157.09765625</ele>
        <time>2021-01-17T14:40:44Z</time>
      </trkpt>
      <trkpt lat="43.13261" lon="6.13371">
        <ele>158.2421875</ele>
        <time>2021-01-17T14:40:47Z</time>
      </trkpt>
      <trkpt lat="43.13246" lon="6.1337">
        <ele>159.97265625</ele>
        <time>2021-01-17T14:40:50Z</time>
      </trkpt>
      <trkpt lat="43.13242" lon="6.13368">
        <ele>160.20703125</ele>
        <time>2021-01-17T14:40:51Z</time>
      </trkpt>
      <trkpt lat="43.13228" lon="6.13364">
        <ele>161.17578125</ele>
        <time>2021-01-17T14:40:54Z</time>
      </trkpt>
      <trkpt lat="43.13224" lon="6.13361">
        <ele>161.078125</ele>
        <time>2021-01-17T14:40:55Z</time>
      </trkpt>
      <trkpt lat="43.13191" lon="6.13334">
        <ele>158.7421875</ele>
        <time>2021-01-17T14:41:04Z</time>
      </trkpt>
      <trkpt lat="43.13187" lon="6.13331">
        <ele>158.26171875</ele>
        <time>2021-01-17T14:41:05Z</time>
      </trkpt>
      <trkpt lat="43.13184" lon="6.13328">
        <ele>158.0859375</ele>
        <time>2021-01-17T14:41:06Z</time>
      </trkpt>
      <trkpt lat="43.13174" lon="6.13323">
        <ele>157.671875</ele>
        <time>2021-01-17T14:41:13Z</time>
      </trkpt>
      <trkpt lat="43.13168" lon="6.13317">
        <ele>156.82421875</ele>
        <time>2021-01-17T14:41:16Z</time>
      </trkpt>
      <trkpt lat="43.13151" lon="6.13307">
        <ele>156.33984375</ele>
        <time>2021-01-17T14:41:21Z</time>
      </trkpt>
      <trkpt lat="43.13147" lon="6.13306">
        <ele>156.31640625</ele>
        <time>2021-01-17T14:41:22Z</time>
      </trkpt>
      <trkpt lat="43.13144" lon="6.13306">
        <ele>156.09765625</ele>
        <time>2021-01-17T14:41:23Z</time>
      </trkpt>
      <trkpt lat="43.13142" lon="6.13305">
        <ele>155.87890625</ele>
        <time>2021-01-17T14:41:24Z</time>
      </trkpt>
      <trkpt lat="43.1314" lon="6.13303">
        <ele>155.59375</ele>
        <time>2021-01-17T14:41:25Z</time>
      </trkpt>
      <trkpt lat="43.13139" lon="6.13301">
        <ele>155.24609375</ele>
        <time>2021-01-17T14:41:26Z</time>
      </trkpt>
      <trkpt lat="43.13137" lon="6.13299">
        <ele>154.8203125</ele>
        <time>2021-01-17T14:41:27Z</time>
      </trkpt>
      <trkpt lat="43.13127" lon="6.13288">
        <ele>152.99609375</ele>
        <time>2021-01-17T14:41:31Z</time>
      </trkpt>
      <trkpt lat="43.13122" lon="6.13283">
        <ele>152.2421875</ele>
        <time>2021-01-17T14:41:39Z</time>
      </trkpt>
      <trkpt lat="43.13121" lon="6.13281">
        <ele>151.7578125</ele>
        <time>2021-01-17T14:41:40Z</time>
      </trkpt>
      <trkpt lat="43.13119" lon="6.13277">
        <ele>151.15234375</ele>
        <time>2021-01-17T14:41:41Z</time>
      </trkpt>
      <trkpt lat="43.13116" lon="6.13273">
        <ele>150.63671875</ele>
        <time>2021-01-17T14:41:42Z</time>
      </trkpt>
      <trkpt lat="43.13114" lon="6.1327">
        <ele>150.18359375</ele>
        <time>2021-01-17T14:41:43Z</time>
      </trkpt>
      <trkpt lat="43.13112" lon="6.13266">
        <ele>149.81640625</ele>
        <time>2021-01-17T14:41:44Z</time>
      </trkpt>
      <trkpt lat="43.13109" lon="6.13262">
        <ele>149.47265625</ele>
        <time>2021-01-17T14:41:45Z</time>
      </trkpt>
      <trkpt lat="43.13108" lon="6.13259">
        <ele>149.0703125</ele>
        <time>2021-01-17T14:41:46Z</time>
      </trkpt>
      <trkpt lat="43.13107" lon="6.13254">
        <ele>148.51171875</ele>
        <time>2021-01-17T14:41:47Z</time>
      </trkpt>
      <trkpt lat="43.13106" lon="6.13249">
        <ele>148.0078125</ele>
        <time>2021-01-17T14:41:48Z</time>
      </trkpt>
      <trkpt lat="43.13104" lon="6.13246">
        <ele>147.7578125</ele>
        <time>2021-01-17T14:41:49Z</time>
      </trkpt>
      <trkpt lat="43.13102" lon="6.13243">
        <ele>147.65234375</ele>
        <time>2021-01-17T14:41:50Z</time>
      </trkpt>
      <trkpt lat="43.13088" lon="6.1322">
        <ele>146.44921875</ele>
        <time>2021-01-17T14:42:00Z</time>
      </trkpt>
      <trkpt lat="43.13087" lon="6.13216">
        <ele>146.2421875</ele>
        <time>2021-01-17T14:42:01Z</time>
      </trkpt>
      <trkpt lat="43.13082" lon="6.13183">
        <ele>144.05078125</ele>
        <time>2021-01-17T14:42:11Z</time>
      </trkpt>
      <trkpt lat="43.13081" lon="6.1318">
        <ele>143.95703125</ele>
        <time>2021-01-17T14:42:12Z</time>
      </trkpt>
      <trkpt lat="43.13081" lon="6.13176">
        <ele>143.73046875</ele>
        <time>2021-01-17T14:42:13Z</time>
      </trkpt>
      <trkpt lat="43.13077" lon="6.13124">
        <ele>143.3203125</ele>
        <time>2021-01-17T14:42:24Z</time>
      </trkpt>
      <trkpt lat="43.13072" lon="6.13107">
        <ele>144.765625</ele>
        <time>2021-01-17T14:42:32Z</time>
      </trkpt>
      <trkpt lat="43.13071" lon="6.131">
        <ele>144.9140625</ele>
        <time>2021-01-17T14:42:43Z</time>
      </trkpt>
      <trkpt lat="43.13071" lon="6.13097">
        <ele>145.03125</ele>
        <time>2021-01-17T14:42:44Z</time>
      </trkpt>
      <trkpt lat="43.13063" lon="6.13069">
        <ele>148.11328125</ele>
        <time>2021-01-17T14:42:55Z</time>
      </trkpt>
      <trkpt lat="43.1305" lon="6.13027">
        <ele>151.0625</ele>
        <time>2021-01-17T14:43:05Z</time>
      </trkpt>
      <trkpt lat="43.13048" lon="6.13022">
        <ele>151.31640625</ele>
        <time>2021-01-17T14:43:06Z</time>
      </trkpt>
      <trkpt lat="43.13046" lon="6.13017">
        <ele>151.6640625</ele>
        <time>2021-01-17T14:43:07Z</time>
      </trkpt>
      <trkpt lat="43.13044" lon="6.13011">
        <ele>151.62890625</ele>
        <time>2021-01-17T14:43:08Z</time>
      </trkpt>
      <trkpt lat="43.13042" lon="6.13006">
        <ele>151.63671875</ele>
        <time>2021-01-17T14:43:09Z</time>
      </trkpt>
      <trkpt lat="43.13039" lon="6.13002">
        <ele>151.8125</ele>
        <time>2021-01-17T14:43:10Z</time>
      </trkpt>
      <trkpt lat="43.13036" lon="6.12997">
        <ele>151.7421875</ele>
        <time>2021-01-17T14:43:11Z</time>
      </trkpt>
      <trkpt lat="43.13032" lon="6.12992">
        <ele>151.67578125</ele>
        <time>2021-01-17T14:43:12Z</time>
      </trkpt>
      <trkpt lat="43.13025" lon="6.12983">
        <ele>151.94140625</ele>
        <time>2021-01-17T14:43:14Z</time>
      </trkpt>
      <trkpt lat="43.13018" lon="6.12975">
        <ele>152.49609375</ele>
        <time>2021-01-17T14:43:16Z</time>
      </trkpt>
      <trkpt lat="43.13016" lon="6.1297">
        <ele>152.53515625</ele>
        <time>2021-01-17T14:43:17Z</time>
      </trkpt>
      <trkpt lat="43.13014" lon="6.12964">
        <ele>152.52734375</ele>
        <time>2021-01-17T14:43:18Z</time>
      </trkpt>
      <trkpt lat="43.1301" lon="6.12953">
        <ele>152.08203125</ele>
        <time>2021-01-17T14:43:21Z</time>
      </trkpt>
      <trkpt lat="43.13003" lon="6.12934">
        <ele>150.39453125</ele>
        <time>2021-01-17T14:43:27Z</time>
      </trkpt>
      <trkpt lat="43.13001" lon="6.12929">
        <ele>149.96875</ele>
        <time>2021-01-17T14:43:28Z</time>
      </trkpt>
      <trkpt lat="43.12995" lon="6.12917">
        <ele>149.23828125</ele>
        <time>2021-01-17T14:43:30Z</time>
      </trkpt>
      <trkpt lat="43.12991" lon="6.12912">
        <ele>149.2421875</ele>
        <time>2021-01-17T14:43:31Z</time>
      </trkpt>
      <trkpt lat="43.12987" lon="6.12907">
        <ele>149.546875</ele>
        <time>2021-01-17T14:43:32Z</time>
      </trkpt>
      <trkpt lat="43.12978" lon="6.12897">
        <ele>149.75</ele>
        <time>2021-01-17T14:43:34Z</time>
      </trkpt>
      <trkpt lat="43.12974" lon="6.12891">
        <ele>149.796875</ele>
        <time>2021-01-17T14:43:35Z</time>
      </trkpt>
      <trkpt lat="43.12969" lon="6.12886">
        <ele>150.20703125</ele>
        <time>2021-01-17T14:43:36Z</time>
      </trkpt>
      <trkpt lat="43.12949" lon="6.12864">
        <ele>151.06640625</ele>
        <time>2021-01-17T14:43:40Z</time>
      </trkpt>
      <trkpt lat="43.12935" lon="6.1285">
        <ele>150.4140625</ele>
        <time>2021-01-17T14:43:43Z</time>
      </trkpt>
      <trkpt lat="43.1293" lon="6.12846">
        <ele>150.41796875</ele>
        <time>2021-01-17T14:43:44Z</time>
      </trkpt>
      <trkpt lat="43.12925" lon="6.12842">
        <ele>150.46875</ele>
        <time>2021-01-17T14:43:45Z</time>
      </trkpt>
      <trkpt lat="43.1292" lon="6.12839">
        <ele>150.49609375</ele>
        <time>2021-01-17T14:43:46Z</time>
      </trkpt>
      <trkpt lat="43.12916" lon="6.12835">
        <ele>150.5625</ele>
        <time>2021-01-17T14:43:47Z</time>
      </trkpt>
      <trkpt lat="43.12914" lon="6.12831">
        <ele>150.58203125</ele>
        <time>2021-01-17T14:43:48Z</time>
      </trkpt>
      <trkpt lat="43.12912" lon="6.12829">
        <ele>150.5859375</ele>
        <time>2021-01-17T14:43:49Z</time>
      </trkpt>
      <trkpt lat="43.12909" lon="6.12826">
        <ele>150.87109375</ele>
        <time>2021-01-17T14:43:57Z</time>
      </trkpt>
      <trkpt lat="43.12907" lon="6.12827">
        <ele>151.1796875</ele>
        <time>2021-01-17T14:43:59Z</time>
      </trkpt>
      <trkpt lat="43.12904" lon="6.12832">
        <ele>151.6015625</ele>
        <time>2021-01-17T14:44:11Z</time>
      </trkpt>
      <trkpt lat="43.12897" lon="6.12836">
        <ele>151.60546875</ele>
        <time>2021-01-17T14:44:15Z</time>
      </trkpt>
      <trkpt lat="43.12895" lon="6.12836">
        <ele>151.32421875</ele>
        <time>2021-01-17T14:44:16Z</time>
      </trkpt>
      <trkpt lat="43.12892" lon="6.12835">
        <ele>151.01171875</ele>
        <time>2021-01-17T14:44:17Z</time>
      </trkpt>
      <trkpt lat="43.12889" lon="6.12835">
        <ele>150.671875</ele>
        <time>2021-01-17T14:44:18Z</time>
      </trkpt>
      <trkpt lat="43.12876" lon="6.12836">
        <ele>148.90234375</ele>
        <time>2021-01-17T14:44:23Z</time>
      </trkpt>
      <trkpt lat="43.12874" lon="6.12836">
        <ele>148.64453125</ele>
        <time>2021-01-17T14:44:37Z</time>
      </trkpt>
      <trkpt lat="43.12874" lon="6.12836">
        <ele>148.64453125</ele>
        <time>2021-01-17T14:44:50Z</time>
      </trkpt>
      <trkpt lat="43.12872" lon="6.12835">
        <ele>148.46484375</ele>
        <time>2021-01-17T14:45:19Z</time>
      </trkpt>
      <trkpt lat="43.12864" lon="6.12836">
        <ele>147.33984375</ele>
        <time>2021-01-17T14:45:21Z</time>
      </trkpt>
      <trkpt lat="43.12859" lon="6.12836">
        <ele>146.65234375</ele>
        <time>2021-01-17T14:45:22Z</time>
      </trkpt>
      <trkpt lat="43.12856" lon="6.12835">
        <ele>146.3359375</ele>
        <time>2021-01-17T14:45:23Z</time>
      </trkpt>
      <trkpt lat="43.12854" lon="6.12834">
        <ele>146.30859375</ele>
        <time>2021-01-17T14:45:24Z</time>
      </trkpt>
      <trkpt lat="43.12852" lon="6.12833">
        <ele>146.3671875</ele>
        <time>2021-01-17T14:45:25Z</time>
      </trkpt>
      <trkpt lat="43.1285" lon="6.12833">
        <ele>146.12890625</ele>
        <time>2021-01-17T14:45:26Z</time>
      </trkpt>
      <trkpt lat="43.12848" lon="6.12834">
        <ele>145.5703125</ele>
        <time>2021-01-17T14:45:27Z</time>
      </trkpt>
      <trkpt lat="43.12845" lon="6.12834">
        <ele>145.12890625</ele>
        <time>2021-01-17T14:45:28Z</time>
      </trkpt>
      <trkpt lat="43.12841" lon="6.12833">
        <ele>144.88671875</ele>
        <time>2021-01-17T14:45:29Z</time>
      </trkpt>
      <trkpt lat="43.12838" lon="6.12833">
        <ele>144.63671875</ele>
        <time>2021-01-17T14:45:30Z</time>
      </trkpt>
      <trkpt lat="43.12835" lon="6.12832">
        <ele>144.27734375</ele>
        <time>2021-01-17T14:45:31Z</time>
      </trkpt>
      <trkpt lat="43.12833" lon="6.12833">
        <ele>143.84765625</ele>
        <time>2021-01-17T14:45:32Z</time>
      </trkpt>
      <trkpt lat="43.1283" lon="6.12833">
        <ele>143.3671875</ele>
        <time>2021-01-17T14:45:33Z</time>
      </trkpt>
      <trkpt lat="43.12828" lon="6.12833">
        <ele>143.1171875</ele>
        <time>2021-01-17T14:45:34Z</time>
      </trkpt>
      <trkpt lat="43.12825" lon="6.12833">
        <ele>142.75</ele>
        <time>2021-01-17T14:45:42Z</time>
      </trkpt>
      <trkpt lat="43.12811" lon="6.12831">
        <ele>141.69921875</ele>
        <time>2021-01-17T14:45:49Z</time>
      </trkpt>
      <trkpt lat="43.12781" lon="6.12827">
        <ele>140.75</ele>
        <time>2021-01-17T14:45:59Z</time>
      </trkpt>
      <trkpt lat="43.12773" lon="6.12824">
        <ele>141.1484375</ele>
        <time>2021-01-17T14:46:03Z</time>
      </trkpt>
      <trkpt lat="43.12763" lon="6.12809">
        <ele>144.6484375</ele>
        <time>2021-01-17T14:46:08Z</time>
      </trkpt>
      <trkpt lat="43.12762" lon="6.12805">
        <ele>145.7734375</ele>
        <time>2021-01-17T14:46:09Z</time>
      </trkpt>
      <trkpt lat="43.12761" lon="6.12801">
        <ele>146.66015625</ele>
        <time>2021-01-17T14:46:10Z</time>
      </trkpt>
      <trkpt lat="43.12759" lon="6.12797">
        <ele>147.35546875</ele>
        <time>2021-01-17T14:46:11Z</time>
      </trkpt>
      <trkpt lat="43.12758" lon="6.12793">
        <ele>148.01171875</ele>
        <time>2021-01-17T14:46:12Z</time>
      </trkpt>
      <trkpt lat="43.12757" lon="6.12789">
        <ele>148.36328125</ele>
        <time>2021-01-17T14:46:13Z</time>
      </trkpt>
      <trkpt lat="43.12751" lon="6.12778">
        <ele>148.78125</ele>
        <time>2021-01-17T14:46:16Z</time>
      </trkpt>
      <trkpt lat="43.12747" lon="6.12773">
        <ele>148.37890625</ele>
        <time>2021-01-17T14:46:17Z</time>
      </trkpt>
      <trkpt lat="43.12741" lon="6.12766">
        <ele>147.33203125</ele>
        <time>2021-01-17T14:46:19Z</time>
      </trkpt>
      <trkpt lat="43.12739" lon="6.12764">
        <ele>146.49609375</ele>
        <time>2021-01-17T14:46:20Z</time>
      </trkpt>
      <trkpt lat="43.12736" lon="6.12762">
        <ele>145.88671875</ele>
        <time>2021-01-17T14:46:21Z</time>
      </trkpt>
      <trkpt lat="43.12734" lon="6.1276">
        <ele>145.2265625</ele>
        <time>2021-01-17T14:46:22Z</time>
      </trkpt>
      <trkpt lat="43.12731" lon="6.12758">
        <ele>144.3125</ele>
        <time>2021-01-17T14:46:23Z</time>
      </trkpt>
      <trkpt lat="43.12728" lon="6.12756">
        <ele>143.5546875</ele>
        <time>2021-01-17T14:46:24Z</time>
      </trkpt>
      <trkpt lat="43.12726" lon="6.12753">
        <ele>143.23046875</ele>
        <time>2021-01-17T14:46:25Z</time>
      </trkpt>
      <trkpt lat="43.12725" lon="6.12751">
        <ele>143.109375</ele>
        <time>2021-01-17T14:46:26Z</time>
      </trkpt>
      <trkpt lat="43.1272" lon="6.12737">
        <ele>143.25390625</ele>
        <time>2021-01-17T14:46:30Z</time>
      </trkpt>
      <trkpt lat="43.12716" lon="6.12696">
        <ele>146.11328125</ele>
        <time>2021-01-17T14:46:38Z</time>
      </trkpt>
      <trkpt lat="43.12713" lon="6.12669">
        <ele>146.32421875</ele>
        <time>2021-01-17T14:46:43Z</time>
      </trkpt>
      <trkpt lat="43.12713" lon="6.12663">
        <ele>146.5546875</ele>
        <time>2021-01-17T14:46:44Z</time>
      </trkpt>
      <trkpt lat="43.12712" lon="6.12646">
        <ele>147.37109375</ele>
        <time>2021-01-17T14:46:48Z</time>
      </trkpt>
      <trkpt lat="43.12711" lon="6.12644">
        <ele>147.08203125</ele>
        <time>2021-01-17T14:46:49Z</time>
      </trkpt>
      <trkpt lat="43.1271" lon="6.12642">
        <ele>146.66015625</ele>
        <time>2021-01-17T14:46:50Z</time>
      </trkpt>
      <trkpt lat="43.12708" lon="6.1264">
        <ele>146.16015625</ele>
        <time>2021-01-17T14:46:51Z</time>
      </trkpt>
      <trkpt lat="43.12707" lon="6.12639">
        <ele>145.63671875</ele>
        <time>2021-01-17T14:46:52Z</time>
      </trkpt>
      <trkpt lat="43.12705" lon="6.12637">
        <ele>145.01953125</ele>
        <time>2021-01-17T14:46:53Z</time>
      </trkpt>
      <trkpt lat="43.12703" lon="6.12636">
        <ele>144.23046875</ele>
        <time>2021-01-17T14:46:54Z</time>
      </trkpt>
      <trkpt lat="43.12701" lon="6.12635">
        <ele>143.375</ele>
        <time>2021-01-17T14:46:55Z</time>
      </trkpt>
      <trkpt lat="43.12698" lon="6.12633">
        <ele>142.4296875</ele>
        <time>2021-01-17T14:46:56Z</time>
      </trkpt>
      <trkpt lat="43.12695" lon="6.12632">
        <ele>141.40625</ele>
        <time>2021-01-17T14:46:57Z</time>
      </trkpt>
      <trkpt lat="43.12693" lon="6.12631">
        <ele>140.5390625</ele>
        <time>2021-01-17T14:46:58Z</time>
      </trkpt>
      <trkpt lat="43.12691" lon="6.1263">
        <ele>139.69140625</ele>
        <time>2021-01-17T14:46:59Z</time>
      </trkpt>
      <trkpt lat="43.12668" lon="6.12617">
        <ele>133.98046875</ele>
        <time>2021-01-17T14:47:08Z</time>
      </trkpt>
      <trkpt lat="43.12666" lon="6.12614">
        <ele>134.1015625</ele>
        <time>2021-01-17T14:47:09Z</time>
      </trkpt>
      <trkpt lat="43.1264" lon="6.1258">
        <ele>134.3828125</ele>
        <time>2021-01-17T14:47:20Z</time>
      </trkpt>
      <trkpt lat="43.12614" lon="6.12564">
        <ele>132.1953125</ele>
        <time>2021-01-17T14:47:27Z</time>
      </trkpt>
      <trkpt lat="43.12595" lon="6.12547">
        <ele>133.1640625</ele>
        <time>2021-01-17T14:47:33Z</time>
      </trkpt>
      <trkpt lat="43.12593" lon="6.12543">
        <ele>133.94921875</ele>
        <time>2021-01-17T14:47:34Z</time>
      </trkpt>
      <trkpt lat="43.12593" lon="6.12539">
        <ele>134.44140625</ele>
        <time>2021-01-17T14:47:35Z</time>
      </trkpt>
      <trkpt lat="43.12593" lon="6.12536">
        <ele>134.92578125</ele>
        <time>2021-01-17T14:47:36Z</time>
      </trkpt>
      <trkpt lat="43.12595" lon="6.12534">
        <ele>135.38671875</ele>
        <time>2021-01-17T14:47:37Z</time>
      </trkpt>
      <trkpt lat="43.12598" lon="6.12533">
        <ele>135.85546875</ele>
        <time>2021-01-17T14:47:38Z</time>
      </trkpt>
      <trkpt lat="43.126" lon="6.12532">
        <ele>136.26171875</ele>
        <time>2021-01-17T14:47:39Z</time>
      </trkpt>
      <trkpt lat="43.12602" lon="6.12531">
        <ele>136.68359375</ele>
        <time>2021-01-17T14:47:40Z</time>
      </trkpt>
      <trkpt lat="43.12604" lon="6.12529">
        <ele>137.08984375</ele>
        <time>2021-01-17T14:47:41Z</time>
      </trkpt>
      <trkpt lat="43.12606" lon="6.12525">
        <ele>137.7421875</ele>
        <time>2021-01-17T14:47:43Z</time>
      </trkpt>
      <trkpt lat="43.12606" lon="6.12523">
        <ele>137.9921875</ele>
        <time>2021-01-17T14:47:44Z</time>
      </trkpt>
      <trkpt lat="43.12604" lon="6.12521">
        <ele>138.0703125</ele>
        <time>2021-01-17T14:47:45Z</time>
      </trkpt>
      <trkpt lat="43.12603" lon="6.12521">
        <ele>137.94921875</ele>
        <time>2021-01-17T14:47:46Z</time>
      </trkpt>
      <trkpt lat="43.12601" lon="6.12521">
        <ele>137.79296875</ele>
        <time>2021-01-17T14:47:47Z</time>
      </trkpt>
      <trkpt lat="43.126" lon="6.12521">
        <ele>137.7109375</ele>
        <time>2021-01-17T14:47:48Z</time>
      </trkpt>
      <trkpt lat="43.12598" lon="6.12521">
        <ele>137.51171875</ele>
        <time>2021-01-17T14:48:04Z</time>
      </trkpt>
      <trkpt lat="43.12598" lon="6.1252">
        <ele>137.625</ele>
        <time>2021-01-17T14:48:35Z</time>
      </trkpt>
      <trkpt lat="43.12598" lon="6.12522">
        <ele>137.4140625</ele>
        <time>2021-01-17T14:49:14Z</time>
      </trkpt>
      <trkpt lat="43.12598" lon="6.12522">
        <ele>137.4296875</ele>
        <time>2021-01-17T14:49:46Z</time>
      </trkpt>
      <trkpt lat="43.12598" lon="6.12522">
        <ele>137.41796875</ele>
        <time>2021-01-17T14:50:00Z</time>
      </trkpt>
      <trkpt lat="43.12596" lon="6.12521">
        <ele>137.41796875</ele>
        <time>2021-01-17T14:50:01Z</time>
      </trkpt>
      <trkpt lat="43.12593" lon="6.12518">
        <ele>137.59375</ele>
        <time>2021-01-17T14:50:14Z</time>
      </trkpt>
      <trkpt lat="43.12577" lon="6.12509">
        <ele>137.33984375</ele>
        <time>2021-01-17T14:50:22Z</time>
      </trkpt>
      <trkpt lat="43.12566" lon="6.12503">
        <ele>137.40625</ele>
        <time>2021-01-17T14:50:26Z</time>
      </trkpt>
      <trkpt lat="43.12564" lon="6.12502">
        <ele>137.78515625</ele>
        <time>2021-01-17T14:50:27Z</time>
      </trkpt>
      <trkpt lat="43.12559" lon="6.12502">
        <ele>138.32421875</ele>
        <time>2021-01-17T14:50:29Z</time>
      </trkpt>
      <trkpt lat="43.12541" lon="6.12523">
        <ele>137.4921875</ele>
        <time>2021-01-17T14:50:40Z</time>
      </trkpt>
      <trkpt lat="43.12533" lon="6.12527">
        <ele>137.67578125</ele>
        <time>2021-01-17T14:50:44Z</time>
      </trkpt>
      <trkpt lat="43.1253" lon="6.12526">
        <ele>138.07421875</ele>
        <time>2021-01-17T14:50:45Z</time>
      </trkpt>
      <trkpt lat="43.12522" lon="6.12517">
        <ele>140.72265625</ele>
        <time>2021-01-17T14:50:51Z</time>
      </trkpt>
      <trkpt lat="43.12521" lon="6.12514">
        <ele>141.17578125</ele>
        <time>2021-01-17T14:50:52Z</time>
      </trkpt>
      <trkpt lat="43.1252" lon="6.12506">
        <ele>142.3046875</ele>
        <time>2021-01-17T14:50:55Z</time>
      </trkpt>
      <trkpt lat="43.1252" lon="6.12504">
        <ele>142.65234375</ele>
        <time>2021-01-17T14:50:56Z</time>
      </trkpt>
      <trkpt lat="43.12518" lon="6.12497">
        <ele>143.7265625</ele>
        <time>2021-01-17T14:50:59Z</time>
      </trkpt>
      <trkpt lat="43.12517" lon="6.12497">
        <ele>144.00390625</ele>
        <time>2021-01-17T14:51:00Z</time>
      </trkpt>
      <trkpt lat="43.12516" lon="6.12497">
        <ele>144.08984375</ele>
        <time>2021-01-17T14:51:01Z</time>
      </trkpt>
      <trkpt lat="43.12514" lon="6.12499">
        <ele>144.05078125</ele>
        <time>2021-01-17T14:51:02Z</time>
      </trkpt>
      <trkpt lat="43.12513" lon="6.125">
        <ele>143.99609375</ele>
        <time>2021-01-17T14:51:03Z</time>
      </trkpt>
      <trkpt lat="43.12512" lon="6.12502">
        <ele>143.98828125</ele>
        <time>2021-01-17T14:51:04Z</time>
      </trkpt>
      <trkpt lat="43.1251" lon="6.12502">
        <ele>144.109375</ele>
        <time>2021-01-17T14:51:05Z</time>
      </trkpt>
      <trkpt lat="43.12501" lon="6.12504">
        <ele>145.14453125</ele>
        <time>2021-01-17T14:51:10Z</time>
      </trkpt>
      <trkpt lat="43.12499" lon="6.12504">
        <ele>145.40234375</ele>
        <time>2021-01-17T14:51:11Z</time>
      </trkpt>
      <trkpt lat="43.12487" lon="6.12499">
        <ele>147.8671875</ele>
        <time>2021-01-17T14:51:19Z</time>
      </trkpt>
      <trkpt lat="43.12486" lon="6.12498">
        <ele>148.1015625</ele>
        <time>2021-01-17T14:51:20Z</time>
      </trkpt>
      <trkpt lat="43.12486" lon="6.12497">
        <ele>148.40625</ele>
        <time>2021-01-17T14:51:21Z</time>
      </trkpt>
      <trkpt lat="43.12485" lon="6.12495">
        <ele>148.80078125</ele>
        <time>2021-01-17T14:51:22Z</time>
      </trkpt>
      <trkpt lat="43.12484" lon="6.12492">
        <ele>149.2421875</ele>
        <time>2021-01-17T14:51:23Z</time>
      </trkpt>
      <trkpt lat="43.12484" lon="6.1249">
        <ele>149.68359375</ele>
        <time>2021-01-17T14:51:24Z</time>
      </trkpt>
      <trkpt lat="43.12483" lon="6.12488">
        <ele>150.12890625</ele>
        <time>2021-01-17T14:51:25Z</time>
      </trkpt>
      <trkpt lat="43.12474" lon="6.12477">
        <ele>151.95703125</ele>
        <time>2021-01-17T14:51:34Z</time>
      </trkpt>
      <trkpt lat="43.1247" lon="6.12472">
        <ele>152.8515625</ele>
        <time>2021-01-17T14:51:39Z</time>
      </trkpt>
      <trkpt lat="43.12469" lon="6.12471">
        <ele>153.08984375</ele>
        <time>2021-01-17T14:51:40Z</time>
      </trkpt>
      <trkpt lat="43.12468" lon="6.12469">
        <ele>153.3671875</ele>
        <time>2021-01-17T14:51:41Z</time>
      </trkpt>
      <trkpt lat="43.12467" lon="6.12467">
        <ele>153.65234375</ele>
        <time>2021-01-17T14:51:42Z</time>
      </trkpt>
      <trkpt lat="43.12466" lon="6.12465">
        <ele>153.91796875</ele>
        <time>2021-01-17T14:51:43Z</time>
      </trkpt>
      <trkpt lat="43.12465" lon="6.12463">
        <ele>154.2109375</ele>
        <time>2021-01-17T14:51:44Z</time>
      </trkpt>
      <trkpt lat="43.1246" lon="6.12457">
        <ele>155.12109375</ele>
        <time>2021-01-17T14:51:48Z</time>
      </trkpt>
      <trkpt lat="43.12456" lon="6.12443">
        <ele>155.84765625</ele>
        <time>2021-01-17T14:51:54Z</time>
      </trkpt>
      <trkpt lat="43.12445" lon="6.12398">
        <ele>156.65625</ele>
        <time>2021-01-17T14:52:09Z</time>
      </trkpt>
      <trkpt lat="43.12436" lon="6.12385">
        <ele>157.984375</ele>
        <time>2021-01-17T14:52:17Z</time>
      </trkpt>
      <trkpt lat="43.12434" lon="6.12385">
        <ele>158.67578125</ele>
        <time>2021-01-17T14:52:18Z</time>
      </trkpt>
      <trkpt lat="43.12423" lon="6.12386">
        <ele>163.32421875</ele>
        <time>2021-01-17T14:52:29Z</time>
      </trkpt>
      <trkpt lat="43.12424" lon="6.12384">
        <ele>162.52734375</ele>
        <time>2021-01-17T14:52:45Z</time>
      </trkpt>
      <trkpt lat="43.12426" lon="6.12385">
        <ele>161.76953125</ele>
        <time>2021-01-17T14:52:51Z</time>
      </trkpt>
      <trkpt lat="43.12428" lon="6.12384">
        <ele>160.828125</ele>
        <time>2021-01-17T14:52:52Z</time>
      </trkpt>
      <trkpt lat="43.1243" lon="6.12384">
        <ele>159.9921875</ele>
        <time>2021-01-17T14:52:53Z</time>
      </trkpt>
      <trkpt lat="43.12432" lon="6.12383">
        <ele>159.19921875</ele>
        <time>2021-01-17T14:52:54Z</time>
      </trkpt>
      <trkpt lat="43.12438" lon="6.12385">
        <ele>157.26171875</ele>
        <time>2021-01-17T14:52:56Z</time>
      </trkpt>
      <trkpt lat="43.12442" lon="6.12388">
        <ele>156.40234375</ele>
        <time>2021-01-17T14:52:57Z</time>
      </trkpt>
      <trkpt lat="43.12444" lon="6.12392">
        <ele>156.078125</ele>
        <time>2021-01-17T14:52:58Z</time>
      </trkpt>
      <trkpt lat="43.12446" lon="6.12398">
        <ele>156.2109375</ele>
        <time>2021-01-17T14:52:59Z</time>
      </trkpt>
      <trkpt lat="43.12447" lon="6.12404">
        <ele>156.70703125</ele>
        <time>2021-01-17T14:53:00Z</time>
      </trkpt>
      <trkpt lat="43.12448" lon="6.12412">
        <ele>156.97265625</ele>
        <time>2021-01-17T14:53:01Z</time>
      </trkpt>
      <trkpt lat="43.12451" lon="6.12431">
        <ele>157.39453125</ele>
        <time>2021-01-17T14:53:04Z</time>
      </trkpt>
      <trkpt lat="43.12452" lon="6.12436">
        <ele>156.99609375</ele>
        <time>2021-01-17T14:53:05Z</time>
      </trkpt>
      <trkpt lat="43.12453" lon="6.12441">
        <ele>156.640625</ele>
        <time>2021-01-17T14:53:06Z</time>
      </trkpt>
      <trkpt lat="43.12454" lon="6.12447">
        <ele>156.4296875</ele>
        <time>2021-01-17T14:53:07Z</time>
      </trkpt>
      <trkpt lat="43.12455" lon="6.12451">
        <ele>156.16796875</ele>
        <time>2021-01-17T14:53:08Z</time>
      </trkpt>
      <trkpt lat="43.12456" lon="6.12454">
        <ele>155.88671875</ele>
        <time>2021-01-17T14:53:09Z</time>
      </trkpt>
      <trkpt lat="43.1247" lon="6.12481">
        <ele>152.359375</ele>
        <time>2021-01-17T14:53:16Z</time>
      </trkpt>
      <trkpt lat="43.12471" lon="6.12486">
        <ele>151.95703125</ele>
        <time>2021-01-17T14:53:17Z</time>
      </trkpt>
      <trkpt lat="43.12471" lon="6.1249">
        <ele>151.52734375</ele>
        <time>2021-01-17T14:53:18Z</time>
      </trkpt>
      <trkpt lat="43.12471" lon="6.12493">
        <ele>151.125</ele>
        <time>2021-01-17T14:53:19Z</time>
      </trkpt>
      <trkpt lat="43.1247" lon="6.12495">
        <ele>150.97265625</ele>
        <time>2021-01-17T14:53:20Z</time>
      </trkpt>
      <trkpt lat="43.12465" lon="6.12503">
        <ele>150.53125</ele>
        <time>2021-01-17T14:53:24Z</time>
      </trkpt>
      <trkpt lat="43.12451" lon="6.12525">
        <ele>148.6796875</ele>
        <time>2021-01-17T14:53:37Z</time>
      </trkpt>
      <trkpt lat="43.12452" lon="6.12527">
        <ele>148.35546875</ele>
        <time>2021-01-17T14:54:03Z</time>
      </trkpt>
      <trkpt lat="43.12453" lon="6.12525">
        <ele>148.57421875</ele>
        <time>2021-01-17T14:54:24Z</time>
      </trkpt>
      <trkpt lat="43.12452" lon="6.12523">
        <ele>149.05078125</ele>
        <time>2021-01-17T14:54:35Z</time>
      </trkpt>
      <trkpt lat="43.1245" lon="6.12521">
        <ele>149.63671875</ele>
        <time>2021-01-17T14:54:53Z</time>
      </trkpt>
      <trkpt lat="43.12449" lon="6.12519">
        <ele>150.1796875</ele>
        <time>2021-01-17T14:55:07Z</time>
      </trkpt>
      <trkpt lat="43.12448" lon="6.12518">
        <ele>150.3515625</ele>
        <time>2021-01-17T14:55:08Z</time>
      </trkpt>
      <trkpt lat="43.12447" lon="6.12519">
        <ele>150.390625</ele>
        <time>2021-01-17T14:55:09Z</time>
      </trkpt>
      <trkpt lat="43.12445" lon="6.1252">
        <ele>150.32421875</ele>
        <time>2021-01-17T14:55:10Z</time>
      </trkpt>
      <trkpt lat="43.12444" lon="6.12521">
        <ele>150.30078125</ele>
        <time>2021-01-17T14:55:11Z</time>
      </trkpt>
      <trkpt lat="43.12442" lon="6.12521">
        <ele>150.35546875</ele>
        <time>2021-01-17T14:55:12Z</time>
      </trkpt>
      <trkpt lat="43.1244" lon="6.12522">
        <ele>150.453125</ele>
        <time>2021-01-17T14:55:13Z</time>
      </trkpt>
      <trkpt lat="43.12406" lon="6.12525">
        <ele>151.265625</ele>
        <time>2021-01-17T14:55:24Z</time>
      </trkpt>
      <trkpt lat="43.12387" lon="6.12522">
        <ele>151.328125</ele>
        <time>2021-01-17T14:55:31Z</time>
      </trkpt>
      <trkpt lat="43.12385" lon="6.1252">
        <ele>151.73046875</ele>
        <time>2021-01-17T14:55:32Z</time>
      </trkpt>
      <trkpt lat="43.12384" lon="6.12517">
        <ele>152.359375</ele>
        <time>2021-01-17T14:55:33Z</time>
      </trkpt>
      <trkpt lat="43.12383" lon="6.12515">
        <ele>152.8125</ele>
        <time>2021-01-17T14:55:34Z</time>
      </trkpt>
      <trkpt lat="43.12382" lon="6.12514">
        <ele>153.17578125</ele>
        <time>2021-01-17T14:55:35Z</time>
      </trkpt>
      <trkpt lat="43.1238" lon="6.12504">
        <ele>155.95703125</ele>
        <time>2021-01-17T14:55:47Z</time>
      </trkpt>
      <trkpt lat="43.1238" lon="6.12504">
        <ele>156.2421875</ele>
        <time>2021-01-17T14:55:48Z</time>
      </trkpt>
      <trkpt lat="43.12379" lon="6.12502">
        <ele>156.6484375</ele>
        <time>2021-01-17T14:56:01Z</time>
      </trkpt>
      <trkpt lat="43.12377" lon="6.12493">
        <ele>159.3984375</ele>
        <time>2021-01-17T14:56:12Z</time>
      </trkpt>
      <trkpt lat="43.12377" lon="6.12492">
        <ele>159.84375</ele>
        <time>2021-01-17T14:56:13Z</time>
      </trkpt>
      <trkpt lat="43.12383" lon="6.12496">
        <ele>158.6484375</ele>
        <time>2021-01-17T14:56:28Z</time>
      </trkpt>
      <trkpt lat="43.12383" lon="6.12491">
        <ele>160.125</ele>
        <time>2021-01-17T14:56:39Z</time>
      </trkpt>
      <trkpt lat="43.12382" lon="6.12487">
        <ele>161.1796875</ele>
        <time>2021-01-17T14:56:42Z</time>
      </trkpt>
      <trkpt lat="43.12382" lon="6.12485">
        <ele>161.765625</ele>
        <time>2021-01-17T14:56:43Z</time>
      </trkpt>
      <trkpt lat="43.12382" lon="6.12483">
        <ele>162.4140625</ele>
        <time>2021-01-17T14:56:44Z</time>
      </trkpt>
      <trkpt lat="43.12381" lon="6.12481">
        <ele>162.9921875</ele>
        <time>2021-01-17T14:56:45Z</time>
      </trkpt>
      <trkpt lat="43.12381" lon="6.1248">
        <ele>163.546875</ele>
        <time>2021-01-17T14:56:46Z</time>
      </trkpt>
      <trkpt lat="43.12382" lon="6.12475">
        <ele>164.8828125</ele>
        <time>2021-01-17T14:56:53Z</time>
      </trkpt>
      <trkpt lat="43.12383" lon="6.12475">
        <ele>164.69921875</ele>
        <time>2021-01-17T14:56:54Z</time>
      </trkpt>
      <trkpt lat="43.12384" lon="6.12476">
        <ele>164.4375</ele>
        <time>2021-01-17T14:56:55Z</time>
      </trkpt>
      <trkpt lat="43.12385" lon="6.12477">
        <ele>164.23828125</ele>
        <time>2021-01-17T14:56:56Z</time>
      </trkpt>
      <trkpt lat="43.12393" lon="6.12479">
        <ele>163.3046875</ele>
        <time>2021-01-17T14:57:02Z</time>
      </trkpt>
      <trkpt lat="43.12401" lon="6.12482">
        <ele>162.4140625</ele>
        <time>2021-01-17T14:57:08Z</time>
      </trkpt>
      <trkpt lat="43.12401" lon="6.12476">
        <ele>163.953125</ele>
        <time>2021-01-17T14:57:12Z</time>
      </trkpt>
      <trkpt lat="43.12398" lon="6.12473">
        <ele>164.79296875</ele>
        <time>2021-01-17T14:57:14Z</time>
      </trkpt>
      <trkpt lat="43.12396" lon="6.1247">
        <ele>165.76953125</ele>
        <time>2021-01-17T14:57:16Z</time>
      </trkpt>
      <trkpt lat="43.12394" lon="6.12468">
        <ele>166.265625</ele>
        <time>2021-01-17T14:57:17Z</time>
      </trkpt>
      <trkpt lat="43.12365" lon="6.12441">
        <ele>173.39453125</ele>
        <time>2021-01-17T14:57:29Z</time>
      </trkpt>
      <trkpt lat="43.1236" lon="6.12436">
        <ele>173.87890625</ele>
        <time>2021-01-17T14:57:36Z</time>
      </trkpt>
      <trkpt lat="43.1236" lon="6.12437">
        <ele>173.62890625</ele>
        <time>2021-01-17T14:57:45Z</time>
      </trkpt>
      <trkpt lat="43.12358" lon="6.12439">
        <ele>172.80078125</ele>
        <time>2021-01-17T14:58:09Z</time>
      </trkpt>
      <trkpt lat="43.12357" lon="6.12442">
        <ele>171.71484375</ele>
        <time>2021-01-17T14:58:42Z</time>
      </trkpt>
      <trkpt lat="43.12358" lon="6.12445">
        <ele>171.34375</ele>
        <time>2021-01-17T14:58:43Z</time>
      </trkpt>
      <trkpt lat="43.1236" lon="6.12447">
        <ele>171</ele>
        <time>2021-01-17T14:58:44Z</time>
      </trkpt>
      <trkpt lat="43.12364" lon="6.12452">
        <ele>170.44921875</ele>
        <time>2021-01-17T14:58:46Z</time>
      </trkpt>
      <trkpt lat="43.12366" lon="6.12454">
        <ele>170.42578125</ele>
        <time>2021-01-17T14:58:47Z</time>
      </trkpt>
      <trkpt lat="43.12368" lon="6.12456">
        <ele>170.203125</ele>
        <time>2021-01-17T14:58:48Z</time>
      </trkpt>
      <trkpt lat="43.12399" lon="6.12489">
        <ele>160.74609375</ele>
        <time>2021-01-17T14:58:57Z</time>
      </trkpt>
      <trkpt lat="43.12402" lon="6.12489">
        <ele>160.4921875</ele>
        <time>2021-01-17T14:58:58Z</time>
      </trkpt>
      <trkpt lat="43.12406" lon="6.12488">
        <ele>160.41796875</ele>
        <time>2021-01-17T14:58:59Z</time>
      </trkpt>
      <trkpt lat="43.12409" lon="6.12487">
        <ele>160.2734375</ele>
        <time>2021-01-17T14:59:00Z</time>
      </trkpt>
      <trkpt lat="43.12412" lon="6.12486">
        <ele>160.15234375</ele>
        <time>2021-01-17T14:59:01Z</time>
      </trkpt>
      <trkpt lat="43.12416" lon="6.12481">
        <ele>160.51171875</ele>
        <time>2021-01-17T14:59:02Z</time>
      </trkpt>
      <trkpt lat="43.1242" lon="6.12477">
        <ele>160.7265625</ele>
        <time>2021-01-17T14:59:03Z</time>
      </trkpt>
      <trkpt lat="43.12424" lon="6.12472">
        <ele>160.8828125</ele>
        <time>2021-01-17T14:59:04Z</time>
      </trkpt>
      <trkpt lat="43.12428" lon="6.12467">
        <ele>160.953125</ele>
        <time>2021-01-17T14:59:05Z</time>
      </trkpt>
      <trkpt lat="43.12436" lon="6.12462">
        <ele>160.015625</ele>
        <time>2021-01-17T14:59:07Z</time>
      </trkpt>
      <trkpt lat="43.12447" lon="6.12469">
        <ele>156.9765625</ele>
        <time>2021-01-17T14:59:13Z</time>
      </trkpt>
      <trkpt lat="43.12449" lon="6.12472">
        <ele>156.375</ele>
        <time>2021-01-17T14:59:14Z</time>
      </trkpt>
      <trkpt lat="43.12455" lon="6.12479">
        <ele>154.8671875</ele>
        <time>2021-01-17T14:59:17Z</time>
      </trkpt>
      <trkpt lat="43.12457" lon="6.12479">
        <ele>154.48046875</ele>
        <time>2021-01-17T14:59:18Z</time>
      </trkpt>
      <trkpt lat="43.12458" lon="6.1248">
        <ele>154.23828125</ele>
        <time>2021-01-17T14:59:19Z</time>
      </trkpt>
      <trkpt lat="43.12458" lon="6.12482">
        <ele>154.1796875</ele>
        <time>2021-01-17T14:59:21Z</time>
      </trkpt>
      <trkpt lat="43.12456" lon="6.12483">
        <ele>154.3203125</ele>
        <time>2021-01-17T14:59:23Z</time>
      </trkpt>
      <trkpt lat="43.12451" lon="6.12491">
        <ele>154.3203125</ele>
        <time>2021-01-17T14:59:30Z</time>
      </trkpt>
      <trkpt lat="43.12454" lon="6.12489">
        <ele>154.0546875</ele>
        <time>2021-01-17T14:59:32Z</time>
      </trkpt>
      <trkpt lat="43.12457" lon="6.12488">
        <ele>153.75</ele>
        <time>2021-01-17T14:59:33Z</time>
      </trkpt>
      <trkpt lat="43.12459" lon="6.12489">
        <ele>153.36328125</ele>
        <time>2021-01-17T14:59:34Z</time>
      </trkpt>
      <trkpt lat="43.12461" lon="6.1249">
        <ele>152.953125</ele>
        <time>2021-01-17T14:59:35Z</time>
      </trkpt>
      <trkpt lat="43.12462" lon="6.12491">
        <ele>152.5546875</ele>
        <time>2021-01-17T14:59:36Z</time>
      </trkpt>
      <trkpt lat="43.12464" lon="6.12491">
        <ele>152.36328125</ele>
        <time>2021-01-17T14:59:37Z</time>
      </trkpt>
      <trkpt lat="43.12466" lon="6.1249">
        <ele>152.25390625</ele>
        <time>2021-01-17T14:59:38Z</time>
      </trkpt>
      <trkpt lat="43.12467" lon="6.1249">
        <ele>152.0390625</ele>
        <time>2021-01-17T14:59:39Z</time>
      </trkpt>
      <trkpt lat="43.12469" lon="6.12492">
        <ele>151.62109375</ele>
        <time>2021-01-17T14:59:40Z</time>
      </trkpt>
      <trkpt lat="43.1247" lon="6.12494">
        <ele>151.15234375</ele>
        <time>2021-01-17T14:59:41Z</time>
      </trkpt>
      <trkpt lat="43.12471" lon="6.12494">
        <ele>150.9375</ele>
        <time>2021-01-17T14:59:42Z</time>
      </trkpt>
      <trkpt lat="43.12472" lon="6.12493">
        <ele>150.91796875</ele>
        <time>2021-01-17T14:59:43Z</time>
      </trkpt>
      <trkpt lat="43.12473" lon="6.12492">
        <ele>151.02734375</ele>
        <time>2021-01-17T14:59:44Z</time>
      </trkpt>
      <trkpt lat="43.12472" lon="6.1249">
        <ele>151.30859375</ele>
        <time>2021-01-17T14:59:47Z</time>
      </trkpt>
      <trkpt lat="43.12472" lon="6.12489">
        <ele>151.54296875</ele>
        <time>2021-01-17T14:59:49Z</time>
      </trkpt>
      <trkpt lat="43.12471" lon="6.12487">
        <ele>151.87109375</ele>
        <time>2021-01-17T14:59:50Z</time>
      </trkpt>
      <trkpt lat="43.1247" lon="6.12485">
        <ele>152.08203125</ele>
        <time>2021-01-17T14:59:51Z</time>
      </trkpt>
      <trkpt lat="43.12471" lon="6.12483">
        <ele>152.08203125</ele>
        <time>2021-01-17T14:59:52Z</time>
      </trkpt>
      <trkpt lat="43.12473" lon="6.12482">
        <ele>151.796875</ele>
        <time>2021-01-17T14:59:53Z</time>
      </trkpt>
      <trkpt lat="43.12476" lon="6.12483">
        <ele>151.3359375</ele>
        <time>2021-01-17T14:59:54Z</time>
      </trkpt>
      <trkpt lat="43.12479" lon="6.12484">
        <ele>150.75</ele>
        <time>2021-01-17T14:59:55Z</time>
      </trkpt>
      <trkpt lat="43.12484" lon="6.12485">
        <ele>150.09375</ele>
        <time>2021-01-17T14:59:56Z</time>
      </trkpt>
      <trkpt lat="43.12488" lon="6.12485">
        <ele>149.40234375</ele>
        <time>2021-01-17T14:59:57Z</time>
      </trkpt>
      <trkpt lat="43.12503" lon="6.12487">
        <ele>147.1875</ele>
        <time>2021-01-17T15:00:02Z</time>
      </trkpt>
      <trkpt lat="43.12502" lon="6.12486">
        <ele>147.25</ele>
        <time>2021-01-17T15:00:30Z</time>
      </trkpt>
      <trkpt lat="43.12502" lon="6.12486">
        <ele>147.296875</ele>
        <time>2021-01-17T15:00:51Z</time>
      </trkpt>
      <trkpt lat="43.12504" lon="6.12488">
        <ele>147.0546875</ele>
        <time>2021-01-17T15:00:56Z</time>
      </trkpt>
      <trkpt lat="43.12505" lon="6.1249">
        <ele>146.70703125</ele>
        <time>2021-01-17T15:00:57Z</time>
      </trkpt>
      <trkpt lat="43.12506" lon="6.12492">
        <ele>146.265625</ele>
        <time>2021-01-17T15:00:58Z</time>
      </trkpt>
      <trkpt lat="43.12507" lon="6.12494">
        <ele>145.765625</ele>
        <time>2021-01-17T15:00:59Z</time>
      </trkpt>
      <trkpt lat="43.12508" lon="6.12496">
        <ele>145.22265625</ele>
        <time>2021-01-17T15:01:00Z</time>
      </trkpt>
      <trkpt lat="43.1251" lon="6.12499">
        <ele>144.65625</ele>
        <time>2021-01-17T15:01:01Z</time>
      </trkpt>
      <trkpt lat="43.12522" lon="6.12512">
        <ele>141.43359375</ele>
        <time>2021-01-17T15:01:05Z</time>
      </trkpt>
      <trkpt lat="43.12528" lon="6.1252">
        <ele>139.3828125</ele>
        <time>2021-01-17T15:01:07Z</time>
      </trkpt>
      <trkpt lat="43.12536" lon="6.12528">
        <ele>137.0078125</ele>
        <time>2021-01-17T15:01:10Z</time>
      </trkpt>
      <trkpt lat="43.1254" lon="6.12527">
        <ele>136.86328125</ele>
        <time>2021-01-17T15:01:11Z</time>
      </trkpt>
      <trkpt lat="43.12545" lon="6.12525">
        <ele>136.78125</ele>
        <time>2021-01-17T15:01:12Z</time>
      </trkpt>
      <trkpt lat="43.12561" lon="6.12519">
        <ele>136.07421875</ele>
        <time>2021-01-17T15:01:15Z</time>
      </trkpt>
      <trkpt lat="43.12567" lon="6.12519">
        <ele>135.5234375</ele>
        <time>2021-01-17T15:01:16Z</time>
      </trkpt>
      <trkpt lat="43.12575" lon="6.12519">
        <ele>136.0546875</ele>
        <time>2021-01-17T15:01:18Z</time>
      </trkpt>
      <trkpt lat="43.12586" lon="6.12515">
        <ele>137.48046875</ele>
        <time>2021-01-17T15:01:22Z</time>
      </trkpt>
      <trkpt lat="43.12588" lon="6.12516">
        <ele>137.5625</ele>
        <time>2021-01-17T15:01:31Z</time>
      </trkpt>
      <trkpt lat="43.12599" lon="6.1252">
        <ele>137.7265625</ele>
        <time>2021-01-17T15:01:46Z</time>
      </trkpt>
      <trkpt lat="43.12622" lon="6.12526">
        <ele>139.24609375</ele>
        <time>2021-01-17T15:01:54Z</time>
      </trkpt>
      <trkpt lat="43.12654" lon="6.12514">
        <ele>147.84765625</ele>
        <time>2021-01-17T15:02:07Z</time>
      </trkpt>
      <trkpt lat="43.12679" lon="6.12492">
        <ele>153.2734375</ele>
        <time>2021-01-17T15:02:18Z</time>
      </trkpt>
      <trkpt lat="43.12708" lon="6.12473">
        <ele>158.35546875</ele>
        <time>2021-01-17T15:02:28Z</time>
      </trkpt>
      <trkpt lat="43.1271" lon="6.12471">
        <ele>158.578125</ele>
        <time>2021-01-17T15:02:29Z</time>
      </trkpt>
      <trkpt lat="43.12718" lon="6.12463">
        <ele>159.21484375</ele>
        <time>2021-01-17T15:02:32Z</time>
      </trkpt>
      <trkpt lat="43.12719" lon="6.12459">
        <ele>158.72265625</ele>
        <time>2021-01-17T15:02:33Z</time>
      </trkpt>
      <trkpt lat="43.12719" lon="6.12454">
        <ele>157.98046875</ele>
        <time>2021-01-17T15:02:34Z</time>
      </trkpt>
      <trkpt lat="43.12718" lon="6.1245">
        <ele>157.20703125</ele>
        <time>2021-01-17T15:02:35Z</time>
      </trkpt>
      <trkpt lat="43.12718" lon="6.12446">
        <ele>156.51953125</ele>
        <time>2021-01-17T15:02:36Z</time>
      </trkpt>
      <trkpt lat="43.12717" lon="6.12442">
        <ele>155.89453125</ele>
        <time>2021-01-17T15:02:37Z</time>
      </trkpt>
      <trkpt lat="43.12731" lon="6.1241">
        <ele>154.390625</ele>
        <time>2021-01-17T15:02:48Z</time>
      </trkpt>
      <trkpt lat="43.12751" lon="6.12399">
        <ele>155.37890625</ele>
        <time>2021-01-17T15:02:54Z</time>
      </trkpt>
      <trkpt lat="43.12756" lon="6.12398">
        <ele>155.8359375</ele>
        <time>2021-01-17T15:02:55Z</time>
      </trkpt>
      <trkpt lat="43.12761" lon="6.12399">
        <ele>156.4921875</ele>
        <time>2021-01-17T15:02:56Z</time>
      </trkpt>
      <trkpt lat="43.12771" lon="6.124">
        <ele>157.25390625</ele>
        <time>2021-01-17T15:02:58Z</time>
      </trkpt>
      <trkpt lat="43.12776" lon="6.12401">
        <ele>157.78515625</ele>
        <time>2021-01-17T15:02:59Z</time>
      </trkpt>
      <trkpt lat="43.12781" lon="6.12402">
        <ele>158.05859375</ele>
        <time>2021-01-17T15:03:00Z</time>
      </trkpt>
      <trkpt lat="43.12786" lon="6.12399">
        <ele>157.73828125</ele>
        <time>2021-01-17T15:03:01Z</time>
      </trkpt>
      <trkpt lat="43.12791" lon="6.12395">
        <ele>156.88671875</ele>
        <time>2021-01-17T15:03:02Z</time>
      </trkpt>
      <trkpt lat="43.12795" lon="6.12391">
        <ele>155.87109375</ele>
        <time>2021-01-17T15:03:03Z</time>
      </trkpt>
      <trkpt lat="43.128" lon="6.12388">
        <ele>155.08203125</ele>
        <time>2021-01-17T15:03:04Z</time>
      </trkpt>
      <trkpt lat="43.12804" lon="6.12385">
        <ele>154.30859375</ele>
        <time>2021-01-17T15:03:05Z</time>
      </trkpt>
      <trkpt lat="43.12808" lon="6.12383">
        <ele>153.62109375</ele>
        <time>2021-01-17T15:03:06Z</time>
      </trkpt>
      <trkpt lat="43.12832" lon="6.12367">
        <ele>148.3984375</ele>
        <time>2021-01-17T15:03:12Z</time>
      </trkpt>
      <trkpt lat="43.12837" lon="6.12366">
        <ele>147.66015625</ele>
        <time>2021-01-17T15:03:13Z</time>
      </trkpt>
      <trkpt lat="43.12841" lon="6.12365">
        <ele>147.11328125</ele>
        <time>2021-01-17T15:03:14Z</time>
      </trkpt>
      <trkpt lat="43.12846" lon="6.12364">
        <ele>146.3671875</ele>
        <time>2021-01-17T15:03:15Z</time>
      </trkpt>
      <trkpt lat="43.12856" lon="6.12364">
        <ele>144.34375</ele>
        <time>2021-01-17T15:03:17Z</time>
      </trkpt>
      <trkpt lat="43.12861" lon="6.12366">
        <ele>143.75390625</ele>
        <time>2021-01-17T15:03:18Z</time>
      </trkpt>
      <trkpt lat="43.12865" lon="6.12368">
        <ele>143.3125</ele>
        <time>2021-01-17T15:03:19Z</time>
      </trkpt>
      <trkpt lat="43.12868" lon="6.12371">
        <ele>142.984375</ele>
        <time>2021-01-17T15:03:20Z</time>
      </trkpt>
      <trkpt lat="43.12871" lon="6.12375">
        <ele>142.859375</ele>
        <time>2021-01-17T15:03:21Z</time>
      </trkpt>
      <trkpt lat="43.12874" lon="6.12379">
        <ele>143.0625</ele>
        <time>2021-01-17T15:03:22Z</time>
      </trkpt>
      <trkpt lat="43.12875" lon="6.12385">
        <ele>143.63671875</ele>
        <time>2021-01-17T15:03:23Z</time>
      </trkpt>
      <trkpt lat="43.12876" lon="6.12389">
        <ele>144.21484375</ele>
        <time>2021-01-17T15:03:24Z</time>
      </trkpt>
      <trkpt lat="43.12895" lon="6.12424">
        <ele>148.0859375</ele>
        <time>2021-01-17T15:03:32Z</time>
      </trkpt>
      <trkpt lat="43.12898" lon="6.12428">
        <ele>149.12890625</ele>
        <time>2021-01-17T15:03:33Z</time>
      </trkpt>
      <trkpt lat="43.12901" lon="6.12431">
        <ele>149.6640625</ele>
        <time>2021-01-17T15:03:34Z</time>
      </trkpt>
      <trkpt lat="43.12904" lon="6.12435">
        <ele>150.546875</ele>
        <time>2021-01-17T15:03:35Z</time>
      </trkpt>
      <trkpt lat="43.12906" lon="6.12439">
        <ele>151.59375</ele>
        <time>2021-01-17T15:03:36Z</time>
      </trkpt>
      <trkpt lat="43.12909" lon="6.12442">
        <ele>152.3828125</ele>
        <time>2021-01-17T15:03:37Z</time>
      </trkpt>
      <trkpt lat="43.12913" lon="6.12445">
        <ele>152.9140625</ele>
        <time>2021-01-17T15:03:38Z</time>
      </trkpt>
      <trkpt lat="43.12918" lon="6.12446">
        <ele>152.98828125</ele>
        <time>2021-01-17T15:03:39Z</time>
      </trkpt>
      <trkpt lat="43.12924" lon="6.12446">
        <ele>152.7734375</ele>
        <time>2021-01-17T15:03:40Z</time>
      </trkpt>
      <trkpt lat="43.12929" lon="6.12446">
        <ele>152.4921875</ele>
        <time>2021-01-17T15:03:41Z</time>
      </trkpt>
      <trkpt lat="43.12935" lon="6.12445">
        <ele>152.11328125</ele>
        <time>2021-01-17T15:03:42Z</time>
      </trkpt>
      <trkpt lat="43.1294" lon="6.12443">
        <ele>151.4921875</ele>
        <time>2021-01-17T15:03:43Z</time>
      </trkpt>
      <trkpt lat="43.12946" lon="6.1244">
        <ele>150.80078125</ele>
        <time>2021-01-17T15:03:44Z</time>
      </trkpt>
      <trkpt lat="43.12952" lon="6.12439">
        <ele>150.51171875</ele>
        <time>2021-01-17T15:03:45Z</time>
      </trkpt>
      <trkpt lat="43.12957" lon="6.1244">
        <ele>150.71875</ele>
        <time>2021-01-17T15:03:46Z</time>
      </trkpt>
      <trkpt lat="43.12962" lon="6.1244">
        <ele>150.97265625</ele>
        <time>2021-01-17T15:03:47Z</time>
      </trkpt>
      <trkpt lat="43.12967" lon="6.12438">
        <ele>150.88671875</ele>
        <time>2021-01-17T15:03:48Z</time>
      </trkpt>
      <trkpt lat="43.12979" lon="6.12434">
        <ele>150.90625</ele>
        <time>2021-01-17T15:03:50Z</time>
      </trkpt>
      <trkpt lat="43.1299" lon="6.12429">
        <ele>149.4921875</ele>
        <time>2021-01-17T15:03:52Z</time>
      </trkpt>
      <trkpt lat="43.13001" lon="6.12426">
        <ele>148.41796875</ele>
        <time>2021-01-17T15:03:54Z</time>
      </trkpt>
      <trkpt lat="43.13005" lon="6.12424">
        <ele>147.7265625</ele>
        <time>2021-01-17T15:03:55Z</time>
      </trkpt>
      <trkpt lat="43.13009" lon="6.12422">
        <ele>147.18359375</ele>
        <time>2021-01-17T15:03:56Z</time>
      </trkpt>
      <trkpt lat="43.13014" lon="6.12421">
        <ele>146.67578125</ele>
        <time>2021-01-17T15:03:57Z</time>
      </trkpt>
      <trkpt lat="43.13018" lon="6.1242">
        <ele>146.19921875</ele>
        <time>2021-01-17T15:03:58Z</time>
      </trkpt>
      <trkpt lat="43.1304" lon="6.12425">
        <ele>144.2578125</ele>
        <time>2021-01-17T15:04:05Z</time>
      </trkpt>
      <trkpt lat="43.13043" lon="6.12424">
        <ele>143.703125</ele>
        <time>2021-01-17T15:04:06Z</time>
      </trkpt>
      <trkpt lat="43.1306" lon="6.12417">
        <ele>140.95703125</ele>
        <time>2021-01-17T15:04:13Z</time>
      </trkpt>
      <trkpt lat="43.13082" lon="6.12409">
        <ele>138.71875</ele>
        <time>2021-01-17T15:04:22Z</time>
      </trkpt>
      <trkpt lat="43.13098" lon="6.12408">
        <ele>136.60546875</ele>
        <time>2021-01-17T15:04:26Z</time>
      </trkpt>
      <trkpt lat="43.13102" lon="6.12405">
        <ele>136.4609375</ele>
        <time>2021-01-17T15:04:27Z</time>
      </trkpt>
      <trkpt lat="43.13106" lon="6.12403">
        <ele>135.89453125</ele>
        <time>2021-01-17T15:04:28Z</time>
      </trkpt>
      <trkpt lat="43.13111" lon="6.12402">
        <ele>135.171875</ele>
        <time>2021-01-17T15:04:29Z</time>
      </trkpt>
      <trkpt lat="43.13116" lon="6.12398">
        <ele>134.578125</ele>
        <time>2021-01-17T15:04:30Z</time>
      </trkpt>
      <trkpt lat="43.1312" lon="6.12394">
        <ele>134.171875</ele>
        <time>2021-01-17T15:04:31Z</time>
      </trkpt>
      <trkpt lat="43.13124" lon="6.12388">
        <ele>133.70703125</ele>
        <time>2021-01-17T15:04:32Z</time>
      </trkpt>
      <trkpt lat="43.13129" lon="6.12384">
        <ele>132.953125</ele>
        <time>2021-01-17T15:04:33Z</time>
      </trkpt>
      <trkpt lat="43.13142" lon="6.12372">
        <ele>131.1015625</ele>
        <time>2021-01-17T15:04:36Z</time>
      </trkpt>
      <trkpt lat="43.13145" lon="6.12367">
        <ele>130.89453125</ele>
        <time>2021-01-17T15:04:37Z</time>
      </trkpt>
      <trkpt lat="43.13147" lon="6.12365">
        <ele>130.85546875</ele>
        <time>2021-01-17T15:04:38Z</time>
      </trkpt>
      <trkpt lat="43.13148" lon="6.12363">
        <ele>130.828125</ele>
        <time>2021-01-17T15:04:39Z</time>
      </trkpt>
      <trkpt lat="43.13149" lon="6.12362">
        <ele>130.77734375</ele>
        <time>2021-01-17T15:04:40Z</time>
      </trkpt>
      <trkpt lat="43.1315" lon="6.12362">
        <ele>130.5078125</ele>
        <time>2021-01-17T15:04:54Z</time>
      </trkpt>
      <trkpt lat="43.1315" lon="6.12362">
        <ele>130.484375</ele>
        <time>2021-01-17T15:05:21Z</time>
      </trkpt>
      <trkpt lat="43.13156" lon="6.12348">
        <ele>129.9453125</ele>
        <time>2021-01-17T15:05:41Z</time>
      </trkpt>
      <trkpt lat="43.1316" lon="6.12344">
        <ele>129.078125</ele>
        <time>2021-01-17T15:05:42Z</time>
      </trkpt>
      <trkpt lat="43.13164" lon="6.1234">
        <ele>128.1328125</ele>
        <time>2021-01-17T15:05:43Z</time>
      </trkpt>
      <trkpt lat="43.13168" lon="6.12334">
        <ele>127.4140625</ele>
        <time>2021-01-17T15:05:44Z</time>
      </trkpt>
      <trkpt lat="43.13183" lon="6.12313">
        <ele>124.84375</ele>
        <time>2021-01-17T15:05:47Z</time>
      </trkpt>
      <trkpt lat="43.13214" lon="6.12283">
        <ele>121.328125</ele>
        <time>2021-01-17T15:05:51Z</time>
      </trkpt>
      <trkpt lat="43.13229" lon="6.12269">
        <ele>121.88671875</ele>
        <time>2021-01-17T15:05:53Z</time>
      </trkpt>
      <trkpt lat="43.13237" lon="6.12263">
        <ele>122.85546875</ele>
        <time>2021-01-17T15:05:54Z</time>
      </trkpt>
      <trkpt lat="43.13244" lon="6.12259">
        <ele>123.8828125</ele>
        <time>2021-01-17T15:05:55Z</time>
      </trkpt>
      <trkpt lat="43.13252" lon="6.12256">
        <ele>124.3828125</ele>
        <time>2021-01-17T15:05:56Z</time>
      </trkpt>
      <trkpt lat="43.13259" lon="6.12255">
        <ele>124.4453125</ele>
        <time>2021-01-17T15:05:57Z</time>
      </trkpt>
      <trkpt lat="43.13267" lon="6.12256">
        <ele>124.01953125</ele>
        <time>2021-01-17T15:05:58Z</time>
      </trkpt>
      <trkpt lat="43.13274" lon="6.12256">
        <ele>123.50390625</ele>
        <time>2021-01-17T15:05:59Z</time>
      </trkpt>
      <trkpt lat="43.133" lon="6.12253">
        <ele>122.6328125</ele>
        <time>2021-01-17T15:06:03Z</time>
      </trkpt>
      <trkpt lat="43.13306" lon="6.12252">
        <ele>122.3203125</ele>
        <time>2021-01-17T15:06:04Z</time>
      </trkpt>
      <trkpt lat="43.13312" lon="6.12251">
        <ele>122.17578125</ele>
        <time>2021-01-17T15:06:05Z</time>
      </trkpt>
      <trkpt lat="43.13317" lon="6.12248">
        <ele>122.04296875</ele>
        <time>2021-01-17T15:06:06Z</time>
      </trkpt>
      <trkpt lat="43.13322" lon="6.12244">
        <ele>121.671875</ele>
        <time>2021-01-17T15:06:07Z</time>
      </trkpt>
      <trkpt lat="43.13325" lon="6.12239">
        <ele>121.546875</ele>
        <time>2021-01-17T15:06:08Z</time>
      </trkpt>
      <trkpt lat="43.13329" lon="6.12234">
        <ele>121.53515625</ele>
        <time>2021-01-17T15:06:09Z</time>
      </trkpt>
      <trkpt lat="43.13332" lon="6.12228">
        <ele>121.51171875</ele>
        <time>2021-01-17T15:06:10Z</time>
      </trkpt>
      <trkpt lat="43.13343" lon="6.12207">
        <ele>120.96484375</ele>
        <time>2021-01-17T15:06:14Z</time>
      </trkpt>
      <trkpt lat="43.13348" lon="6.12196">
        <ele>120.328125</ele>
        <time>2021-01-17T15:06:16Z</time>
      </trkpt>
      <trkpt lat="43.13353" lon="6.12184">
        <ele>119.82421875</ele>
        <time>2021-01-17T15:06:18Z</time>
      </trkpt>
      <trkpt lat="43.13355" lon="6.12178">
        <ele>119.64453125</ele>
        <time>2021-01-17T15:06:19Z</time>
      </trkpt>
      <trkpt lat="43.13366" lon="6.12145">
        <ele>119.2109375</ele>
        <time>2021-01-17T15:06:24Z</time>
      </trkpt>
      <trkpt lat="43.13368" lon="6.12138">
        <ele>119.3125</ele>
        <time>2021-01-17T15:06:25Z</time>
      </trkpt>
      <trkpt lat="43.1337" lon="6.12132">
        <ele>119.36328125</ele>
        <time>2021-01-17T15:06:26Z</time>
      </trkpt>
      <trkpt lat="43.13386" lon="6.12091">
        <ele>124.44140625</ele>
        <time>2021-01-17T15:06:34Z</time>
      </trkpt>
      <trkpt lat="43.1339" lon="6.12088">
        <ele>124.73046875</ele>
        <time>2021-01-17T15:06:35Z</time>
      </trkpt>
      <trkpt lat="43.13394" lon="6.12086">
        <ele>124.59375</ele>
        <time>2021-01-17T15:06:36Z</time>
      </trkpt>
      <trkpt lat="43.1342" lon="6.12075">
        <ele>123.1953125</ele>
        <time>2021-01-17T15:06:43Z</time>
      </trkpt>
      <trkpt lat="43.13425" lon="6.12073">
        <ele>123.0703125</ele>
        <time>2021-01-17T15:06:44Z</time>
      </trkpt>
      <trkpt lat="43.13429" lon="6.1207">
        <ele>122.88671875</ele>
        <time>2021-01-17T15:06:45Z</time>
      </trkpt>
      <trkpt lat="43.13437" lon="6.12065">
        <ele>121.67578125</ele>
        <time>2021-01-17T15:06:47Z</time>
      </trkpt>
      <trkpt lat="43.13456" lon="6.12026">
        <ele>120.60546875</ele>
        <time>2021-01-17T15:06:57Z</time>
      </trkpt>
      <trkpt lat="43.13456" lon="6.1201">
        <ele>121.95703125</ele>
        <time>2021-01-17T15:07:00Z</time>
      </trkpt>
      <trkpt lat="43.13458" lon="6.11966">
        <ele>124.63671875</ele>
        <time>2021-01-17T15:07:07Z</time>
      </trkpt>
      <trkpt lat="43.13456" lon="6.11903">
        <ele>125.5</ele>
        <time>2021-01-17T15:07:16Z</time>
      </trkpt>
      <trkpt lat="43.13456" lon="6.11896">
        <ele>125.5859375</ele>
        <time>2021-01-17T15:07:17Z</time>
      </trkpt>
      <trkpt lat="43.13452" lon="6.11866">
        <ele>127.5625</ele>
        <time>2021-01-17T15:07:22Z</time>
      </trkpt>
      <trkpt lat="43.13444" lon="6.11828">
        <ele>131.5546875</ele>
        <time>2021-01-17T15:07:31Z</time>
      </trkpt>
      <trkpt lat="43.13441" lon="6.11817">
        <ele>132.9765625</ele>
        <time>2021-01-17T15:07:34Z</time>
      </trkpt>
      <trkpt lat="43.13438" lon="6.11805">
        <ele>134.66796875</ele>
        <time>2021-01-17T15:07:37Z</time>
      </trkpt>
      <trkpt lat="43.13427" lon="6.1176">
        <ele>141.421875</ele>
        <time>2021-01-17T15:07:48Z</time>
      </trkpt>
      <trkpt lat="43.13423" lon="6.11741">
        <ele>143.171875</ele>
        <time>2021-01-17T15:07:53Z</time>
      </trkpt>
      <trkpt lat="43.13425" lon="6.11682">
        <ele>149.80859375</ele>
        <time>2021-01-17T15:08:05Z</time>
      </trkpt>
      <trkpt lat="43.13427" lon="6.11602">
        <ele>158.609375</ele>
        <time>2021-01-17T15:08:20Z</time>
      </trkpt>
      <trkpt lat="43.13426" lon="6.11584">
        <ele>159.89453125</ele>
        <time>2021-01-17T15:08:24Z</time>
      </trkpt>
      <trkpt lat="43.13402" lon="6.1156">
        <ele>157.25390625</ele>
        <time>2021-01-17T15:08:34Z</time>
      </trkpt>
      <trkpt lat="43.13397" lon="6.11555">
        <ele>156.64453125</ele>
        <time>2021-01-17T15:08:36Z</time>
      </trkpt>
      <trkpt lat="43.13392" lon="6.11549">
        <ele>156.296875</ele>
        <time>2021-01-17T15:08:38Z</time>
      </trkpt>
      <trkpt lat="43.13382" lon="6.11521">
        <ele>157.7734375</ele>
        <time>2021-01-17T15:08:45Z</time>
      </trkpt>
      <trkpt lat="43.13381" lon="6.11496">
        <ele>161.27734375</ele>
        <time>2021-01-17T15:08:51Z</time>
      </trkpt>
      <trkpt lat="43.13382" lon="6.11486">
        <ele>162.71875</ele>
        <time>2021-01-17T15:08:53Z</time>
      </trkpt>
      <trkpt lat="43.13379" lon="6.11448">
        <ele>168.3046875</ele>
        <time>2021-01-17T15:09:01Z</time>
      </trkpt>
      <trkpt lat="43.1337" lon="6.11416">
        <ele>170.765625</ele>
        <time>2021-01-17T15:09:08Z</time>
      </trkpt>
      <trkpt lat="43.13365" lon="6.11388">
        <ele>171.9609375</ele>
        <time>2021-01-17T15:09:14Z</time>
      </trkpt>
      <trkpt lat="43.13372" lon="6.11362">
        <ele>176.0703125</ele>
        <time>2021-01-17T15:09:22Z</time>
      </trkpt>
      <trkpt lat="43.13373" lon="6.11362">
        <ele>176.5</ele>
        <time>2021-01-17T15:09:28Z</time>
      </trkpt>
      <trkpt lat="43.13393" lon="6.11333">
        <ele>181.64453125</ele>
        <time>2021-01-17T15:09:38Z</time>
      </trkpt>
      <trkpt lat="43.13395" lon="6.11329">
        <ele>181.94921875</ele>
        <time>2021-01-17T15:09:39Z</time>
      </trkpt>
      <trkpt lat="43.13397" lon="6.11324">
        <ele>182.2109375</ele>
        <time>2021-01-17T15:09:40Z</time>
      </trkpt>
      <trkpt lat="43.13399" lon="6.11312">
        <ele>182.609375</ele>
        <time>2021-01-17T15:09:42Z</time>
      </trkpt>
      <trkpt lat="43.134" lon="6.11306">
        <ele>182.62890625</ele>
        <time>2021-01-17T15:09:43Z</time>
      </trkpt>
      <trkpt lat="43.134" lon="6.113">
        <ele>182.4765625</ele>
        <time>2021-01-17T15:09:44Z</time>
      </trkpt>
      <trkpt lat="43.134" lon="6.11295">
        <ele>182.22265625</ele>
        <time>2021-01-17T15:09:45Z</time>
      </trkpt>
      <trkpt lat="43.134" lon="6.11289">
        <ele>181.91015625</ele>
        <time>2021-01-17T15:09:46Z</time>
      </trkpt>
      <trkpt lat="43.13405" lon="6.11237">
        <ele>181.61328125</ele>
        <time>2021-01-17T15:09:58Z</time>
      </trkpt>
      <trkpt lat="43.1341" lon="6.11219">
        <ele>182.33984375</ele>
        <time>2021-01-17T15:10:03Z</time>
      </trkpt>
      <trkpt lat="43.13419" lon="6.11177">
        <ele>183.00390625</ele>
        <time>2021-01-17T15:10:14Z</time>
      </trkpt>
      <trkpt lat="43.13431" lon="6.11162">
        <ele>185.3515625</ele>
        <time>2021-01-17T15:10:20Z</time>
      </trkpt>
      <trkpt lat="43.13442" lon="6.11148">
        <ele>186.26171875</ele>
        <time>2021-01-17T15:10:25Z</time>
      </trkpt>
      <trkpt lat="43.13482" lon="6.11125">
        <ele>190.1171875</ele>
        <time>2021-01-17T15:10:39Z</time>
      </trkpt>
      <trkpt lat="43.13496" lon="6.11126">
        <ele>191.9140625</ele>
        <time>2021-01-17T15:10:45Z</time>
      </trkpt>
      <trkpt lat="43.13498" lon="6.11124">
        <ele>191.77734375</ele>
        <time>2021-01-17T15:10:46Z</time>
      </trkpt>
      <trkpt lat="43.1352" lon="6.11112">
        <ele>191.28515625</ele>
        <time>2021-01-17T15:10:58Z</time>
      </trkpt>
      <trkpt lat="43.13524" lon="6.11111">
        <ele>191.26953125</ele>
        <time>2021-01-17T15:11:01Z</time>
      </trkpt>
      <trkpt lat="43.13546" lon="6.11104">
        <ele>191.2109375</ele>
        <time>2021-01-17T15:11:10Z</time>
      </trkpt>
      <trkpt lat="43.13562" lon="6.11107">
        <ele>192.44140625</ele>
        <time>2021-01-17T15:11:14Z</time>
      </trkpt>
      <trkpt lat="43.13566" lon="6.11105">
        <ele>192.0625</ele>
        <time>2021-01-17T15:11:15Z</time>
      </trkpt>
      <trkpt lat="43.13569" lon="6.11102">
        <ele>191.671875</ele>
        <time>2021-01-17T15:11:16Z</time>
      </trkpt>
      <trkpt lat="43.13594" lon="6.11077">
        <ele>188.82421875</ele>
        <time>2021-01-17T15:11:24Z</time>
      </trkpt>
      <trkpt lat="43.1361" lon="6.11065">
        <ele>186.4453125</ele>
        <time>2021-01-17T15:11:33Z</time>
      </trkpt>
      <trkpt lat="43.13637" lon="6.11058">
        <ele>182.84375</ele>
        <time>2021-01-17T15:11:44Z</time>
      </trkpt>
      <trkpt lat="43.13647" lon="6.11052">
        <ele>180.3515625</ele>
        <time>2021-01-17T15:11:47Z</time>
      </trkpt>
      <trkpt lat="43.13654" lon="6.11046">
        <ele>177.95703125</ele>
        <time>2021-01-17T15:11:49Z</time>
      </trkpt>
      <trkpt lat="43.13665" lon="6.11028">
        <ele>172.203125</ele>
        <time>2021-01-17T15:11:55Z</time>
      </trkpt>
      <trkpt lat="43.13676" lon="6.11007">
        <ele>167.49609375</ele>
        <time>2021-01-17T15:12:02Z</time>
      </trkpt>
      <trkpt lat="43.1368" lon="6.10986">
        <ele>165.10546875</ele>
        <time>2021-01-17T15:12:08Z</time>
      </trkpt>
      <trkpt lat="43.13679" lon="6.10983">
        <ele>165.01953125</ele>
        <time>2021-01-17T15:12:09Z</time>
      </trkpt>
      <trkpt lat="43.13676" lon="6.10974">
        <ele>164.4921875</ele>
        <time>2021-01-17T15:12:11Z</time>
      </trkpt>
      <trkpt lat="43.13675" lon="6.10968">
        <ele>164.01953125</ele>
        <time>2021-01-17T15:12:12Z</time>
      </trkpt>
      <trkpt lat="43.13672" lon="6.10938">
        <ele>161.09375</ele>
        <time>2021-01-17T15:12:17Z</time>
      </trkpt>
      <trkpt lat="43.13665" lon="6.10887">
        <ele>156.5859375</ele>
        <time>2021-01-17T15:12:23Z</time>
      </trkpt>
      <trkpt lat="43.13665" lon="6.10877">
        <ele>155.6640625</ele>
        <time>2021-01-17T15:12:24Z</time>
      </trkpt>
      <trkpt lat="43.13666" lon="6.10866">
        <ele>155.1953125</ele>
        <time>2021-01-17T15:12:25Z</time>
      </trkpt>
      <trkpt lat="43.13667" lon="6.10856">
        <ele>154.63671875</ele>
        <time>2021-01-17T15:12:26Z</time>
      </trkpt>
      <trkpt lat="43.13669" lon="6.10847">
        <ele>154.2421875</ele>
        <time>2021-01-17T15:12:27Z</time>
      </trkpt>
      <trkpt lat="43.13674" lon="6.10831">
        <ele>154.1484375</ele>
        <time>2021-01-17T15:12:29Z</time>
      </trkpt>
      <trkpt lat="43.13677" lon="6.10825">
        <ele>153.9296875</ele>
        <time>2021-01-17T15:12:30Z</time>
      </trkpt>
      <trkpt lat="43.13691" lon="6.10801">
        <ele>153.6171875</ele>
        <time>2021-01-17T15:12:35Z</time>
      </trkpt>
      <trkpt lat="43.137" lon="6.10784">
        <ele>154.81640625</ele>
        <time>2021-01-17T15:12:39Z</time>
      </trkpt>
      <trkpt lat="43.13715" lon="6.10759">
        <ele>156.22265625</ele>
        <time>2021-01-17T15:12:48Z</time>
      </trkpt>
      <trkpt lat="43.13722" lon="6.10748">
        <ele>156.4453125</ele>
        <time>2021-01-17T15:12:51Z</time>
      </trkpt>
      <trkpt lat="43.13726" lon="6.1074">
        <ele>157.07421875</ele>
        <time>2021-01-17T15:12:53Z</time>
      </trkpt>
      <trkpt lat="43.1374" lon="6.1071">
        <ele>158.83984375</ele>
        <time>2021-01-17T15:13:00Z</time>
      </trkpt>
      <trkpt lat="43.13742" lon="6.10705">
        <ele>159.15625</ele>
        <time>2021-01-17T15:13:01Z</time>
      </trkpt>
      <trkpt lat="43.13743" lon="6.10684">
        <ele>162.7421875</ele>
        <time>2021-01-17T15:13:05Z</time>
      </trkpt>
      <trkpt lat="43.13741" lon="6.10679">
        <ele>163.66015625</ele>
        <time>2021-01-17T15:13:06Z</time>
      </trkpt>
      <trkpt lat="43.13739" lon="6.10674">
        <ele>164.78515625</ele>
        <time>2021-01-17T15:13:07Z</time>
      </trkpt>
      <trkpt lat="43.13735" lon="6.10671">
        <ele>166.078125</ele>
        <time>2021-01-17T15:13:08Z</time>
      </trkpt>
      <trkpt lat="43.13732" lon="6.10667">
        <ele>167.32421875</ele>
        <time>2021-01-17T15:13:09Z</time>
      </trkpt>
      <trkpt lat="43.13726" lon="6.10662">
        <ele>169.7109375</ele>
        <time>2021-01-17T15:13:11Z</time>
      </trkpt>
      <trkpt lat="43.13718" lon="6.10654">
        <ele>172.86328125</ele>
        <time>2021-01-17T15:13:14Z</time>
      </trkpt>
      <trkpt lat="43.1371" lon="6.10643">
        <ele>174.97265625</ele>
        <time>2021-01-17T15:13:18Z</time>
      </trkpt>
      <trkpt lat="43.13708" lon="6.10641">
        <ele>175.4765625</ele>
        <time>2021-01-17T15:13:19Z</time>
      </trkpt>
      <trkpt lat="43.13691" lon="6.10621">
        <ele>177.91015625</ele>
        <time>2021-01-17T15:13:27Z</time>
      </trkpt>
      <trkpt lat="43.13686" lon="6.10611">
        <ele>178.72265625</ele>
        <time>2021-01-17T15:13:30Z</time>
      </trkpt>
      <trkpt lat="43.13679" lon="6.1059">
        <ele>181.4140625</ele>
        <time>2021-01-17T15:13:36Z</time>
      </trkpt>
      <trkpt lat="43.13678" lon="6.10561">
        <ele>183.16796875</ele>
        <time>2021-01-17T15:13:43Z</time>
      </trkpt>
      <trkpt lat="43.13679" lon="6.10553">
        <ele>183.17578125</ele>
        <time>2021-01-17T15:13:45Z</time>
      </trkpt>
      <trkpt lat="43.13684" lon="6.10536">
        <ele>183.3125</ele>
        <time>2021-01-17T15:13:49Z</time>
      </trkpt>
      <trkpt lat="43.13689" lon="6.10525">
        <ele>183.59375</ele>
        <time>2021-01-17T15:13:52Z</time>
      </trkpt>
      <trkpt lat="43.13709" lon="6.10469">
        <ele>187.81640625</ele>
        <time>2021-01-17T15:14:04Z</time>
      </trkpt>
      <trkpt lat="43.13725" lon="6.10407">
        <ele>189.84375</ele>
        <time>2021-01-17T15:14:18Z</time>
      </trkpt>
      <trkpt lat="43.13725" lon="6.10398">
        <ele>190.35546875</ele>
        <time>2021-01-17T15:14:20Z</time>
      </trkpt>
      <trkpt lat="43.13728" lon="6.10369">
        <ele>192.23046875</ele>
        <time>2021-01-17T15:14:27Z</time>
      </trkpt>
      <trkpt lat="43.13724" lon="6.10313">
        <ele>198.3203125</ele>
        <time>2021-01-17T15:14:41Z</time>
      </trkpt>
      <trkpt lat="43.13718" lon="6.10282">
        <ele>203.4453125</ele>
        <time>2021-01-17T15:14:50Z</time>
      </trkpt>
      <trkpt lat="43.13717" lon="6.10279">
        <ele>204.06640625</ele>
        <time>2021-01-17T15:14:51Z</time>
      </trkpt>
      <trkpt lat="43.13709" lon="6.10263">
        <ele>207.359375</ele>
        <time>2021-01-17T15:14:57Z</time>
      </trkpt>
      <trkpt lat="43.137" lon="6.10248">
        <ele>210.51953125</ele>
        <time>2021-01-17T15:15:03Z</time>
      </trkpt>
      <trkpt lat="43.13698" lon="6.10222">
        <ele>214.1171875</ele>
        <time>2021-01-17T15:15:11Z</time>
      </trkpt>
      <trkpt lat="43.13722" lon="6.10187">
        <ele>215.25</ele>
        <time>2021-01-17T15:15:23Z</time>
      </trkpt>
      <trkpt lat="43.13718" lon="6.10153">
        <ele>218.4140625</ele>
        <time>2021-01-17T15:15:33Z</time>
      </trkpt>
      <trkpt lat="43.13706" lon="6.10125">
        <ele>222.5</ele>
        <time>2021-01-17T15:15:42Z</time>
      </trkpt>
      <trkpt lat="43.13675" lon="6.1008">
        <ele>224.83203125</ele>
        <time>2021-01-17T15:15:56Z</time>
      </trkpt>
      <trkpt lat="43.13661" lon="6.10056">
        <ele>227.1484375</ele>
        <time>2021-01-17T15:16:04Z</time>
      </trkpt>
      <trkpt lat="43.13656" lon="6.1005">
        <ele>227.70703125</ele>
        <time>2021-01-17T15:16:07Z</time>
      </trkpt>
      <trkpt lat="43.13644" lon="6.10027">
        <ele>230.83203125</ele>
        <time>2021-01-17T15:16:16Z</time>
      </trkpt>
      <trkpt lat="43.13635" lon="6.10008">
        <ele>233.6875</ele>
        <time>2021-01-17T15:16:23Z</time>
      </trkpt>
      <trkpt lat="43.13618" lon="6.09974">
        <ele>236.625</ele>
        <time>2021-01-17T15:16:34Z</time>
      </trkpt>
      <trkpt lat="43.13617" lon="6.09971">
        <ele>236.359375</ele>
        <time>2021-01-17T15:16:35Z</time>
      </trkpt>
      <trkpt lat="43.13614" lon="6.09969">
        <ele>235.93359375</ele>
        <time>2021-01-17T15:16:36Z</time>
      </trkpt>
      <trkpt lat="43.13613" lon="6.09967">
        <ele>235.75390625</ele>
        <time>2021-01-17T15:16:37Z</time>
      </trkpt>
      <trkpt lat="43.13612" lon="6.09964">
        <ele>236.04296875</ele>
        <time>2021-01-17T15:16:38Z</time>
      </trkpt>
      <trkpt lat="43.13612" lon="6.09961">
        <ele>236.36328125</ele>
        <time>2021-01-17T15:16:39Z</time>
      </trkpt>
      <trkpt lat="43.13612" lon="6.09959">
        <ele>236.484375</ele>
        <time>2021-01-17T15:16:40Z</time>
      </trkpt>
      <trkpt lat="43.13611" lon="6.09957">
        <ele>236.296875</ele>
        <time>2021-01-17T15:16:41Z</time>
      </trkpt>
      <trkpt lat="43.13609" lon="6.09956">
        <ele>235.94921875</ele>
        <time>2021-01-17T15:16:42Z</time>
      </trkpt>
      <trkpt lat="43.13607" lon="6.09954">
        <ele>235.5859375</ele>
        <time>2021-01-17T15:16:43Z</time>
      </trkpt>
      <trkpt lat="43.13605" lon="6.09951">
        <ele>235.20703125</ele>
        <time>2021-01-17T15:16:44Z</time>
      </trkpt>
      <trkpt lat="43.13603" lon="6.09949">
        <ele>234.89453125</ele>
        <time>2021-01-17T15:16:45Z</time>
      </trkpt>
      <trkpt lat="43.13602" lon="6.09946">
        <ele>234.7109375</ele>
        <time>2021-01-17T15:16:46Z</time>
      </trkpt>
      <trkpt lat="43.13599" lon="6.09944">
        <ele>234.26171875</ele>
        <time>2021-01-17T15:16:47Z</time>
      </trkpt>
      <trkpt lat="43.13596" lon="6.0994">
        <ele>233.828125</ele>
        <time>2021-01-17T15:16:48Z</time>
      </trkpt>
      <trkpt lat="43.13594" lon="6.09936">
        <ele>233.7890625</ele>
        <time>2021-01-17T15:16:49Z</time>
      </trkpt>
      <trkpt lat="43.13593" lon="6.09933">
        <ele>233.859375</ele>
        <time>2021-01-17T15:16:50Z</time>
      </trkpt>
      <trkpt lat="43.13593" lon="6.09931">
        <ele>233.81640625</ele>
        <time>2021-01-17T15:16:51Z</time>
      </trkpt>
      <trkpt lat="43.13587" lon="6.09894">
        <ele>231.8671875</ele>
        <time>2021-01-17T15:17:02Z</time>
      </trkpt>
      <trkpt lat="43.13586" lon="6.09887">
        <ele>231.51171875</ele>
        <time>2021-01-17T15:17:03Z</time>
      </trkpt>
      <trkpt lat="43.13585" lon="6.09871">
        <ele>230.1875</ele>
        <time>2021-01-17T15:17:05Z</time>
      </trkpt>
      <trkpt lat="43.13584" lon="6.09864">
        <ele>229.19921875</ele>
        <time>2021-01-17T15:17:06Z</time>
      </trkpt>
      <trkpt lat="43.13582" lon="6.09857">
        <ele>228.2734375</ele>
        <time>2021-01-17T15:17:07Z</time>
      </trkpt>
      <trkpt lat="43.13577" lon="6.09845">
        <ele>227.140625</ele>
        <time>2021-01-17T15:17:09Z</time>
      </trkpt>
      <trkpt lat="43.13574" lon="6.0984">
        <ele>226.94921875</ele>
        <time>2021-01-17T15:17:10Z</time>
      </trkpt>
      <trkpt lat="43.13572" lon="6.09835">
        <ele>226.84765625</ele>
        <time>2021-01-17T15:17:11Z</time>
      </trkpt>
      <trkpt lat="43.13571" lon="6.0983">
        <ele>226.78125</ele>
        <time>2021-01-17T15:17:12Z</time>
      </trkpt>
      <trkpt lat="43.13571" lon="6.09825">
        <ele>226.69140625</ele>
        <time>2021-01-17T15:17:13Z</time>
      </trkpt>
      <trkpt lat="43.13571" lon="6.09821">
        <ele>226.578125</ele>
        <time>2021-01-17T15:17:14Z</time>
      </trkpt>
      <trkpt lat="43.13572" lon="6.09818">
        <ele>226.42578125</ele>
        <time>2021-01-17T15:17:15Z</time>
      </trkpt>
      <trkpt lat="43.13573" lon="6.09815">
        <ele>226.2421875</ele>
        <time>2021-01-17T15:17:16Z</time>
      </trkpt>
      <trkpt lat="43.13574" lon="6.09812">
        <ele>226.015625</ele>
        <time>2021-01-17T15:17:17Z</time>
      </trkpt>
      <trkpt lat="43.13574" lon="6.09808">
        <ele>225.7890625</ele>
        <time>2021-01-17T15:17:18Z</time>
      </trkpt>
      <trkpt lat="43.13575" lon="6.09805">
        <ele>225.55078125</ele>
        <time>2021-01-17T15:17:19Z</time>
      </trkpt>
      <trkpt lat="43.13576" lon="6.09802">
        <ele>225.29296875</ele>
        <time>2021-01-17T15:17:20Z</time>
      </trkpt>
      <trkpt lat="43.13585" lon="6.0975">
        <ele>222.8671875</ele>
        <time>2021-01-17T15:17:34Z</time>
      </trkpt>
      <trkpt lat="43.13587" lon="6.09706">
        <ele>222.5234375</ele>
        <time>2021-01-17T15:17:45Z</time>
      </trkpt>
      <trkpt lat="43.13585" lon="6.09685">
        <ele>223.66796875</ele>
        <time>2021-01-17T15:17:50Z</time>
      </trkpt>
      <trkpt lat="43.13584" lon="6.09681">
        <ele>224.10546875</ele>
        <time>2021-01-17T15:17:51Z</time>
      </trkpt>
      <trkpt lat="43.13583" lon="6.09678">
        <ele>224.4765625</ele>
        <time>2021-01-17T15:17:52Z</time>
      </trkpt>
      <trkpt lat="43.13582" lon="6.09674">
        <ele>224.90234375</ele>
        <time>2021-01-17T15:17:53Z</time>
      </trkpt>
      <trkpt lat="43.1358" lon="6.0967">
        <ele>225.4921875</ele>
        <time>2021-01-17T15:17:54Z</time>
      </trkpt>
      <trkpt lat="43.13578" lon="6.09667">
        <ele>226.1796875</ele>
        <time>2021-01-17T15:17:55Z</time>
      </trkpt>
      <trkpt lat="43.13565" lon="6.09631">
        <ele>231.04296875</ele>
        <time>2021-01-17T15:18:07Z</time>
      </trkpt>
      <trkpt lat="43.13566" lon="6.0962">
        <ele>230.16015625</ele>
        <time>2021-01-17T15:18:11Z</time>
      </trkpt>
      <trkpt lat="43.13575" lon="6.09608">
        <ele>225.375</ele>
        <time>2021-01-17T15:18:24Z</time>
      </trkpt>
      <trkpt lat="43.13579" lon="6.09603">
        <ele>223.78125</ele>
        <time>2021-01-17T15:18:25Z</time>
      </trkpt>
      <trkpt lat="43.13582" lon="6.09597">
        <ele>222.265625</ele>
        <time>2021-01-17T15:18:26Z</time>
      </trkpt>
      <trkpt lat="43.13584" lon="6.09592">
        <ele>221.1875</ele>
        <time>2021-01-17T15:18:27Z</time>
      </trkpt>
      <trkpt lat="43.13585" lon="6.0959">
        <ele>220.4609375</ele>
        <time>2021-01-17T15:18:29Z</time>
      </trkpt>
      <trkpt lat="43.13581" lon="6.09586">
        <ele>222.26171875</ele>
        <time>2021-01-17T15:18:46Z</time>
      </trkpt>
      <trkpt lat="43.13583" lon="6.09582">
        <ele>221.2578125</ele>
        <time>2021-01-17T15:19:03Z</time>
      </trkpt>
      <trkpt lat="43.13588" lon="6.09584">
        <ele>218.9921875</ele>
        <time>2021-01-17T15:19:06Z</time>
      </trkpt>
      <trkpt lat="43.13592" lon="6.09583">
        <ele>217.11328125</ele>
        <time>2021-01-17T15:19:09Z</time>
      </trkpt>
      <trkpt lat="43.13595" lon="6.0958">
        <ele>215.7890625</ele>
        <time>2021-01-17T15:19:10Z</time>
      </trkpt>
      <trkpt lat="43.13599" lon="6.09573">
        <ele>213.61328125</ele>
        <time>2021-01-17T15:19:12Z</time>
      </trkpt>
      <trkpt lat="43.13609" lon="6.09562">
        <ele>208.29296875</ele>
        <time>2021-01-17T15:19:16Z</time>
      </trkpt>
      <trkpt lat="43.13619" lon="6.09546">
        <ele>202.70703125</ele>
        <time>2021-01-17T15:19:20Z</time>
      </trkpt>
      <trkpt lat="43.13621" lon="6.09542">
        <ele>201.3828125</ele>
        <time>2021-01-17T15:19:21Z</time>
      </trkpt>
      <trkpt lat="43.13623" lon="6.09532">
        <ele>199.98046875</ele>
        <time>2021-01-17T15:19:23Z</time>
      </trkpt>
      <trkpt lat="43.13626" lon="6.09521">
        <ele>198.05859375</ele>
        <time>2021-01-17T15:19:26Z</time>
      </trkpt>
      <trkpt lat="43.1363" lon="6.09512">
        <ele>195.70703125</ele>
        <time>2021-01-17T15:19:29Z</time>
      </trkpt>
      <trkpt lat="43.13633" lon="6.09511">
        <ele>194.15234375</ele>
        <time>2021-01-17T15:19:32Z</time>
      </trkpt>
      <trkpt lat="43.13632" lon="6.09509">
        <ele>194.1796875</ele>
        <time>2021-01-17T15:19:36Z</time>
      </trkpt>
      <trkpt lat="43.13633" lon="6.09507">
        <ele>193.84375</ele>
        <time>2021-01-17T15:19:40Z</time>
      </trkpt>
      <trkpt lat="43.13634" lon="6.09507">
        <ele>193.46875</ele>
        <time>2021-01-17T15:19:41Z</time>
      </trkpt>
      <trkpt lat="43.13639" lon="6.09498">
        <ele>190.33984375</ele>
        <time>2021-01-17T15:19:46Z</time>
      </trkpt>
      <trkpt lat="43.13636" lon="6.09496">
        <ele>191.18359375</ele>
        <time>2021-01-17T15:20:00Z</time>
      </trkpt>
      <trkpt lat="43.13635" lon="6.09492">
        <ele>191.30078125</ele>
        <time>2021-01-17T15:20:14Z</time>
      </trkpt>
      <trkpt lat="43.1363" lon="6.09461">
        <ele>191.33984375</ele>
        <time>2021-01-17T15:20:22Z</time>
      </trkpt>
      <trkpt lat="43.13627" lon="6.09456">
        <ele>191.59375</ele>
        <time>2021-01-17T15:20:23Z</time>
      </trkpt>
      <trkpt lat="43.13622" lon="6.09435">
        <ele>191.1796875</ele>
        <time>2021-01-17T15:20:26Z</time>
      </trkpt>
      <trkpt lat="43.1362" lon="6.09423">
        <ele>189.89453125</ele>
        <time>2021-01-17T15:20:28Z</time>
      </trkpt>
      <trkpt lat="43.13614" lon="6.09418">
        <ele>190.94140625</ele>
        <time>2021-01-17T15:20:36Z</time>
      </trkpt>
      <trkpt lat="43.13617" lon="6.09399">
        <ele>186.765625</ele>
        <time>2021-01-17T15:20:43Z</time>
      </trkpt>
      <trkpt lat="43.13617" lon="6.09387">
        <ele>184.27734375</ele>
        <time>2021-01-17T15:20:47Z</time>
      </trkpt>
      <trkpt lat="43.13622" lon="6.09382">
        <ele>182.5234375</ele>
        <time>2021-01-17T15:20:49Z</time>
      </trkpt>
      <trkpt lat="43.13626" lon="6.09365">
        <ele>178.50390625</ele>
        <time>2021-01-17T15:20:54Z</time>
      </trkpt>
      <trkpt lat="43.13626" lon="6.09362">
        <ele>178.25390625</ele>
        <time>2021-01-17T15:20:56Z</time>
      </trkpt>
      <trkpt lat="43.13629" lon="6.09341">
        <ele>174.41015625</ele>
        <time>2021-01-17T15:21:05Z</time>
      </trkpt>
      <trkpt lat="43.13629" lon="6.09332">
        <ele>172.98046875</ele>
        <time>2021-01-17T15:21:09Z</time>
      </trkpt>
      <trkpt lat="43.13629" lon="6.09331">
        <ele>172.8671875</ele>
        <time>2021-01-17T15:21:12Z</time>
      </trkpt>
      <trkpt lat="43.13629" lon="6.0933">
        <ele>172.78515625</ele>
        <time>2021-01-17T15:21:14Z</time>
      </trkpt>
      <trkpt lat="43.13626" lon="6.09327">
        <ele>172.75390625</ele>
        <time>2021-01-17T15:21:19Z</time>
      </trkpt>
      <trkpt lat="43.13626" lon="6.09325">
        <ele>172.5546875</ele>
        <time>2021-01-17T15:21:21Z</time>
      </trkpt>
      <trkpt lat="43.13626" lon="6.09321">
        <ele>171.77734375</ele>
        <time>2021-01-17T15:21:26Z</time>
      </trkpt>
      <trkpt lat="43.13637" lon="6.09315">
        <ele>168.90625</ele>
        <time>2021-01-17T15:21:31Z</time>
      </trkpt>
      <trkpt lat="43.13641" lon="6.09314">
        <ele>168.13671875</ele>
        <time>2021-01-17T15:21:35Z</time>
      </trkpt>
      <trkpt lat="43.13639" lon="6.09314">
        <ele>168.44921875</ele>
        <time>2021-01-17T15:21:52Z</time>
      </trkpt>
      <trkpt lat="43.13638" lon="6.0931">
        <ele>167.98046875</ele>
        <time>2021-01-17T15:22:00Z</time>
      </trkpt>
      <trkpt lat="43.13632" lon="6.09293">
        <ele>166.109375</ele>
        <time>2021-01-17T15:22:05Z</time>
      </trkpt>
      <trkpt lat="43.13636" lon="6.09284">
        <ele>163.63671875</ele>
        <time>2021-01-17T15:22:08Z</time>
      </trkpt>
      <trkpt lat="43.13635" lon="6.09278">
        <ele>162.65234375</ele>
        <time>2021-01-17T15:22:10Z</time>
      </trkpt>
      <trkpt lat="43.13632" lon="6.09275">
        <ele>162.29296875</ele>
        <time>2021-01-17T15:22:12Z</time>
      </trkpt>
      <trkpt lat="43.13627" lon="6.09256">
        <ele>158.59375</ele>
        <time>2021-01-17T15:22:17Z</time>
      </trkpt>
      <trkpt lat="43.13632" lon="6.09236">
        <ele>153.41015625</ele>
        <time>2021-01-17T15:22:22Z</time>
      </trkpt>
      <trkpt lat="43.13635" lon="6.09227">
        <ele>150.9921875</ele>
        <time>2021-01-17T15:22:24Z</time>
      </trkpt>
      <trkpt lat="43.13638" lon="6.09216">
        <ele>148.16015625</ele>
        <time>2021-01-17T15:22:26Z</time>
      </trkpt>
      <trkpt lat="43.13639" lon="6.09209">
        <ele>146.37890625</ele>
        <time>2021-01-17T15:22:27Z</time>
      </trkpt>
      <trkpt lat="43.1364" lon="6.09201">
        <ele>144.4609375</ele>
        <time>2021-01-17T15:22:28Z</time>
      </trkpt>
      <trkpt lat="43.1364" lon="6.09193">
        <ele>142.4453125</ele>
        <time>2021-01-17T15:22:29Z</time>
      </trkpt>
      <trkpt lat="43.13641" lon="6.09185">
        <ele>140.42578125</ele>
        <time>2021-01-17T15:22:30Z</time>
      </trkpt>
      <trkpt lat="43.13644" lon="6.09178">
        <ele>138.9140625</ele>
        <time>2021-01-17T15:22:36Z</time>
      </trkpt>
      <trkpt lat="43.13645" lon="6.09177">
        <ele>138.73046875</ele>
        <time>2021-01-17T15:22:43Z</time>
      </trkpt>
      <trkpt lat="43.13643" lon="6.09175">
        <ele>138.71484375</ele>
        <time>2021-01-17T15:23:02Z</time>
      </trkpt>
      <trkpt lat="43.13643" lon="6.09174">
        <ele>138.4921875</ele>
        <time>2021-01-17T15:23:03Z</time>
      </trkpt>
      <trkpt lat="43.13643" lon="6.09171">
        <ele>138.19921875</ele>
        <time>2021-01-17T15:23:04Z</time>
      </trkpt>
      <trkpt lat="43.13643" lon="6.09169">
        <ele>137.90234375</ele>
        <time>2021-01-17T15:23:05Z</time>
      </trkpt>
      <trkpt lat="43.13643" lon="6.09165">
        <ele>137.5234375</ele>
        <time>2021-01-17T15:23:06Z</time>
      </trkpt>
      <trkpt lat="43.13643" lon="6.09161">
        <ele>137.015625</ele>
        <time>2021-01-17T15:23:07Z</time>
      </trkpt>
      <trkpt lat="43.13648" lon="6.09095">
        <ele>128.984375</ele>
        <time>2021-01-17T15:23:20Z</time>
      </trkpt>
      <trkpt lat="43.13647" lon="6.09061">
        <ele>127.05078125</ele>
        <time>2021-01-17T15:23:24Z</time>
      </trkpt>
      <trkpt lat="43.13648" lon="6.09056">
        <ele>126.68359375</ele>
        <time>2021-01-17T15:23:25Z</time>
      </trkpt>
      <trkpt lat="43.1365" lon="6.09052">
        <ele>126.14453125</ele>
        <time>2021-01-17T15:23:26Z</time>
      </trkpt>
      <trkpt lat="43.13653" lon="6.09049">
        <ele>125.15625</ele>
        <time>2021-01-17T15:23:27Z</time>
      </trkpt>
      <trkpt lat="43.13657" lon="6.09046">
        <ele>123.98828125</ele>
        <time>2021-01-17T15:23:28Z</time>
      </trkpt>
      <trkpt lat="43.1366" lon="6.09041">
        <ele>123.015625</ele>
        <time>2021-01-17T15:23:29Z</time>
      </trkpt>
      <trkpt lat="43.13663" lon="6.09037">
        <ele>122.16015625</ele>
        <time>2021-01-17T15:23:30Z</time>
      </trkpt>
      <trkpt lat="43.13666" lon="6.09035">
        <ele>121.390625</ele>
        <time>2021-01-17T15:23:31Z</time>
      </trkpt>
      <trkpt lat="43.13669" lon="6.09035">
        <ele>120.5703125</ele>
        <time>2021-01-17T15:23:32Z</time>
      </trkpt>
      <trkpt lat="43.13672" lon="6.09035">
        <ele>119.63671875</ele>
        <time>2021-01-17T15:23:33Z</time>
      </trkpt>
      <trkpt lat="43.13674" lon="6.09034">
        <ele>118.84765625</ele>
        <time>2021-01-17T15:23:34Z</time>
      </trkpt>
      <trkpt lat="43.13677" lon="6.09031">
        <ele>118.08984375</ele>
        <time>2021-01-17T15:23:35Z</time>
      </trkpt>
      <trkpt lat="43.1368" lon="6.09028">
        <ele>116.8046875</ele>
        <time>2021-01-17T15:23:36Z</time>
      </trkpt>
      <trkpt lat="43.13684" lon="6.09024">
        <ele>114.99609375</ele>
        <time>2021-01-17T15:23:37Z</time>
      </trkpt>
      <trkpt lat="43.13689" lon="6.09019">
        <ele>112.92578125</ele>
        <time>2021-01-17T15:23:38Z</time>
      </trkpt>
      <trkpt lat="43.13693" lon="6.09013">
        <ele>111.26953125</ele>
        <time>2021-01-17T15:23:39Z</time>
      </trkpt>
      <trkpt lat="43.13696" lon="6.09009">
        <ele>109.9921875</ele>
        <time>2021-01-17T15:23:40Z</time>
      </trkpt>
      <trkpt lat="43.13698" lon="6.09006">
        <ele>108.94140625</ele>
        <time>2021-01-17T15:23:41Z</time>
      </trkpt>
      <trkpt lat="43.13705" lon="6.08998">
        <ele>105.99609375</ele>
        <time>2021-01-17T15:23:44Z</time>
      </trkpt>
      <trkpt lat="43.13712" lon="6.08986">
        <ele>103.6484375</ele>
        <time>2021-01-17T15:23:47Z</time>
      </trkpt>
      <trkpt lat="43.13713" lon="6.0898">
        <ele>103.64453125</ele>
        <time>2021-01-17T15:23:48Z</time>
      </trkpt>
      <trkpt lat="43.13714" lon="6.08977">
        <ele>103.52734375</ele>
        <time>2021-01-17T15:23:49Z</time>
      </trkpt>
      <trkpt lat="43.13716" lon="6.08973">
        <ele>103.203125</ele>
        <time>2021-01-17T15:23:50Z</time>
      </trkpt>
      <trkpt lat="43.13718" lon="6.08969">
        <ele>102.8984375</ele>
        <time>2021-01-17T15:23:51Z</time>
      </trkpt>
      <trkpt lat="43.13719" lon="6.08965">
        <ele>102.47265625</ele>
        <time>2021-01-17T15:23:52Z</time>
      </trkpt>
      <trkpt lat="43.13721" lon="6.08963">
        <ele>101.76171875</ele>
        <time>2021-01-17T15:23:53Z</time>
      </trkpt>
      <trkpt lat="43.13723" lon="6.08961">
        <ele>101.2109375</ele>
        <time>2021-01-17T15:23:54Z</time>
      </trkpt>
      <trkpt lat="43.13725" lon="6.08958">
        <ele>100.921875</ele>
        <time>2021-01-17T15:23:55Z</time>
      </trkpt>
      <trkpt lat="43.13726" lon="6.08955">
        <ele>100.6953125</ele>
        <time>2021-01-17T15:23:56Z</time>
      </trkpt>
      <trkpt lat="43.13727" lon="6.08952">
        <ele>100.37109375</ele>
        <time>2021-01-17T15:23:57Z</time>
      </trkpt>
      <trkpt lat="43.13729" lon="6.08949">
        <ele>100.01953125</ele>
        <time>2021-01-17T15:23:58Z</time>
      </trkpt>
      <trkpt lat="43.13731" lon="6.08946">
        <ele>99.6015625</ele>
        <time>2021-01-17T15:23:59Z</time>
      </trkpt>
      <trkpt lat="43.13732" lon="6.08944">
        <ele>99.3828125</ele>
        <time>2021-01-17T15:24:00Z</time>
      </trkpt>
      <trkpt lat="43.13733" lon="6.08942">
        <ele>99.12890625</ele>
        <time>2021-01-17T15:24:01Z</time>
      </trkpt>
      <trkpt lat="43.13735" lon="6.08941">
        <ele>98.6796875</ele>
        <time>2021-01-17T15:24:02Z</time>
      </trkpt>
      <trkpt lat="43.13736" lon="6.08938">
        <ele>98.30078125</ele>
        <time>2021-01-17T15:24:03Z</time>
      </trkpt>
      <trkpt lat="43.13736" lon="6.08936">
        <ele>98.41796875</ele>
        <time>2021-01-17T15:24:05Z</time>
      </trkpt>
      <trkpt lat="43.13742" lon="6.08924">
        <ele>96.66015625</ele>
        <time>2021-01-17T15:24:12Z</time>
      </trkpt>
      <trkpt lat="43.13743" lon="6.08922">
        <ele>96.52734375</ele>
        <time>2021-01-17T15:24:13Z</time>
      </trkpt>
      <trkpt lat="43.13745" lon="6.08918">
        <ele>95.8984375</ele>
        <time>2021-01-17T15:24:16Z</time>
      </trkpt>
      <trkpt lat="43.13745" lon="6.08916">
        <ele>95.65625</ele>
        <time>2021-01-17T15:24:17Z</time>
      </trkpt>
      <trkpt lat="43.13749" lon="6.08912">
        <ele>94.484375</ele>
        <time>2021-01-17T15:24:19Z</time>
      </trkpt>
      <trkpt lat="43.13752" lon="6.0891">
        <ele>93.44140625</ele>
        <time>2021-01-17T15:24:20Z</time>
      </trkpt>
      <trkpt lat="43.13754" lon="6.08907">
        <ele>92.515625</ele>
        <time>2021-01-17T15:24:21Z</time>
      </trkpt>
      <trkpt lat="43.13764" lon="6.08893">
        <ele>89.1875</ele>
        <time>2021-01-17T15:24:26Z</time>
      </trkpt>
      <trkpt lat="43.13767" lon="6.08889">
        <ele>88.421875</ele>
        <time>2021-01-17T15:24:27Z</time>
      </trkpt>
      <trkpt lat="43.13769" lon="6.08886">
        <ele>87.67578125</ele>
        <time>2021-01-17T15:24:28Z</time>
      </trkpt>
      <trkpt lat="43.13771" lon="6.08882">
        <ele>87.140625</ele>
        <time>2021-01-17T15:24:29Z</time>
      </trkpt>
      <trkpt lat="43.13772" lon="6.08879">
        <ele>86.796875</ele>
        <time>2021-01-17T15:24:30Z</time>
      </trkpt>
      <trkpt lat="43.13773" lon="6.08875">
        <ele>86.44140625</ele>
        <time>2021-01-17T15:24:31Z</time>
      </trkpt>
      <trkpt lat="43.13781" lon="6.08856">
        <ele>83.83203125</ele>
        <time>2021-01-17T15:24:35Z</time>
      </trkpt>
      <trkpt lat="43.13787" lon="6.08838">
        <ele>81.4453125</ele>
        <time>2021-01-17T15:24:40Z</time>
      </trkpt>
      <trkpt lat="43.13789" lon="6.08834">
        <ele>80.91796875</ele>
        <time>2021-01-17T15:24:41Z</time>
      </trkpt>
      <trkpt lat="43.1379" lon="6.08832">
        <ele>80.390625</ele>
        <time>2021-01-17T15:24:42Z</time>
      </trkpt>
      <trkpt lat="43.13792" lon="6.0883">
        <ele>79.69921875</ele>
        <time>2021-01-17T15:24:43Z</time>
      </trkpt>
      <trkpt lat="43.13795" lon="6.08828">
        <ele>78.98828125</ele>
        <time>2021-01-17T15:24:44Z</time>
      </trkpt>
      <trkpt lat="43.13797" lon="6.08825">
        <ele>78.30859375</ele>
        <time>2021-01-17T15:24:45Z</time>
      </trkpt>
      <trkpt lat="43.13798" lon="6.08821">
        <ele>77.78515625</ele>
        <time>2021-01-17T15:24:46Z</time>
      </trkpt>
      <trkpt lat="43.13799" lon="6.08818">
        <ele>77.38671875</ele>
        <time>2021-01-17T15:24:47Z</time>
      </trkpt>
      <trkpt lat="43.13802" lon="6.08812">
        <ele>76.3828125</ele>
        <time>2021-01-17T15:24:50Z</time>
      </trkpt>
      <trkpt lat="43.13804" lon="6.08806">
        <ele>75.4921875</ele>
        <time>2021-01-17T15:24:52Z</time>
      </trkpt>
      <trkpt lat="43.13803" lon="6.088">
        <ele>75.671875</ele>
        <time>2021-01-17T15:25:03Z</time>
      </trkpt>
      <trkpt lat="43.13807" lon="6.08789">
        <ele>74.125</ele>
        <time>2021-01-17T15:25:23Z</time>
      </trkpt>
      <trkpt lat="43.13811" lon="6.08775">
        <ele>72.58984375</ele>
        <time>2021-01-17T15:25:26Z</time>
      </trkpt>
      <trkpt lat="43.13812" lon="6.0877">
        <ele>72.4375</ele>
        <time>2021-01-17T15:25:27Z</time>
      </trkpt>
      <trkpt lat="43.13811" lon="6.08765">
        <ele>72.85546875</ele>
        <time>2021-01-17T15:25:28Z</time>
      </trkpt>
      <trkpt lat="43.1381" lon="6.08759">
        <ele>73.3984375</ele>
        <time>2021-01-17T15:25:29Z</time>
      </trkpt>
      <trkpt lat="43.1381" lon="6.08753">
        <ele>73.65234375</ele>
        <time>2021-01-17T15:25:30Z</time>
      </trkpt>
      <trkpt lat="43.1381" lon="6.08747">
        <ele>73.609375</ele>
        <time>2021-01-17T15:25:31Z</time>
      </trkpt>
      <trkpt lat="43.13811" lon="6.08744">
        <ele>73.3671875</ele>
        <time>2021-01-17T15:25:32Z</time>
      </trkpt>
      <trkpt lat="43.13813" lon="6.08742">
        <ele>72.89453125</ele>
        <time>2021-01-17T15:25:33Z</time>
      </trkpt>
      <trkpt lat="43.13815" lon="6.08741">
        <ele>72.3125</ele>
        <time>2021-01-17T15:25:34Z</time>
      </trkpt>
      <trkpt lat="43.13818" lon="6.0874">
        <ele>71.65625</ele>
        <time>2021-01-17T15:25:35Z</time>
      </trkpt>
      <trkpt lat="43.1382" lon="6.08739">
        <ele>71.0390625</ele>
        <time>2021-01-17T15:25:36Z</time>
      </trkpt>
      <trkpt lat="43.13824" lon="6.08736">
        <ele>70.27734375</ele>
        <time>2021-01-17T15:25:37Z</time>
      </trkpt>
      <trkpt lat="43.13835" lon="6.0873">
        <ele>68.06640625</ele>
        <time>2021-01-17T15:25:39Z</time>
      </trkpt>
      <trkpt lat="43.13843" lon="6.08722">
        <ele>66.4375</ele>
        <time>2021-01-17T15:25:41Z</time>
      </trkpt>
      <trkpt lat="43.13848" lon="6.08715">
        <ele>66.0390625</ele>
        <time>2021-01-17T15:25:42Z</time>
      </trkpt>
      <trkpt lat="43.13857" lon="6.08704">
        <ele>66.0078125</ele>
        <time>2021-01-17T15:25:44Z</time>
      </trkpt>
      <trkpt lat="43.13862" lon="6.08698">
        <ele>66.0703125</ele>
        <time>2021-01-17T15:25:45Z</time>
      </trkpt>
      <trkpt lat="43.1387" lon="6.08685">
        <ele>66.265625</ele>
        <time>2021-01-17T15:25:47Z</time>
      </trkpt>
      <trkpt lat="43.13873" lon="6.08677">
        <ele>66.64453125</ele>
        <time>2021-01-17T15:25:48Z</time>
      </trkpt>
      <trkpt lat="43.13877" lon="6.0867">
        <ele>66.87109375</ele>
        <time>2021-01-17T15:25:49Z</time>
      </trkpt>
      <trkpt lat="43.13881" lon="6.08665">
        <ele>66.63671875</ele>
        <time>2021-01-17T15:25:50Z</time>
      </trkpt>
      <trkpt lat="43.13885" lon="6.08661">
        <ele>66.140625</ele>
        <time>2021-01-17T15:25:51Z</time>
      </trkpt>
      <trkpt lat="43.1389" lon="6.08656">
        <ele>65.453125</ele>
        <time>2021-01-17T15:25:52Z</time>
      </trkpt>
      <trkpt lat="43.13901" lon="6.08647">
        <ele>64.24609375</ele>
        <time>2021-01-17T15:25:54Z</time>
      </trkpt>
      <trkpt lat="43.13905" lon="6.08641">
        <ele>64.33984375</ele>
        <time>2021-01-17T15:25:55Z</time>
      </trkpt>
      <trkpt lat="43.13909" lon="6.08635">
        <ele>64.50390625</ele>
        <time>2021-01-17T15:25:56Z</time>
      </trkpt>
      <trkpt lat="43.13913" lon="6.08627">
        <ele>64.76171875</ele>
        <time>2021-01-17T15:25:57Z</time>
      </trkpt>
      <trkpt lat="43.13917" lon="6.0862">
        <ele>65.08984375</ele>
        <time>2021-01-17T15:25:58Z</time>
      </trkpt>
      <trkpt lat="43.13921" lon="6.08613">
        <ele>65.328125</ele>
        <time>2021-01-17T15:25:59Z</time>
      </trkpt>
      <trkpt lat="43.13928" lon="6.08604">
        <ele>65.5234375</ele>
        <time>2021-01-17T15:26:01Z</time>
      </trkpt>
      <trkpt lat="43.13952" lon="6.0858">
        <ele>64.65234375</ele>
        <time>2021-01-17T15:26:09Z</time>
      </trkpt>
      <trkpt lat="43.13953" lon="6.08579">
        <ele>64.75390625</ele>
        <time>2021-01-17T15:26:10Z</time>
      </trkpt>
      <trkpt lat="43.13969" lon="6.08551">
        <ele>64.25</ele>
        <time>2021-01-17T15:26:21Z</time>
      </trkpt>
      <trkpt lat="43.13976" lon="6.08542">
        <ele>63.76953125</ele>
        <time>2021-01-17T15:26:23Z</time>
      </trkpt>
      <trkpt lat="43.14017" lon="6.08495">
        <ele>61.1796875</ele>
        <time>2021-01-17T15:26:33Z</time>
      </trkpt>
      <trkpt lat="43.14022" lon="6.0849">
        <ele>60.9765625</ele>
        <time>2021-01-17T15:26:36Z</time>
      </trkpt>
      <trkpt lat="43.14021" lon="6.08491">
        <ele>61.0234375</ele>
        <time>2021-01-17T15:26:42Z</time>
      </trkpt>
      <trkpt lat="43.14008" lon="6.08499">
        <ele>61.3984375</ele>
        <time>2021-01-17T15:26:57Z</time>
      </trkpt>
      <trkpt lat="43.14008" lon="6.08499">
        <ele>61.37890625</ele>
        <time>2021-01-17T15:26:58Z</time>
      </trkpt>
      <trkpt lat="43.14008" lon="6.08491">
        <ele>61.1171875</ele>
        <time>2021-01-17T15:27:01Z</time>
      </trkpt>
      <trkpt lat="43.14009" lon="6.08489">
        <ele>61.0078125</ele>
        <time>2021-01-17T15:27:02Z</time>
      </trkpt>
      <trkpt lat="43.14009" lon="6.08487">
        <ele>60.92578125</ele>
        <time>2021-01-17T15:27:03Z</time>
      </trkpt>
      <trkpt lat="43.14009" lon="6.08485">
        <ele>60.84765625</ele>
        <time>2021-01-17T15:27:04Z</time>
      </trkpt>
      <trkpt lat="43.14009" lon="6.08483">
        <ele>60.7890625</ele>
        <time>2021-01-17T15:27:05Z</time>
      </trkpt>
      <trkpt lat="43.14008" lon="6.08481">
        <ele>60.73046875</ele>
        <time>2021-01-17T15:27:06Z</time>
      </trkpt>
      <trkpt lat="43.14006" lon="6.08475">
        <ele>60.6328125</ele>
        <time>2021-01-17T15:27:08Z</time>
      </trkpt>
      <trkpt lat="43.14" lon="6.08471">
        <ele>60.6953125</ele>
        <time>2021-01-17T15:27:10Z</time>
      </trkpt>
      <trkpt lat="43.13993" lon="6.08458">
        <ele>60.3203125</ele>
        <time>2021-01-17T15:27:14Z</time>
      </trkpt>
      <trkpt lat="43.13992" lon="6.0845">
        <ele>59.72265625</ele>
        <time>2021-01-17T15:27:17Z</time>
      </trkpt>
      <trkpt lat="43.13993" lon="6.08446">
        <ele>59.3828125</ele>
        <time>2021-01-17T15:27:18Z</time>
      </trkpt>
      <trkpt lat="43.13995" lon="6.08441">
        <ele>59.01171875</ele>
        <time>2021-01-17T15:27:19Z</time>
      </trkpt>
      <trkpt lat="43.13997" lon="6.08438">
        <ele>58.71484375</ele>
        <time>2021-01-17T15:27:20Z</time>
      </trkpt>
      <trkpt lat="43.13997" lon="6.08435">
        <ele>58.49609375</ele>
        <time>2021-01-17T15:27:21Z</time>
      </trkpt>
      <trkpt lat="43.13997" lon="6.08425">
        <ele>57.8046875</ele>
        <time>2021-01-17T15:27:29Z</time>
      </trkpt>
      <trkpt lat="43.13998" lon="6.08423">
        <ele>57.6171875</ele>
        <time>2021-01-17T15:27:30Z</time>
      </trkpt>
      <trkpt lat="43.13998" lon="6.0842">
        <ele>57.359375</ele>
        <time>2021-01-17T15:27:40Z</time>
      </trkpt>
      <trkpt lat="43.13994" lon="6.08419">
        <ele>57.41796875</ele>
        <time>2021-01-17T15:27:56Z</time>
      </trkpt>
      <trkpt lat="43.13993" lon="6.08417">
        <ele>57.3203125</ele>
        <time>2021-01-17T15:27:57Z</time>
      </trkpt>
      <trkpt lat="43.13992" lon="6.08415">
        <ele>57.21875</ele>
        <time>2021-01-17T15:27:58Z</time>
      </trkpt>
      <trkpt lat="43.13991" lon="6.08412">
        <ele>57.078125</ele>
        <time>2021-01-17T15:27:59Z</time>
      </trkpt>
      <trkpt lat="43.13991" lon="6.08409">
        <ele>56.875</ele>
        <time>2021-01-17T15:28:00Z</time>
      </trkpt>
      <trkpt lat="43.13991" lon="6.08407">
        <ele>56.6953125</ele>
        <time>2021-01-17T15:28:01Z</time>
      </trkpt>
      <trkpt lat="43.1399" lon="6.08402">
        <ele>56.484375</ele>
        <time>2021-01-17T15:28:16Z</time>
      </trkpt>
      <trkpt lat="43.1399" lon="6.08399">
        <ele>56.3359375</ele>
        <time>2021-01-17T15:28:25Z</time>
      </trkpt>
      <trkpt lat="43.13989" lon="6.08397">
        <ele>56.3125</ele>
        <time>2021-01-17T15:28:26Z</time>
      </trkpt>
      <trkpt lat="43.13987" lon="6.08395">
        <ele>56.3515625</ele>
        <time>2021-01-17T15:28:27Z</time>
      </trkpt>
      <trkpt lat="43.13984" lon="6.08393">
        <ele>56.3984375</ele>
        <time>2021-01-17T15:28:28Z</time>
      </trkpt>
      <trkpt lat="43.13983" lon="6.08392">
        <ele>56.4375</ele>
        <time>2021-01-17T15:28:29Z</time>
      </trkpt>
      <trkpt lat="43.13978" lon="6.08387">
        <ele>56.79296875</ele>
        <time>2021-01-17T15:28:32Z</time>
      </trkpt>
      <trkpt lat="43.13976" lon="6.08386">
        <ele>56.921875</ele>
        <time>2021-01-17T15:28:33Z</time>
      </trkpt>
      <trkpt lat="43.13975" lon="6.08384">
        <ele>57</ele>
        <time>2021-01-17T15:28:34Z</time>
      </trkpt>
      <trkpt lat="43.13975" lon="6.08382">
        <ele>56.9375</ele>
        <time>2021-01-17T15:28:35Z</time>
      </trkpt>
      <trkpt lat="43.13975" lon="6.08379">
        <ele>56.78125</ele>
        <time>2021-01-17T15:28:36Z</time>
      </trkpt>
      <trkpt lat="43.13976" lon="6.08376">
        <ele>56.58203125</ele>
        <time>2021-01-17T15:28:37Z</time>
      </trkpt>
      <trkpt lat="43.13976" lon="6.08372">
        <ele>56.375</ele>
        <time>2021-01-17T15:28:38Z</time>
      </trkpt>
      <trkpt lat="43.1398" lon="6.08344">
        <ele>54.9140625</ele>
        <time>2021-01-17T15:28:43Z</time>
      </trkpt>
      <trkpt lat="43.13981" lon="6.0833">
        <ele>54.41015625</ele>
        <time>2021-01-17T15:28:45Z</time>
      </trkpt>
      <trkpt lat="43.13982" lon="6.08311">
        <ele>53.61328125</ele>
        <time>2021-01-17T15:28:48Z</time>
      </trkpt>
      <trkpt lat="43.13981" lon="6.08305">
        <ele>53.4921875</ele>
        <time>2021-01-17T15:28:49Z</time>
      </trkpt>
      <trkpt lat="43.13979" lon="6.08301">
        <ele>53.53125</ele>
        <time>2021-01-17T15:28:50Z</time>
      </trkpt>
      <trkpt lat="43.13977" lon="6.08299">
        <ele>53.68359375</ele>
        <time>2021-01-17T15:28:51Z</time>
      </trkpt>
      <trkpt lat="43.13976" lon="6.08299">
        <ele>53.8671875</ele>
        <time>2021-01-17T15:28:52Z</time>
      </trkpt>
      <trkpt lat="43.13973" lon="6.08299">
        <ele>54.078125</ele>
        <time>2021-01-17T15:28:53Z</time>
      </trkpt>
      <trkpt lat="43.13972" lon="6.08298">
        <ele>54.2578125</ele>
        <time>2021-01-17T15:28:54Z</time>
      </trkpt>
      <trkpt lat="43.1397" lon="6.08297">
        <ele>54.43359375</ele>
        <time>2021-01-17T15:28:55Z</time>
      </trkpt>
      <trkpt lat="43.13968" lon="6.08296">
        <ele>54.6171875</ele>
        <time>2021-01-17T15:28:56Z</time>
      </trkpt>
      <trkpt lat="43.13966" lon="6.08295">
        <ele>54.765625</ele>
        <time>2021-01-17T15:28:57Z</time>
      </trkpt>
      <trkpt lat="43.13964" lon="6.08293">
        <ele>54.9140625</ele>
        <time>2021-01-17T15:28:58Z</time>
      </trkpt>
      <trkpt lat="43.13963" lon="6.08292">
        <ele>55.0546875</ele>
        <time>2021-01-17T15:28:59Z</time>
      </trkpt>
      <trkpt lat="43.13961" lon="6.0829">
        <ele>55.19921875</ele>
        <time>2021-01-17T15:29:00Z</time>
      </trkpt>
      <trkpt lat="43.13959" lon="6.08289">
        <ele>55.3671875</ele>
        <time>2021-01-17T15:29:01Z</time>
      </trkpt>
      <trkpt lat="43.13957" lon="6.08287">
        <ele>55.53125</ele>
        <time>2021-01-17T15:29:02Z</time>
      </trkpt>
      <trkpt lat="43.13955" lon="6.08286">
        <ele>55.69140625</ele>
        <time>2021-01-17T15:29:03Z</time>
      </trkpt>
      <trkpt lat="43.13953" lon="6.08285">
        <ele>55.83203125</ele>
        <time>2021-01-17T15:29:04Z</time>
      </trkpt>
      <trkpt lat="43.13951" lon="6.08284">
        <ele>55.98828125</ele>
        <time>2021-01-17T15:29:05Z</time>
      </trkpt>
      <trkpt lat="43.13949" lon="6.08283">
        <ele>56.140625</ele>
        <time>2021-01-17T15:29:06Z</time>
      </trkpt>
      <trkpt lat="43.13948" lon="6.08283">
        <ele>56.28515625</ele>
        <time>2021-01-17T15:29:07Z</time>
      </trkpt>
      <trkpt lat="43.13947" lon="6.08283">
        <ele>56.41015625</ele>
        <time>2021-01-17T15:29:08Z</time>
      </trkpt>
      <trkpt lat="43.13945" lon="6.08282">
        <ele>56.52734375</ele>
        <time>2021-01-17T15:29:09Z</time>
      </trkpt>
      <trkpt lat="43.13927" lon="6.08271">
        <ele>58.0625</ele>
        <time>2021-01-17T15:29:22Z</time>
      </trkpt>
      <trkpt lat="43.13913" lon="6.08261">
        <ele>58.796875</ele>
        <time>2021-01-17T15:29:32Z</time>
      </trkpt>
      <trkpt lat="43.13907" lon="6.08255">
        <ele>58.984375</ele>
        <time>2021-01-17T15:29:37Z</time>
      </trkpt>
      <trkpt lat="43.13874" lon="6.08229">
        <ele>59.078125</ele>
        <time>2021-01-17T15:29:50Z</time>
      </trkpt>
      <trkpt lat="43.13858" lon="6.08223">
        <ele>59.54296875</ele>
        <time>2021-01-17T15:29:54Z</time>
      </trkpt>
      <trkpt lat="43.13842" lon="6.08213">
        <ele>60.1015625</ele>
        <time>2021-01-17T15:29:58Z</time>
      </trkpt>
      <trkpt lat="43.13838" lon="6.0821">
        <ele>60.23046875</ele>
        <time>2021-01-17T15:29:59Z</time>
      </trkpt>
      <trkpt lat="43.13834" lon="6.08207">
        <ele>60.32421875</ele>
        <time>2021-01-17T15:30:00Z</time>
      </trkpt>
      <trkpt lat="43.13794" lon="6.08169">
        <ele>60.33984375</ele>
        <time>2021-01-17T15:30:12Z</time>
      </trkpt>
      <trkpt lat="43.13791" lon="6.08166">
        <ele>60.3359375</ele>
        <time>2021-01-17T15:30:13Z</time>
      </trkpt>
      <trkpt lat="43.13765" lon="6.08135">
        <ele>60.88671875</ele>
        <time>2021-01-17T15:30:24Z</time>
      </trkpt>
      <trkpt lat="43.13733" lon="6.08104">
        <ele>62.08984375</ele>
        <time>2021-01-17T15:30:35Z</time>
      </trkpt>
      <trkpt lat="43.13714" lon="6.08083">
        <ele>62.83203125</ele>
        <time>2021-01-17T15:30:41Z</time>
      </trkpt>
      <trkpt lat="43.13707" lon="6.08075">
        <ele>62.87109375</ele>
        <time>2021-01-17T15:30:43Z</time>
      </trkpt>
      <trkpt lat="43.13704" lon="6.08072">
        <ele>62.8828125</ele>
        <time>2021-01-17T15:30:44Z</time>
      </trkpt>
      <trkpt lat="43.13702" lon="6.08067">
        <ele>62.73046875</ele>
        <time>2021-01-17T15:30:45Z</time>
      </trkpt>
      <trkpt lat="43.13701" lon="6.08062">
        <ele>62.2578125</ele>
        <time>2021-01-17T15:30:46Z</time>
      </trkpt>
      <trkpt lat="43.13702" lon="6.08057">
        <ele>61.640625</ele>
        <time>2021-01-17T15:30:47Z</time>
      </trkpt>
      <trkpt lat="43.13702" lon="6.08052">
        <ele>60.9921875</ele>
        <time>2021-01-17T15:30:48Z</time>
      </trkpt>
      <trkpt lat="43.13702" lon="6.08046">
        <ele>60.44921875</ele>
        <time>2021-01-17T15:30:49Z</time>
      </trkpt>
      <trkpt lat="43.13701" lon="6.08039">
        <ele>60.08984375</ele>
        <time>2021-01-17T15:30:50Z</time>
      </trkpt>
      <trkpt lat="43.13699" lon="6.08033">
        <ele>59.7265625</ele>
        <time>2021-01-17T15:30:51Z</time>
      </trkpt>
      <trkpt lat="43.13696" lon="6.08018">
        <ele>58.890625</ele>
        <time>2021-01-17T15:30:53Z</time>
      </trkpt>
      <trkpt lat="43.13694" lon="6.0801">
        <ele>58.75390625</ele>
        <time>2021-01-17T15:30:54Z</time>
      </trkpt>
      <trkpt lat="43.13691" lon="6.08003">
        <ele>58.69140625</ele>
        <time>2021-01-17T15:30:55Z</time>
      </trkpt>
      <trkpt lat="43.13686" lon="6.07996">
        <ele>58.65625</ele>
        <time>2021-01-17T15:30:56Z</time>
      </trkpt>
      <trkpt lat="43.13682" lon="6.0799">
        <ele>58.58984375</ele>
        <time>2021-01-17T15:30:57Z</time>
      </trkpt>
      <trkpt lat="43.13678" lon="6.07985">
        <ele>58.51171875</ele>
        <time>2021-01-17T15:30:58Z</time>
      </trkpt>
      <trkpt lat="43.13677" lon="6.07982">
        <ele>58.390625</ele>
        <time>2021-01-17T15:30:59Z</time>
      </trkpt>
      <trkpt lat="43.13677" lon="6.07979">
        <ele>58.21484375</ele>
        <time>2021-01-17T15:31:00Z</time>
      </trkpt>
      <trkpt lat="43.13678" lon="6.07978">
        <ele>58.046875</ele>
        <time>2021-01-17T15:31:01Z</time>
      </trkpt>
      <trkpt lat="43.13687" lon="6.07973">
        <ele>57.078125</ele>
        <time>2021-01-17T15:31:13Z</time>
      </trkpt>
      <trkpt lat="43.13688" lon="6.07974">
        <ele>56.97265625</ele>
        <time>2021-01-17T15:31:33Z</time>
      </trkpt>
      <trkpt lat="43.13688" lon="6.07974">
        <ele>57.01953125</ele>
        <time>2021-01-17T15:31:50Z</time>
      </trkpt>
    </trkseg>
  </trk>
</gpx>